[[{"header":{"parameterUnit":"m.s-1","parameterCategory":1,"la1":31.0,"la2":29.5877,"lo1":-88.7671,"lo2":-86.6584,"dy":0.0162,"dx":0.0185,"nx":115,"ny":88,"refTime":"2024-09-11T06:00:00:Z","depth":0,"parameterNumber":2,"parameterNumberName":"U-component_of_WINDS"},"data":[0.0,0.0,0.0,0.0,0.0,0.0,0.0,0.0,0.0,0.0,0.0,0.0,0.0,0.0,0.0,0.0,0.0,0.0,0.0,0.0,0.0,0.0,0.0,0.0,0.0,0.0,0.0,0.0,0.0,0.0,0.0,0.0,0.0,0.0,0.0,0.0,0.0,0.0,0.0,0.0,0.0,0.0,0.0,0.0,0.0,0.0,0.0,0.0,0.0,0.0,0.0,0.0,0.0,0.0,0.0,0.0,0.0,0.0,0.0,0.0,0.0,0.0,0.0,0.0,0.0,0.0,0.0,0.0,0.0,0.0,0.0,0.0,0.0,0.0,0.0,0.0,0.0,0.0,0.0,0.0,0.0,0.0,0.0,0.0,0.0,0.0,0.0,0.0,0.0,0.0,0.0,0.0,0.0,0.0,0.0,0.0,0.0,0.0,0.0,0.0,0.0,0.0,0.0,0.0,0.0,0.0,0.0,0.0,0.0,0.0,0.0,0.0,0.0,0.0,0.0,0.0,0.0,0.0,0.0,0.0,0.0,0.0,0.0,0.0,0.0,0.0,0.0,0.0,0.0,0.0,0.0,0.0,0.0,0.0,0.0,0.0,0.0,0.0,0.0,0.0,0.0,0.0,0.0,0.0,0.0,0.0,0.0,0.0,0.0,0.0,0.0,0.0,0.0,0.0,0.0,0.0,0.0,0.0,0.0,0.0,0.0,0.0,0.0,0.0,0.0,0.0,0.0,0.0,0.0,0.0,0.0,0.0,0.0,0.0,0.0,0.0,0.0,0.0,0.0,0.0,0.0,0.0,0.0,0.0,0.0,0.0,0.0,0.0,0.0,0.0,0.0,0.0,0.0,0.0,0.0,0.0,0.0,0.0,0.0,0.0,0.0,0.0,0.0,0.0,0.0,0.0,0.0,0.0,0.0,0.0,0.0,0.0,0.0,0.0,0.0,0.0,0.0,0.0,0.0,0.0,0.0,0.0,0.0,0.0,0.0,0.0,0.0,0.0,0.0,0.0,0.0,0.0,0.0,0.0,0.0,0.0,0.0,0.0,0.0,0.0,0.0,0.0,0.0,0.0,0.0,0.0,0.0,0.0,0.0,0.0,0.0,0.0,0.0,0.0,0.0,0.0,0.0,0.0,0.0,0.0,0.0,0.0,0.0,0.0,0.0,0.0,0.0,0.0,0.0,0.0,0.0,0.0,0.0,0.0,0.0,0.0,0.0,0.0,0.0,0.0,0.0,0.0,0.0,0.0,0.0,0.0,0.0,0.0,0.0,0.0,0.0,0.0,0.0,0.0,0.0,0.0,0.0,0.0,0.0,0.0,0.0,0.0,0.0,0.0,0.0,0.0,0.0,0.0,0.0,0.0,0.0,0.0,0.0,0.0,0.0,0.0,0.0,0.0,0.0,0.0,0.0,0.0,0.0,0.0,0.0,0.0,0.0,0.0,0.0,0.0,0.0,0.0,0.0,0.0,0.0,0.0,0.0,0.0,0.0,0.0,0.0,0.0,0.0,0.0,0.0,0.0,0.0,0.0,0.0,0.0,0.0,0.0,0.0,0.0,0.0,0.0,0.0,0.0,0.0,0.0,0.0,0.0,0.0,0.0,0.0,0.0,0.0,0.0,0.0,0.0,0.0,0.0,0.0,0.0,0.0,0.0,0.0,0.0,0.0,0.0,0.0,0.0,0.0,0.0,0.0,0.0,0.0,0.0,0.0,0.0,0.0,0.0,0.0,0.0,0.0,0.0,0.0,0.0,0.0,0.0,0.0,0.0,0.0,0.0,0.0,0.0,0.0,0.0,0.0,0.0,0.0,0.0,0.0,0.0,0.0,0.0,0.0,0.0,0.0,0.0,0.0,0.0,0.0,0.0,0.0,0.0,0.0,0.0,0.0,0.0,0.0,0.0,0.0,0.0,0.0,0.0,0.0,0.0,0.0,0.0,0.0,0.0,0.0,0.0,0.0,0.0,0.0,0.0,0.0,0.0,0.0,0.0,0.0,0.0,0.0,0.0,0.0,0.0,0.0,0.0,0.0,0.0,0.0,0.0,0.0,0.0,0.0,0.0,0.0,0.0,0.0,0.0,0.0,0.0,0.0,0.0,0.0,0.0,0.0,0.0,0.0,0.0,0.0,0.0,0.0,0.0,0.0,0.0,0.0,0.0,0.0,0.0,0.0,0.0,0.0,0.0,0.0,0.0,0.0,0.0,0.0,0.0,0.0,0.0,0.0,0.0,0.0,0.0,0.0,0.0,0.0,0.0,0.0,0.0,0.0,0.0,0.0,0.0,0.0,0.0,0.0,0.0,0.0,0.0,0.0,0.0,0.0,0.0,0.0,0.0,0.0,0.0,0.0,0.0,0.0,0.0,0.0,0.0,0.0,0.0,0.0,0.0,0.0,0.0,0.0,0.0,0.0,0.0,0.0,0.0,0.0,0.0,0.0,0.0,0.0,0.0,0.0,0.0,0.0,0.0,0.0,0.0,0.0,0.0,0.0,0.0,0.0,0.0,0.0,0.0,0.0,0.0,0.0,0.0,0.0,0.0,0.0,0.0,0.0,0.0,0.0,0.0,0.0,0.0,0.0,0.0,0.0,0.0,0.0,0.0,0.0,0.0,0.0,0.0,0.0,0.0,0.0,0.0,0.0,0.0,0.0,0.0,0.0,0.0,0.0,0.0,0.0,0.0,0.0,0.0,0.0,0.0,0.0,0.0,0.0,0.0,0.0,0.0,0.0,0.0,0.0,0.0,0.0,0.0,0.0,0.0,0.0,0.0,0.0,0.0,0.0,0.0,0.0,0.0,0.0,0.0,0.0,0.0,0.0,0.0,0.0,0.0,0.0,0.0,0.0,0.0,0.0,0.0,0.0,0.0,0.0,0.0,0.0,0.0,0.0,0.0,0.0,0.0,0.0,0.0,0.0,0.0,0.0,0.0,0.0,0.0,0.0,0.0,0.0,0.0,0.0,0.0,0.0,0.0,0.0,0.0,0.0,0.0,0.0,0.0,0.0,0.0,0.0,0.0,0.0,0.0,0.0,0.0,0.0,0.0,0.0,0.0,0.0,0.0,0.0,0.0,0.0,0.0,0.0,0.0,0.0,0.0,0.0,0.0,0.0,0.0,0.0,0.0,0.0,0.0,0.0,0.0,0.0,0.0,0.0,0.0,0.0,0.0,0.0,0.0,0.0,0.0,0.0,0.0,0.0,0.0,0.0,0.0,0.0,0.0,0.0,0.0,0.0,0.0,0.0,0.0,0.0,0.0,0.0,0.0,0.0,0.0,0.0,0.0,0.0,0.0,0.0,0.0,0.0,0.0,0.0,0.0,0.0,0.0,0.0,0.0,0.0,0.0,0.0,0.0,0.0,0.0,0.0,0.0,0.0,0.0,0.0,0.0,0.0,0.0,0.0,0.0,0.0,0.0,0.0,0.0,0.0,0.0,0.0,0.0,0.0,0.0,0.0,0.0,0.0,0.0,0.0,0.0,0.0,0.0,0.0,0.0,0.0,0.0,0.0,0.0,0.0,0.0,0.0,0.0,0.0,0.0,0.0,0.0,0.0,0.0,0.0,0.0,0.0,0.0,0.0,0.0,0.0,0.0,0.0,0.0,0.0,0.0,0.0,0.0,0.0,0.0,0.0,0.0,0.0,0.0,0.0,0.0,0.0,0.0,0.0,0.0,0.0,0.0,0.0,0.0,0.0,0.0,0.0,0.0,0.0,0.0,0.0,0.0,0.0,0.0,0.0,0.0,0.0,0.0,0.0,0.0,0.0,0.0,0.0,0.0,0.0,0.0,0.0,0.0,0.0,0.0,0.0,0.0,0.0,0.0,0.0,0.0,0.0,0.0,0.0,0.0,0.0,0.0,0.0,0.0,0.0,0.0,0.0,0.0,0.0,0.0,0.0,0.0,0.0,0.0,0.0,0.0,0.0,0.0,0.0,0.0,0.0,0.0,0.0,0.0,0.0,0.0,0.0,0.0,0.0,0.0,0.0,0.0,0.0,0.0,0.0,0.0,0.0,0.0,0.0,0.0,0.0,0.0,0.0,0.0,0.0,0.0,0.0,0.0,0.0,0.0,0.0,0.0,0.0,0.0,0.0,0.0,0.0,0.0,0.0,0.0,0.0,0.0,0.0,0.0,0.0,0.0,0.0,0.0,0.0,0.0,0.0,0.0,0.0,0.0,0.0,0.0,0.0,0.0,0.0,0.0,0.0,0.0,0.0,0.0,0.0,0.0,0.0,0.0,0.0,0.0,0.0,0.0,0.0,0.0,1.2298,0.0,0.0,0.0,0.0,0.0,0.0,0.0,0.0,0.0,0.0,0.0,0.0,0.0,0.0,0.0,0.0,0.0,0.0,0.0,0.0,0.0,0.0,0.0,0.0,0.0,0.0,0.0,0.0,0.0,0.0,0.0,0.0,0.0,0.0,0.0,0.0,0.0,0.0,0.0,0.0,0.0,0.0,0.0,0.0,0.0,0.0,0.0,0.0,0.0,0.0,0.0,0.0,0.0,0.0,0.0,0.0,0.0,0.0,0.0,0.0,0.0,0.0,0.0,0.0,0.0,0.0,0.0,0.0,0.0,0.0,0.0,0.0,0.0,0.0,0.0,0.0,0.0,0.0,0.0,0.0,0.0,0.0,0.0,0.0,0.0,0.0,0.0,0.0,0.0,0.0,0.0,0.0,0.0,0.0,0.0,0.0,0.0,0.0,0.0,0.0,0.0,0.0,0.0,0.0,0.0,0.0,0.0,0.0,0.0,0.0,1.2583,1.2508,1.2583,1.2556,1.2413,0.0,0.0,0.0,0.0,0.0,0.0,0.0,0.0,0.0,0.0,0.0,0.0,0.0,0.0,0.0,0.0,0.0,0.0,0.0,0.0,0.0,0.0,0.0,0.0,0.0,0.0,0.0,0.0,0.0,0.0,0.0,0.0,0.0,0.0,0.0,0.0,0.0,0.0,0.0,0.0,0.0,0.0,0.0,0.0,0.0,0.0,0.0,0.0,0.0,0.0,0.0,0.0,0.0,0.0,0.0,0.0,0.0,0.0,0.0,0.0,0.0,0.0,0.0,0.0,0.0,0.0,0.0,0.0,0.0,0.0,0.0,0.0,0.0,0.0,0.0,0.0,0.0,0.0,0.0,0.0,0.0,0.0,0.0,0.0,0.0,0.0,0.0,0.0,0.0,0.0,0.0,0.0,0.0,0.0,0.0,0.0,0.0,0.0,0.0,0.0,0.0,0.0,0.0,0.0,0.0,0.0,0.0,0.0,0.0,0.0,0.0,0.0,1.282,1.2827,1.2712,0.0,0.0,0.0,0.0,0.0,0.0,0.0,0.0,0.0,0.0,0.0,0.0,0.0,0.0,0.0,0.0,0.0,0.0,0.0,0.0,0.0,0.0,0.0,0.0,0.0,0.0,0.0,0.0,0.0,0.0,0.0,0.0,0.0,0.0,0.0,0.0,0.0,0.0,0.0,0.0,0.0,0.0,0.0,0.0,0.0,0.0,0.0,0.0,0.0,0.0,0.0,0.0,0.0,0.0,0.0,0.0,0.0,0.0,0.0,0.0,0.0,0.0,0.0,0.0,0.0,0.0,0.0,0.0,0.0,0.0,0.0,0.0,0.0,0.0,0.0,0.0,0.0,0.0,0.0,0.0,0.0,0.0,0.0,0.0,0.0,0.0,0.0,0.0,0.0,0.0,0.0,0.0,0.0,0.0,0.0,0.0,0.0,0.0,0.0,0.0,0.0,0.0,0.0,0.0,0.0,0.0,0.0,0.0,0.0,0.0,1.2773,1.3302,1.3329,0.0,1.3322,0.0,0.0,0.0,0.0,0.0,0.0,0.0,0.0,0.0,0.0,0.0,0.0,0.0,0.0,0.0,0.0,0.0,0.0,0.0,0.0,0.0,0.0,0.0,0.0,0.0,0.0,0.0,0.0,0.0,0.0,0.0,0.0,0.0,0.0,0.0,0.0,0.0,0.0,0.0,0.0,0.0,0.0,0.0,0.0,0.0,0.0,0.0,0.0,0.0,0.0,0.0,0.0,0.0,0.0,0.0,0.0,0.0,0.0,0.0,0.0,0.0,0.0,0.0,0.0,0.0,0.0,0.0,0.0,0.0,0.0,0.0,0.0,0.0,0.0,0.0,0.0,0.0,0.0,0.0,0.0,0.0,0.0,0.0,0.0,0.0,0.0,0.0,0.0,0.0,0.0,0.0,0.0,0.0,0.0,0.0,0.0,0.0,0.0,0.0,0.0,0.0,0.0,0.0,0.0,0.0,0.0,0.0,0.0,0.0,0.0,0.0,1.3397,1.3397,1.3356,0.0,0.0,0.0,0.0,0.0,0.0,0.0,0.0,0.0,0.0,0.0,0.0,0.0,0.0,0.0,0.0,0.0,0.0,0.0,0.0,0.0,0.0,0.0,0.0,0.0,0.0,0.0,0.0,0.0,0.0,0.0,0.0,0.0,0.0,0.0,0.0,0.0,0.0,0.0,0.0,0.0,0.0,0.0,0.0,0.0,0.0,0.0,0.0,0.0,0.0,0.0,0.0,0.0,0.0,0.0,0.0,0.0,0.0,0.0,0.0,0.0,0.0,0.0,0.0,0.0,0.0,0.0,0.0,0.0,0.0,0.0,0.0,0.0,0.0,0.0,0.0,0.0,0.0,0.0,0.0,0.0,0.0,0.0,0.0,0.0,0.0,0.0,0.0,0.0,0.0,0.0,0.0,0.0,0.0,0.0,0.0,0.0,0.0,0.0,0.0,0.0,0.0,0.0,0.0,0.0,0.0,0.0,0.0,0.0,0.0,1.337,0.0,1.3641,1.3648,1.3498,1.318,0.0,0.0,0.0,0.0,0.0,0.0,0.0,0.0,0.0,0.0,0.0,0.0,0.0,0.0,0.0,0.0,0.0,0.0,0.0,0.0,0.0,0.0,0.0,0.0,0.0,0.0,0.0,0.0,0.0,0.0,0.0,0.0,0.0,0.0,0.0,0.0,0.0,0.0,0.0,0.0,0.0,0.0,0.0,0.0,0.0,0.0,0.0,0.0,0.0,0.0,0.0,0.0,0.0,0.0,0.0,0.0,0.0,0.0,0.0,0.0,0.0,0.0,0.0,0.0,0.0,0.0,0.0,0.0,0.0,0.0,0.0,0.0,0.0,0.0,0.0,0.0,0.0,0.0,0.0,0.0,0.0,0.0,0.0,0.0,0.0,0.0,0.0,0.0,0.0,0.0,0.0,0.0,0.0,0.0,0.0,0.0,0.0,0.0,0.0,0.0,0.0,0.0,0.0,0.0,0.0,0.0,0.0,0.0,0.0,1.3682,1.3682,1.4238,1.4258,1.3919,0.0,0.0,0.0,0.0,0.0,0.0,0.0,0.0,0.0,0.0,0.0,0.0,0.0,0.0,0.0,0.0,0.0,0.0,0.0,0.0,0.0,0.0,0.0,0.0,0.0,0.0,0.0,0.0,0.0,0.0,0.0,0.0,0.0,0.0,0.0,0.0,0.0,0.0,0.0,0.0,0.0,0.0,0.0,0.0,0.0,0.0,0.0,0.0,0.0,0.0,0.0,0.0,0.0,0.0,0.0,0.0,0.0,0.0,0.0,0.0,0.0,0.0,0.0,0.0,0.0,0.0,0.0,0.0,0.0,0.0,0.0,0.0,0.0,0.0,0.0,0.0,0.0,0.0,0.0,0.0,0.0,0.0,0.0,0.0,0.0,0.0,0.0,0.0,0.0,0.0,0.0,0.0,0.0,0.0,0.0,0.0,0.0,0.0,0.0,0.0,0.0,0.0,0.0,0.0,0.0,0.0,0.0,0.0,0.0,1.3132,1.3308,1.3871,1.4787,1.4129,1.3682,0.0,0.0,0.0,0.0,0.0,0.0,0.0,0.0,0.0,0.0,0.0,0.0,0.0,0.0,0.0,0.0,0.0,0.0,0.0,0.0,0.0,0.0,0.0,0.0,0.0,0.0,0.0,0.0,0.0,0.0,0.0,0.0,0.0,0.0,0.0,0.0,0.0,0.0,0.0,0.0,0.0,0.0,0.0,0.0,0.0,0.0,0.0,0.0,0.0,0.0,0.0,0.0,0.0,0.0,0.0,0.0,0.0,0.0,0.0,0.0,0.0,0.0,0.0,0.0,0.0,0.0,0.0,0.0,0.0,0.0,0.0,0.0,0.0,0.0,0.0,0.0,0.0,0.0,0.0,0.0,0.0,0.0,0.0,0.0,0.0,0.0,0.0,0.0,0.0,0.0,0.0,0.0,0.0,0.0,0.0,0.0,0.0,0.0,0.0,0.0,0.0,0.0,0.0,0.0,0.0,0.0,0.0,0.0,0.0,1.3078,0.0,1.4231,0.0,1.4068,1.3505,0.0,0.0,0.0,0.0,0.0,0.0,0.0,0.0,0.0,0.0,0.0,0.0,0.0,0.0,0.0,0.0,0.0,0.0,0.0,0.0,0.0,0.0,0.0,0.0,0.0,0.0,0.0,0.0,0.0,0.0,0.0,0.0,0.0,0.0,0.0,0.0,0.0,0.0,0.0,0.0,0.0,0.0,0.0,0.0,0.0,0.0,0.0,0.0,0.0,0.0,0.0,0.0,0.0,0.0,0.0,0.0,0.0,0.0,0.0,0.0,0.0,0.0,0.0,0.0,0.0,0.0,0.0,0.0,0.0,0.0,0.0,0.0,0.0,0.0,0.0,0.0,0.0,0.0,0.0,0.0,0.0,0.0,0.0,0.0,0.0,0.0,0.0,0.0,0.0,0.0,0.0,0.0,0.0,0.0,0.0,0.0,0.0,0.0,0.0,0.0,0.0,0.0,0.0,0.0,0.0,0.0,0.0,0.0,1.3098,1.4217,1.4679,1.4713,1.434,1.4136,1.3437,0.0,0.0,0.0,0.0,0.0,0.0,0.0,0.0,0.0,0.0,0.0,0.0,0.0,0.0,0.0,0.0,0.0,0.0,0.0,0.0,0.0,0.0,0.0,0.0,0.0,0.0,0.0,0.0,0.0,0.0,0.0,0.0,0.0,0.0,0.0,0.0,0.0,0.0,0.0,0.0,0.0,0.0,0.0,0.0,0.0,0.0,0.0,0.0,0.0,0.0,0.0,0.0,0.0,0.0,0.0,0.0,0.0,0.0,0.0,0.0,0.0,0.0,0.0,0.0,0.0,0.0,0.0,0.0,0.0,0.0,0.0,0.0,0.0,0.0,0.0,0.0,0.0,0.0,0.0,0.0,0.0,0.0,0.0,0.0,0.0,0.0,0.0,0.0,0.0,0.0,0.0,0.0,0.0,0.0,0.0,0.0,0.0,0.0,0.0,0.0,0.0,0.0,0.0,0.0,0.0,0.0,0.0,0.0,0.0,1.3688,1.4122,1.4584,1.5004,1.4014,1.3505,0.0,0.0,0.0,0.0,0.0,0.0,0.0,0.0,0.0,0.0,0.0,0.0,0.0,0.0,0.0,0.0,0.0,0.0,0.0,0.0,0.0,0.0,0.0,0.0,0.0,0.0,0.0,0.0,0.0,0.0,0.0,0.0,0.0,0.0,0.0,0.0,0.0,0.0,0.0,0.0,0.0,0.0,0.0,0.0,0.0,0.0,0.0,0.0,0.0,0.0,0.0,0.0,0.0,0.0,0.0,0.0,0.0,0.0,0.0,0.0,0.0,0.0,0.0,0.0,0.0,0.0,0.0,0.0,0.0,0.0,0.0,0.0,0.0,0.0,0.0,0.0,0.0,0.0,0.0,0.0,0.0,0.0,0.0,0.0,0.0,0.0,0.0,0.0,0.0,0.0,0.0,0.0,0.0,0.0,0.0,0.0,0.0,0.0,0.0,0.0,0.0,0.0,0.0,0.0,0.0,0.0,0.0,0.0,0.0,1.4014,1.4475,1.4923,1.5316,1.4143,1.3593,1.377,0.0,0.0,0.0,0.0,0.0,0.0,0.0,0.0,0.0,0.0,0.0,0.0,0.0,0.0,0.0,0.0,0.0,0.0,0.0,0.0,0.0,0.0,0.0,0.0,0.0,0.0,0.0,0.0,0.0,0.0,0.0,0.0,0.0,0.0,0.0,0.0,0.0,0.0,0.0,0.0,0.0,0.0,0.0,0.0,0.0,0.0,0.0,0.0,0.0,0.0,0.0,0.0,0.0,0.0,0.0,0.0,0.0,0.0,0.0,0.0,0.0,0.0,0.0,0.0,0.0,0.0,0.0,0.0,0.0,0.0,0.0,0.0,0.0,0.0,0.0,0.0,0.0,0.0,0.0,0.0,0.0,0.0,0.0,0.0,0.0,0.0,0.0,0.0,0.0,0.0,0.0,0.0,0.0,0.0,0.0,0.0,0.0,0.0,0.0,0.0,0.0,0.0,0.0,0.0,0.0,0.0,0.0,0.0,1.4964,1.5574,1.5683,1.5276,1.4496,1.3756,0.0,0.0,0.0,0.0,0.0,0.0,0.0,0.0,0.0,0.0,0.0,0.0,0.0,0.0,0.0,0.0,0.0,0.0,0.0,0.0,0.0,0.0,0.0,0.0,0.0,0.0,0.0,0.0,0.0,0.0,0.0,0.0,0.0,0.0,0.0,0.0,0.0,0.0,0.0,0.0,0.0,0.0,0.0,0.0,0.0,0.0,0.0,0.0,0.0,0.0,0.0,0.0,0.0,0.0,0.0,0.0,0.0,0.0,0.0,0.0,0.0,0.0,0.0,0.0,0.0,0.0,0.0,0.0,0.0,0.0,0.0,0.0,0.0,0.0,0.0,0.0,0.0,0.0,0.0,0.0,0.0,0.0,0.0,0.0,0.0,0.0,0.0,0.0,0.0,0.0,0.0,0.0,0.0,0.0,0.0,0.0,0.0,0.0,0.0,0.0,0.0,0.0,0.0,0.0,0.0,0.0,0.0,0.0,0.0,1.4991,1.5872,1.6293,1.6144,1.4916,1.4204,0.0,0.0,0.0,0.0,0.0,0.0,0.0,0.0,0.0,0.0,0.0,0.0,0.0,0.0,0.0,0.0,0.0,0.0,0.0,0.0,0.0,0.0,0.0,0.0,0.0,0.0,0.0,0.0,0.0,0.0,0.0,0.0,0.0,0.0,0.0,0.0,0.0,0.0,0.0,0.0,0.0,0.0,0.0,0.0,0.0,0.0,0.0,0.0,0.0,0.0,0.0,0.0,0.0,0.0,0.0,0.0,0.0,0.0,0.0,0.0,0.0,0.0,0.0,0.0,0.0,0.0,0.0,0.0,0.0,0.0,0.0,0.0,0.0,0.0,0.0,0.0,0.0,0.0,0.0,0.0,0.0,0.0,0.0,0.0,0.0,0.0,0.0,0.0,0.0,0.0,0.0,0.0,0.0,0.0,0.0,0.0,0.0,0.0,0.0,0.0,0.0,0.0,0.0,0.0,0.0,0.0,0.0,0.0,1.5187,1.5533,1.6429,1.6842,1.672,1.5513,1.4719,0.0,0.0,0.0,0.0,0.0,0.0,0.0,0.0,0.0,0.0,0.0,0.0,0.0,0.0,0.0,0.0,0.0,0.0,0.0,0.0,0.0,0.0,0.0,0.0,0.0,0.0,0.0,0.0,0.0,0.0,0.0,0.0,0.0,0.0,0.0,0.0,0.0,0.0,0.0,0.0,0.0,0.0,0.0,0.0,0.0,0.0,0.0,0.0,0.0,0.0,0.0,0.0,0.0,0.0,0.0,0.0,0.0,0.0,0.0,0.0,0.0,0.0,0.0,0.0,0.0,0.0,0.0,0.0,0.0,0.0,0.0,0.0,0.0,0.0,0.0,0.0,0.0,0.0,0.0,0.0,0.0,0.0,0.0,0.0,0.0,0.0,0.0,0.0,0.0,0.0,0.0,0.0,0.0,0.0,0.0,0.0,0.0,0.0,0.0,0.0,0.0,0.0,0.0,0.0,0.0,0.0,0.0,0.0,1.5744,1.6307,1.7039,1.7297,1.7019,1.6123,1.5228,0.0,0.0,0.0,0.0,0.0,0.0,0.0,0.0,0.0,0.0,0.0,0.0,0.0,0.0,0.0,0.0,0.0,0.0,0.0,0.0,0.0,0.0,0.0,0.0,0.0,0.0,0.0,0.0,0.0,0.0,0.0,0.0,0.0,0.0,0.0,0.0,0.0,0.0,0.0,0.0,0.0,0.0,0.0,0.0,0.0,0.0,0.0,0.0,0.0,0.0,0.0,0.0,0.0,0.0,0.0,0.0,0.0,0.0,0.0,0.0,0.0,0.0,0.0,0.0,0.0,0.0,0.0,0.0,0.0,0.0,0.0,0.0,0.0,0.0,0.0,0.0,0.0,0.0,0.0,0.0,0.0,0.0,0.0,0.0,0.0,0.0,0.0,0.0,0.0,0.0,0.0,0.0,0.0,0.0,0.0,0.0,0.0,0.0,0.0,0.0,0.0,0.0,0.0,0.0,0.0,0.0,0.0,0.0,1.6062,1.6313,1.7039,1.7392,1.7324,1.6232,1.5269,0.0,0.0,0.0,0.0,0.0,0.0,0.0,0.0,0.0,0.0,0.0,0.0,0.0,0.0,0.0,0.0,0.0,0.0,0.0,0.0,0.0,0.0,0.0,0.0,0.0,0.0,0.0,0.0,0.0,0.0,0.0,0.0,0.0,0.0,0.0,0.0,0.0,0.0,0.0,0.0,0.0,0.0,0.0,0.0,0.0,0.0,0.0,0.0,1.1072,0.0,0.0,0.0,0.0,0.0,0.0,0.0,0.0,0.0,0.0,0.0,0.0,0.0,0.0,0.0,0.0,0.0,0.0,0.0,0.0,0.0,0.0,0.0,0.0,0.0,0.0,0.0,0.0,0.0,0.0,0.0,0.0,0.0,0.0,0.0,0.0,0.0,0.0,0.0,0.0,0.0,0.0,0.0,0.0,0.0,0.0,0.0,0.0,0.0,0.0,0.0,0.0,0.0,0.0,0.0,0.0,0.0,0.0,0.0,1.6612,1.6836,1.7426,1.7602,1.7304,1.6564,1.571,0.0,0.0,0.0,0.0,0.0,0.0,0.0,0.0,0.0,0.0,0.0,0.0,0.0,0.0,0.0,0.0,0.0,0.0,0.0,0.0,0.0,0.0,0.0,0.0,0.0,0.0,0.0,0.0,0.0,0.0,0.0,0.0,0.0,0.0,0.0,0.0,0.0,0.0,0.0,0.0,0.0,0.0,0.0,0.0,0.0,0.0,0.0,0.0,0.0,0.0,0.0,0.0,0.0,0.0,0.0,0.0,0.0,0.0,0.0,0.0,0.0,0.0,0.0,0.0,0.0,0.0,0.0,0.0,0.0,0.0,0.0,0.0,0.0,0.0,0.0,0.0,0.0,0.0,0.0,0.0,0.0,0.0,0.0,0.0,0.0,0.0,0.0,0.0,0.0,0.0,0.0,0.0,0.0,0.0,0.0,0.0,0.0,0.0,0.0,0.0,0.0,0.0,0.0,0.0,0.0,0.0,0.0,1.6374,1.708,1.748,1.784,1.7779,1.7277,1.6931,1.6191,1.5025,0.0,0.0,0.0,0.0,0.0,0.0,0.0,0.0,0.0,0.0,0.0,0.0,0.0,0.0,0.0,0.0,0.0,0.0,0.0,0.0,0.0,0.0,0.0,0.0,0.0,0.0,0.0,0.0,0.0,0.0,0.0,0.0,0.0,0.0,0.0,0.0,0.0,0.0,1.821,1.1643,0.0,0.0,0.0,0.0,0.0,0.0,0.0,0.0,0.6404,0.0,0.0,0.0,0.0,0.0,0.0,0.0,0.0,0.0,0.0,0.0,0.0,0.0,0.0,0.0,0.0,0.0,0.0,0.0,0.0,0.0,0.0,0.0,0.0,0.0,0.0,0.0,0.0,0.0,0.0,0.0,0.0,0.0,0.0,0.0,0.0,0.0,0.0,0.0,0.0,0.0,0.0,0.0,0.0,0.0,0.0,0.0,0.0,0.0,0.0,0.0,0.0,0.0,0.0,0.0,0.0,1.6273,1.6381,1.6863,1.7758,1.7745,1.7677,1.7561,1.7039,1.6191,1.5031,0.0,0.0,0.0,0.0,0.0,0.0,0.0,0.0,0.0,0.0,0.0,0.0,0.0,0.0,0.0,0.0,0.0,0.0,0.0,0.0,0.0,0.0,0.0,0.0,0.0,0.0,0.0,0.0,0.0,0.0,0.0,0.0,0.0,0.0,0.0,0.0,0.0,0.0,0.0,1.0554,0.7535,0.0,0.0,0.0,0.0,0.0,0.0,0.0,0.0,0.3446,0.0,0.0,0.0,0.0,0.0,0.0,0.0,0.0,0.0,0.0,0.0,0.0,0.0,0.0,0.0,0.0,0.0,0.0,0.0,0.0,0.0,0.0,0.0,0.0,0.0,0.0,0.0,0.0,0.0,0.0,0.0,0.0,0.0,0.0,0.0,0.0,0.0,0.0,0.0,0.0,0.0,0.0,0.0,0.0,0.0,0.0,0.0,0.0,0.0,0.0,0.0,0.0,0.0,0.0,0.0,1.6246,1.6829,1.7358,1.784,1.7792,1.7616,1.7304,1.6646,1.5832,0.0,0.0,0.0,0.0,0.0,0.0,0.0,0.0,0.0,0.0,0.0,0.0,0.0,0.0,0.0,0.0,0.0,0.0,0.0,0.0,0.0,0.0,0.0,0.0,0.0,0.0,0.0,0.0,0.0,0.0,0.0,0.0,0.0,0.0,0.0,0.0,0.0,0.0,0.0,0.0,0.8106,0.5162,0.0671,0.0,0.0,0.0,0.0,0.0,0.0,0.1713,0.1335,0.0,0.0,0.0,0.0,0.0,0.0,0.0,0.0,0.0,0.0,0.0,0.0,0.0,0.0,0.0,0.0,0.0,0.0,0.0,0.0,0.0,0.0,0.0,0.0,0.0,0.0,0.0,0.0,0.0,0.0,0.0,0.0,0.0,0.0,0.0,0.0,0.0,0.0,0.0,0.0,0.0,0.0,0.0,0.0,0.0,0.0,0.0,0.0,0.0,0.0,0.0,0.0,0.0,0.0,0.0,1.5052,1.6176,1.6557,1.6133,1.6004,1.6091,1.6131,1.5486,1.4963,0.0,0.0,0.0,0.0,0.0,0.0,0.0,0.0,0.0,0.0,0.0,0.0,0.0,0.0,0.0,0.0,0.0,0.0,0.0,0.0,0.0,0.0,0.0,0.0,0.0,0.0,0.0,0.0,0.0,0.0,0.0,0.0,0.0,0.0,0.0,0.0,0.0,0.0,0.0,0.0,0.0,0.2562,0.0,0.0,0.0,0.0,0.0,0.0,0.0,0.0,0.0,0.0,0.0,0.0,0.0,0.0,0.0,0.0,0.0,0.0,0.0,0.0,0.0,0.0,0.0,0.0,0.0,0.0,0.0,0.0,0.0,0.0,0.0,0.0,0.0,0.0,0.0,0.0,0.0,0.0,0.0,0.0,0.0,0.0,0.0,0.0,0.0,0.0,0.0,0.0,0.0,0.0,0.0,0.0,0.0,0.0,0.0,0.0,0.0,0.0,0.0,0.0,0.0,0.0,0.0,0.0,1.1599,1.2297,1.1892,1.0019,0.9863,1.0814,1.3148,1.2779,1.3148,0.0,0.0,0.0,0.0,0.0,0.0,0.0,0.0,0.0,0.0,0.0,0.0,0.0,0.0,0.0,0.0,0.0,0.0,0.0,0.0,0.0,0.0,0.0,0.0,0.0,0.0,0.0,0.0,0.0,0.0,0.0,0.0,0.0,0.0,0.0,0.0,0.0,0.0,0.0,0.0,0.0,0.2961,0.0385,0.0,0.0,0.0,0.0,0.0,0.0,0.0,0.0,0.0,0.0,0.0,0.0,0.0,0.0,0.0,0.0,0.0,0.0,0.0,0.0,0.0,0.0,0.0,0.0,0.0,0.0,0.0,0.0,0.0,0.0,0.0,0.0,0.0,0.0,0.0,0.0,0.0,0.0,0.0,0.0,0.0,0.0,0.0,0.0,0.0,0.0,0.0,0.0,0.0,0.0,0.0,0.0,0.0,0.0,0.0,0.0,0.0,0.0,0.0,0.0,0.0,0.0,1.1737,1.1071,1.0531,0.9895,0.8921,0.875,0.9909,1.253,1.1914,1.2466,0.0,0.0,0.0,0.0,0.0,0.0,0.0,0.0,0.0,0.0,0.0,0.0,0.0,0.0,0.0,0.0,0.0,0.0,0.0,0.0,0.0,0.0,0.0,0.0,0.0,0.0,0.0,0.0,0.0,0.0,0.0,0.0,0.0,0.0,0.0,0.0,0.0,0.0,0.0,0.0,0.0,0.0,0.0099,0.0,0.0,0.0,0.0,0.0,0.0,0.0,0.0,0.0,0.0,0.0,0.0,0.0,0.0,0.0,0.0,0.0,0.0,0.0,0.0,0.0,0.0,0.0,0.0,0.0,0.0,0.0,0.0,0.0,0.0,0.0,0.0,0.0,0.0,0.0,0.0,0.0,0.0,0.0,0.0,0.0,0.0,0.0,0.0,0.0,0.0,0.0,0.0,0.0,0.0,0.0,0.0,0.0,0.0,0.0,0.0,0.0,0.0,0.0,0.0,0.0,0.0,0.0,1.0034,0.8504,0.7413,0.6709,0.7325,0.8811,1.1272,1.1347,0.0,0.0,0.0,0.0,0.0,0.0,0.0,0.0,0.0,0.0,0.0,0.0,0.0,0.0,0.0,0.0,0.0,0.0,0.0,0.0,0.0,0.0,0.0,0.0,0.0,0.0,0.0,1.0948,0.0,0.0,0.0,0.0,0.0,0.0,0.0,0.0,0.0,0.0,0.0,0.0,0.0,0.0,-0.1079,-0.1113,-0.1737,-0.1851,0.0,0.0,-0.0812,0.0,0.0,0.0,0.0,0.0,0.0,0.0,0.0,0.0,0.0,0.0,0.0,0.0,0.0,0.0,0.0,0.0,0.0,0.0,0.0,0.0,0.0,0.0,0.0,0.0,0.0,0.0,0.0,0.0,0.0,0.0,0.0,0.0,0.0,0.0,0.0,0.0,0.0,0.0,0.0,0.0,0.0,0.0,0.0,0.0,0.0,0.0,0.0,0.0,0.0,0.0,0.0,0.0,0.0,0.0,0.0,0.0,0.0,0.6861,0.5347,0.328,0.0875,0.3165,0.5683,0.828,1.0449,1.246,0.0,0.0,0.0,0.0,0.0,0.0,0.0,0.0,0.0,0.0,0.0,0.0,0.0,0.0,0.0,0.0,0.0,0.0,0.0,0.0,0.0,0.0,0.0,0.0,0.0,0.0,0.0,0.0,0.0,0.0,0.0,0.0,0.0,0.0,0.0,0.0,0.0,0.0,0.0,0.0,0.0,-0.4027,-0.417,-0.6299,-0.6977,0.0,0.0,-0.3006,-0.0419,0.0,0.0,0.0,0.0,0.0,0.0,0.0,0.0,0.0,0.0,0.0,0.0,0.0,0.0,0.0,0.0,0.0,0.0,0.0,0.0,0.0,0.0,0.0,0.0,0.0,0.0,0.0,0.0,0.0,0.0,0.0,0.0,0.0,0.0,0.0,0.0,0.0,0.0,0.0,0.0,0.0,0.0,0.0,0.0,0.0,0.0,0.0,0.0,0.0,0.0,0.0,0.0,0.0,0.0,0.0,0.0,0.9068,0.656,0.495,0.2846,0.0217,0.2709,0.5319,0.7895,1.0323,1.2438,0.0,0.0,0.0,0.0,0.0,0.0,0.0,0.0,0.0,0.0,0.0,0.0,0.0,0.0,0.0,0.0,0.0,0.0,0.0,0.0,0.0,0.0,0.0,0.0,0.0,0.0,0.0,0.0,1.2433,1.2535,1.2556,0.0,0.0,0.0,0.0,0.0,0.0,0.0,0.0,0.0,0.0,-0.4445,-0.4511,-0.6898,0.0,0.0,-0.4343,-0.3262,-0.0421,0.0,0.0,0.0,0.0,0.0,0.0,0.0,0.0,0.0,0.0,0.0,0.0,0.0,0.0,0.0,0.0,0.0,0.0,0.0,0.0,0.0,0.0,0.0,0.0,0.0,0.0,0.0,0.0,0.0,0.0,0.0,0.0,0.0,0.0,0.0,0.0,0.0,0.0,0.0,0.0,0.0,0.0,0.0,0.0,0.0,0.0,0.0,0.0,0.0,0.0,0.0,0.0,0.0,0.0,0.0,0.0,0.9507,0.7804,0.545,0.3263,0.1403,0.3117,0.5277,0.7957,1.0405,1.2488,0.0,0.0,0.0,0.0,0.0,0.0,0.0,0.0,0.0,0.0,0.0,0.0,0.0,0.0,0.0,0.0,0.0,0.0,0.0,0.0,0.0,0.0,0.0,0.0,0.0,0.0,0.0,0.0,1.2868,1.2922,1.2813,0.0,0.0,0.0,0.0,0.0,0.0,0.0,0.0,0.0,0.0,-0.4442,-0.4533,-0.6831,-0.7956,-0.6019,-0.5541,-0.4433,-0.1677,-0.123,-0.09,0.0,0.0,0.0,0.0,0.0,0.0,0.0,0.0,0.0,0.0,0.0,0.0,0.0,0.0,0.0,0.0,0.0,0.0,0.0,0.0,0.0,0.0,0.0,0.0,0.0,0.0,0.0,0.0,0.0,0.0,0.0,0.0,0.0,0.0,0.0,0.0,0.0,0.0,0.0,0.0,0.0,0.0,0.0,0.0,0.0,0.0,0.0,0.0,0.0,0.0,0.0,0.0,0.0,0.0,1.0456,1.0682,0.6383,0.4165,0.4301,0.4272,0.5454,0.7954,1.0505,1.2836,1.4851,0.0,0.0,0.0,0.0,0.0,0.0,0.0,0.0,0.0,0.0,0.0,0.0,0.0,0.0,0.0,0.0,0.0,0.0,0.0,0.0,0.0,0.0,0.0,0.0,0.0,0.0,1.2773,1.2874,1.2976,0.0,0.0,0.0,0.0,0.0,0.0,0.0,0.0,0.0,0.0,-0.1105,-0.4282,-0.4499,-0.6773,-0.8435,-0.8452,-0.8242,-0.7208,-0.4356,-0.3827,-0.3056,0.0,0.0,0.0,0.0,0.0,0.0,0.0,0.0,0.0,0.0,0.0,0.0,0.0,0.0,0.0,0.0,0.0,0.0,0.0,0.0,0.0,0.0,0.0,0.0,0.0,0.0,0.0,0.5732,0.4305,0.0,0.0,0.0,0.0,0.0,0.0,0.0,0.0,0.0,0.0,0.0,0.4003,0.2693,0.0,0.0,0.0,0.0,0.0,0.0,0.0,0.0,0.0,0.0,0.0,0.0,1.2232,1.0587,0.8167,0.6024,0.4197,0.4102,0.5302,0.7884,1.0469,1.2673,1.4595,0.0,0.0,0.0,0.0,0.0,0.0,0.0,0.0,0.0,0.0,0.0,0.0,0.0,0.0,0.0,0.0,0.0,0.0,0.0,0.0,0.0,0.0,0.0,0.0,0.0,1.3424,0.0,0.0,0.0,0.0,0.0,0.0,0.0,0.0,0.0,0.0,0.0,0.6092,0.3564,-0.1142,-0.4399,-0.4519,-0.684,-0.7967,0.0,0.0,0.0,0.0,0.0,0.0,0.0,0.0,0.0,0.0,0.0,0.0,0.0,0.0,0.0,0.0,0.0,0.0,0.0,0.0,0.0,0.0,0.0,0.0,0.0,0.0,0.0,0.0,0.0,0.0,0.0,0.0,0.0,0.3994,0.0,0.1849,0.0,0.0,0.0,0.0,0.0,0.0,0.0,0.0,0.0664,0.0774,0.1928,0.059,0.0,0.0,0.1431,0.2662,0.0,0.0,0.0,0.0,0.0,0.0,0.0,0.0,1.3679,1.2261,0.9682,0.7468,0.5639,0.3656,0.3929,0.657,0.9074,1.0926,1.193,1.1324,1.0174,0.0,0.0,0.0,0.0,0.0,0.0,0.0,0.0,0.0,0.0,0.0,0.0,0.0,0.0,0.0,0.0,0.0,0.0,0.0,0.0,0.0,0.0,0.0,1.3688,0.0,0.0,0.0,0.0,0.0,0.0,0.0,0.0,0.0,0.95,0.7352,0.5047,0.2471,-0.0746,-0.2944,-0.2937,0.0,0.0,0.0,0.0,0.0,0.0,0.0,-0.1044,-0.0209,0.0,0.0,0.0,0.0,0.0,0.0,0.0,0.0,0.0,0.0,0.0,0.0,0.0,0.0,0.0,0.0,0.0,0.0,0.0,0.0,0.0,0.0,0.0,0.0,0.0,0.7806,0.5304,0.0,0.3342,0.0,0.0,0.0,0.0,0.0,0.0,0.0,0.0,0.0,0.0,0.0,0.0,0.0,0.0,0.0,0.0,0.0,0.2068,0.0,0.0,0.0,0.0,0.0,0.0,1.4859,1.5132,1.0529,0.8301,0.8256,0.2926,0.1342,0.3977,0.6509,0.7696,0.7226,0.7144,0.6611,0.5814,0.5745,0.0,0.0,0.0,0.0,0.0,0.0,0.0,0.0,0.0,0.0,0.0,0.0,0.0,0.0,0.0,0.0,0.0,0.0,0.0,0.0,1.339,0.0,0.0,0.0,0.0,0.0,0.0,0.0,0.0,0.0,0.0,0.7744,0.5364,0.2854,0.0323,0.0,0.0,0.0,0.0,-0.0991,-0.3685,-0.3975,-0.3824,-0.3929,-0.3845,-0.2849,-0.0428,0.0,0.0,0.0,0.0,0.0,0.0,0.0,0.0,0.0,0.0,0.0,0.0,0.0,0.0,0.0,0.0,0.0,0.3346,0.0,0.0,0.0,0.0,0.8402,0.6906,0.8858,0.4055,0.1594,0.1065,0.1055,0.0,0.0,0.0,0.0,0.0,0.0,0.0,0.0,0.0,0.0,0.0,0.0,0.0,0.0,0.0,0.0,0.0,0.0582,0.2768,0.6413,0.0,0.0,0.0,0.0,1.2237,1.2117,0.7649,0.523,0.5315,0.1871,0.1235,0.3942,0.6528,0.7741,0.7605,0.7343,0.6398,0.4485,0.4264,0.0,0.0,0.0,0.0,0.0,0.0,0.0,0.0,0.0,0.0,0.0,0.0,0.0,0.0,0.0,0.0,0.0,0.0,0.0,1.3702,1.4055,1.3547,0.0,0.0,0.0,0.0,0.0,0.0,0.0,0.0,0.0,0.5154,0.4396,0.3007,0.0,0.0,0.0,0.0,0.0,-0.0338,-0.1018,0.0,0.0,0.0,-0.1221,-0.0882,-0.0109,0.0,0.0,0.0,0.0,0.0,0.0,0.0,0.0,0.0,0.0,0.0,0.0,0.0,0.0,0.0,0.0,0.0,0.3245,0.8187,0.6213,0.9114,1.4313,0.8057,0.5927,0.6454,0.1991,0.0,0.0,0.0,0.0,0.0,0.0,0.0,0.0,0.0,0.0,0.0,0.0,0.0,0.0,0.0,0.0,0.0,0.0,0.0,0.0,0.0,0.1744,0.517,0.0,0.0,1.0879,1.0211,0.9874,0.9768,0.608,0.4095,0.4059,0.145,0.0823,0.2344,0.3942,0.4724,0.4716,0.4559,0.3793,0.2368,0.2198,0.1491,0.0,0.0,0.0,0.0,0.0,0.0,0.0,0.0,0.0,0.0,0.0,0.0911,0.2968,0.0,0.0,0.0,0.9593,1.0681,1.1114,1.1397,0.0,0.0,0.0,0.0,0.0,0.0,0.0,0.6684,0.4977,0.3514,0.2554,0.2425,0.1758,0.0,0.0,0.0,0.0,0.0,0.0,0.0,0.0,0.0,0.0,0.0,0.0,0.0,0.0,0.0,0.0,0.0,0.0,0.0,0.0,0.0,0.0,0.0,0.0,0.0,0.0,0.0,0.0,0.0,0.0,0.3641,0.9165,0.8695,1.0235,1.2748,0.9538,0.6629,0.3985,0.1273,0.0,0.0,0.0,0.0,0.0,0.0,0.0,0.0,0.0,0.0,0.0,0.0,0.0,0.0,0.0,0.0,0.0,0.0,0.0,0.0,0.0,0.0998,0.301,0.3077,0.4488,0.6951,0.7251,0.7424,0.7642,0.5136,0.3809,0.3877,0.1342,0.0,0.0,0.0,0.0,0.0,0.0,0.0,0.0,0.0,0.0,0.0,0.0,0.0,0.0,0.0,0.0,0.0,0.0,0.0,0.0,0.0,0.0,0.0,0.0,0.0,0.0,0.6428,0.0,0.6755,0.6939,0.0,0.0,0.0,0.7303,0.6974,0.7345,0.6652,0.3937,0.0,0.0,0.0,0.0,0.0,0.0,0.0,0.0,0.0,0.0,0.0,0.0,0.0,0.0,0.0,0.0,0.0,0.0,0.0,0.0,0.0,0.0,0.0,0.0,0.0,0.0,0.0,0.0,0.0,0.0,0.0,0.0,0.0,0.0,0.0,0.3646,0.9252,0.9165,1.0728,1.2975,0.7819,0.5131,0.4235,0.1284,0.0,0.0,0.0,0.0,0.0,0.0,0.0,0.0,0.0,0.0,0.0,0.0,0.0,0.0,0.0,0.0,0.0,0.0,0.0,0.0,0.0,0.0308,0.0714,0.0809,0.2973,0.7125,0.5654,0.4943,0.4998,0.2309,0.0951,0.1041,0.0309,0.0,0.0,0.0,0.0,0.0,0.0,0.0,0.0,0.0,0.0,0.0,0.0,0.0,0.0,0.0,0.0,0.0,0.0,0.0,0.0,0.0,0.0179,0.0674,0.0,0.3331,0.0,0.572,0.6933,0.6966,0.7199,0.0,0.0,0.6408,0.6152,0.2297,0.3636,0.3895,0.1248,0.0917,0.0807,0.0115,0.0,0.0,0.0,0.0,0.0,0.0,0.0,0.0,0.0,0.0,0.0,0.0,0.0,0.0,0.0,0.0,0.0,0.0,0.0,0.0,0.0,0.0,0.0,0.0,0.0,0.0,0.0,0.0,0.0,0.0,0.0,0.0,0.2886,0.7309,0.7195,0.8138,0.9522,0.751,0.5084,0.2414,0.0759,0.0,0.0,0.0,0.0,0.0,0.0,0.0,0.0,0.0,0.0,0.0,0.0,0.0,0.0,0.0,0.0,0.0,0.0,0.0,0.0,0.0,0.0,0.0,0.0,0.1333,0.3917,0.2873,0.2172,0.216,0.0728,0.0,0.0,0.0,0.0,0.0,0.0,0.0,0.0,0.0,0.0,0.0,0.0,0.0,0.0,0.0,0.0,0.0,0.0,0.0,0.0,0.0,0.0,0.0,0.0,0.0,0.0,0.0,0.1756,0.1877,0.303,0.3814,0.3982,0.4021,0.3553,0.2213,0.3411,0.3205,0.034,0.1251,0.1603,0.0,0.0,0.0,0.0,0.0,0.0,0.0,0.0,0.0,0.0,0.0,0.0,0.0,0.0,0.0,0.0,0.0,0.0,0.0,0.0,0.0,0.0,0.0,0.0,0.0,0.0,0.0,0.0,0.0,0.0,0.0,0.0,0.0,0.0,0.0,0.0,0.1834,0.4626,0.4683,0.4749,0.4929,0.7514,0.5369,0.0,0.0,0.0,0.0,0.0,0.0,0.0,0.0,0.0,0.0,0.0,0.0,0.0,0.0,0.0,0.0,0.0,0.0,0.0,0.0,0.0,0.0,0.0,0.0,0.0,0.0,0.0,0.0,0.0,0.0,0.0,0.0,0.0,0.0,0.0,0.0,0.0,0.0,0.0,0.0,-0.0294,-0.0488,-0.0485,0.0,-0.1048,-0.1037,-0.1018,-0.082,0.0,-0.0535,0.0,0.0,0.0,0.0,0.0,0.0,0.0,0.0,0.0,0.0,0.0,0.0,0.0,0.0,0.0,0.0,0.0,0.0,0.0,0.0,0.0,0.0,0.0,0.0,0.0,0.0,0.0,0.0,0.0,0.0,0.0,0.0,0.0,0.0,0.0,0.0,0.0,0.0,0.0,0.0,0.0,0.0,0.0,0.0,0.0,0.0,0.0,0.0,0.0,0.0,0.0,0.0,0.0,0.0,0.0,0.0,0.0,0.0,0.1866,0.4668,0.4654,0.4713,0.4738,0.5263,0.3439,0.0,0.0,0.0,0.0,0.0,0.0,0.0,0.0,0.0,0.0,0.0,0.0,0.0,0.0,0.0,0.0,0.0,0.0,0.0,0.0,0.0,0.0,0.0,0.0,0.0,0.0,0.0,0.0,0.0,0.0,0.0,0.0,0.0,0.0,0.0,0.0,0.0,0.0,0.0,0.0,-0.2132,-0.3204,-0.332,-0.5354,0.0,0.0,0.0,0.0,0.0,0.0,0.0,0.0,0.0,0.0,0.0,0.0,0.0,0.0,0.0,0.0,0.0,0.0,0.0,0.0,0.0,0.0,0.0,0.0,0.0,0.0,0.0,0.0,0.0,0.0,0.0,0.0,0.0,0.0,0.0,0.0,0.0,0.0,0.0,0.0,0.0,0.0,0.0,0.0,0.0,0.0,0.0,0.0,0.0,0.0,0.0,0.0,0.0,0.0,0.0,0.0,0.0,0.0,0.0,0.0,0.0,0.0,0.0,0.0705,0.0889,0.0,0.2357,0.2326,0.0,0.2392,0.153,0.0,0.0,0.0,0.0,0.0,0.0,0.0,0.0,0.0,0.0,0.0,0.0,0.0,0.0,0.0,0.0,0.0,0.0,0.0,0.0,0.0,0.0,0.0,0.0,0.0,0.0,0.0,0.0,0.0,0.0,0.0,0.0,0.0,0.0,0.0,0.0,0.0,0.0,0.0,0.0,0.0,0.0,0.0,0.0,0.0,0.0,0.0,0.0,-0.6387,-0.6267,-0.5801,-0.4493,-0.3051,-0.2281,-0.2216,-0.2247,-0.1605,-0.0105,0.0,0.0,0.0,0.0,0.0,0.0,0.0,0.0,0.0,0.0,0.0,0.0,0.0,0.0,0.0,0.0,0.0,0.0,0.0,0.0,0.0,0.0,0.0,0.0,0.0,0.0,0.0,0.0,0.0,0.0,0.0,0.0,0.0,0.0,0.0,0.0,0.0,0.0,0.0,0.0,0.0,0.0,0.0,0.0,0.0,0.0,0.0,0.0,0.0,0.0,-0.1551,-0.0901,-0.1005,-0.0621,0.0,0.0,0.0,0.0,0.0,0.0,0.0,0.0,0.0,0.0,0.0,0.0,0.0,0.0,0.0,0.0,0.0,0.0,0.0,0.0,0.0,0.0,0.0,0.0,0.0,0.0,0.0,0.0,0.0,0.0,0.0,0.0,0.0,0.0,0.0,0.0,0.0,0.0,0.0,0.0,-0.0499,-0.1773,-0.3933,-0.4961,-0.6435,-0.8665,-0.9201,-0.9611,-0.979,-0.9807,-0.9742,-0.9415,-0.9453,-0.9289,-0.895,-0.671,-0.5232,-0.5309,-0.5317,-0.4023,-0.0994,-0.0784,-0.057,0.0,0.0,0.0,0.0,0.0,0.0,0.0,0.0,0.0,0.0,0.0,0.0,0.0,0.0,0.0,0.0,0.0,0.0,0.0,0.0,0.0,0.0,0.0,0.0,0.0,0.0,0.0,0.0,0.0,0.0,0.0,0.0,0.0,0.0,0.0,0.0,0.0,0.0,0.0,0.0,0.0,0.0,0.0,0.0,0.0,0.0,0.0,0.0,-0.7413,-0.4633,-0.4615,-0.2913,0.0,0.0,0.0,0.0,0.0,0.0,0.0,0.0,0.0,0.0,0.0,0.0,0.0,0.0,0.0,0.0,0.0,0.0,0.0,0.0,0.0,0.0,0.0,0.0,0.0,0.0,0.0,0.0,0.0,0.0,0.0,0.0,0.0,0.0,0.0,0.0,0.0,0.0,0.0,0.0,-0.2222,-0.3598,-0.4246,-0.8496,-1.1243,-1.1894,-1.3942,-1.5297,-1.5455,-1.5371,-1.4624,-1.258,-1.2364,-1.1495,-0.932,-0.8647,-0.8277,-0.8335,-0.8472,-0.7186,-0.4219,-0.3909,-0.2787,0.0,0.0,0.0,0.0,0.0,0.0,0.0,0.0,0.0,0.0,0.0,0.0,0.0,0.0,0.0,0.0,0.0,0.0,0.0,0.0,0.0,0.0,0.0,0.0,0.0,0.0,0.0,0.0,0.0,0.0,0.0,0.0,0.0,0.0,0.0,0.0,0.0,0.0,0.0,0.0,0.0,0.0,0.0,0.0,0.0,0.0,0.0,0.2035,-0.973,-0.8357,-0.8264,-0.6139,-0.279,-0.0875,0.0,0.0,0.0,0.0,0.0,0.0,0.0,0.0,0.0,0.0,0.0,0.0,0.0,0.0,0.0,0.0,0.0,0.0,0.0,0.0,0.0,-0.0821,-0.2443,-0.2527,-0.3294,-0.4732,-0.3269,-0.158,0.0,0.0,0.0,0.0,0.0,0.0,0.0,0.0,-0.0742,-0.2196,-0.3518,-0.5645,-0.8676,-1.1074,-1.308,-1.4886,-1.589,-1.6632,-1.7073,-1.6965,-1.6479,-1.5576,-1.544,-1.509,-1.4003,-1.239,-1.1511,-1.1607,-1.1646,-1.1118,-0.9672,-0.6479,-0.3954,-0.2571,-0.1057,0.0,0.0,0.0,0.0,0.0,0.0,0.0,0.0,0.0,0.0,0.0,0.0,0.0,0.0,0.0,0.0,0.0,0.0,0.0,0.0,0.0,0.0,0.0,0.0,0.0,0.0,0.0,0.0,0.0,0.0,0.0,0.0,0.0,0.0,0.0,0.0,0.0,0.0,0.0,0.0,0.0,0.0,0.0,0.0,0.1341,0.4352,-1.2652,-1.1934,-1.1877,-0.9821,-0.629,-0.3523,-0.2244,-0.2243,0.0,-0.2204,-0.2059,-0.0721,0.0,0.0,0.0,0.0,0.0,0.0,0.0,0.0,0.0,0.0,0.0,0.0,0.0,0.0,-0.0713,-0.2356,-0.457,-0.529,-0.6821,-0.8734,-0.6809,-0.4431,-0.2161,-0.2162,-0.2161,-0.2159,-0.212,-0.1766,-0.1103,-0.1093,-0.2383,-0.5146,-0.5959,-0.8361,-1.2555,-1.3291,-1.4707,-1.6875,-1.6836,-1.6931,-1.746,-1.7277,-1.7317,-1.769,-1.7717,-1.7765,-1.7803,-1.602,-1.482,-1.4771,-1.4831,-1.482,-1.4421,-0.9967,-0.6394,-0.5473,-0.3638,0.0,0.0,0.0,0.0,0.0,-0.2207,0.0,0.0,-0.1595,-0.1103,-0.1109,-0.0494,0.0,0.0,0.0,0.0,0.0,0.0,0.0,0.0,0.0,0.0,0.0,0.0,0.0,0.0,0.0,0.0,0.0,0.0,0.0,0.0,0.0,0.0,0.0,0.0,0.0,0.0,0.0,0.0,0.0,0.0,0.0,0.0,0.0,0.4528,-1.8804,-1.6061,-1.5734,-1.3533,-1.0133,-0.9289,-0.8955,-0.8946,-0.8876,-0.8839,-0.8084,-0.2684,0.0,0.0,0.0,0.0,0.0,0.0,0.0,0.0,0.0,0.0,0.0,0.0,0.0,-0.0482,-0.2866,-0.4382,-0.5408,-0.7897,-0.9209,-0.938,-0.9031,-0.8802,-0.8463,-0.8346,-0.846,-0.846,-0.8555,-0.7157,-0.4404,-0.4257,-0.566,-0.8684,-1.1195,-1.2783,-1.3551,-1.5585,-1.6949,-1.7426,-1.7297,-1.7344,-1.7745,-1.767,-1.7724,-1.8009,-1.7921,-1.7907,-1.807,-1.8115,-1.7899,-1.7901,-1.7886,-1.7892,-1.7693,-1.4984,-1.1941,-0.9734,-0.8852,-0.8219,-0.8649,-0.8472,-0.8169,-0.7978,-0.8226,-0.8961,-0.8229,-0.6266,-0.4426,-0.4429,-0.2342,0.0,0.0,0.0,0.0,0.0,0.0,0.0,0.0,0.0,0.0,0.0,0.0,0.0,0.0,0.0,0.0,0.0,0.0,0.0,0.0,0.0,0.0,0.0,0.0,0.0,0.0,0.0,0.0,0.0,0.0,0.0,0.0,0.0,0.0,-2.0991,-1.9646,-1.9353,-1.7039,-1.3554,-1.1209,-1.0237,-1.0186,-1.0069,-0.9894,-0.9637,-0.6998,-0.4768,-0.2929,-0.2929,-0.1832,0.0,0.0,0.0,0.0,0.0,0.0,0.0,0.0,-0.0978,-0.2805,-0.4236,-0.6718,-1.0324,-1.3314,-1.3863,-1.2213,-1.1979,-1.1201,-0.9509,-0.9358,-0.9376,-0.9465,-0.9495,-0.9845,-1.0277,-0.8526,-0.896,-1.1549,-1.3039,-1.448,-1.6028,-1.7117,-1.7731,-1.7996,-1.7751,-1.7792,-1.8233,-1.8036,-1.7968,-1.8084,-1.8124,-1.824,-1.847,-1.8762,-1.8871,-1.8728,-1.8769,-1.8742,-1.8606,-1.7594,-1.6408,-1.5001,-1.1772,-0.9591,-0.9782,-0.9734,-0.9791,-0.9819,-0.9825,-0.9825,-0.9703,-0.8722,-0.7741,-0.7741,-0.6639,-0.5658,-0.5781,-0.5781,-0.5781,-0.5781,-0.5781,-0.5414,-0.566,-0.4184,-0.2956,-0.2588,-0.1362,0.0,0.0,0.0,0.0,0.0,0.0,0.0,0.0,0.0,0.0,0.0,0.0,0.0,0.0,0.0,0.0,0.0,0.0,0.0,0.0,0.0,0.0,-2.2018,-2.1903,-2.1584,-1.9785,-1.6993,-1.4448,-1.3178,-1.3091,-1.2911,-1.2832,-1.2819,-1.2754,-1.0738,-0.7891,-0.6781,-0.4568,-0.1732,-0.2354,-0.2236,-0.1621,-0.236,0.0,-0.2873,-0.286,-0.396,-0.6284,-0.8302,-1.1849,-1.6627,-1.881,-1.8294,-1.5652,-1.5282,-1.4153,-1.2366,-1.2075,-1.211,-1.2228,-1.2227,-1.344,-1.5163,-1.3474,-1.314,-1.4879,-1.519,-1.6236,-1.8167,-1.8206,-1.8253,-1.8423,-1.8186,-1.8213,-1.8552,-1.8348,-1.8226,-1.828,-1.8375,-1.8552,-1.881,-1.9061,-1.9156,-1.9061,-1.902,-1.8966,-1.8911,-1.8952,-1.9027,-1.8642,-1.4876,-1.255,-1.237,-1.2465,-1.2517,-1.2522,-1.2522,-1.2522,-1.2644,-1.191,-1.1172,-1.1172,-0.9948,-0.9825,-0.9703,-0.9458,-0.9335,-0.9335,-0.958,-0.9825,-0.9335,-0.6882,-0.4798,-0.48,-0.2109,0.0,0.0,0.0,0.0,0.0,0.0,0.0,0.0,0.0,0.0,0.0,0.0,0.0,0.0,0.0,0.0,0.0,0.0,0.0,0.0,0.0,0.0,-2.2364,-2.2052,-2.1631,-2.1302,-2.0963,-2.0153,-1.9904,-1.9369,-1.9469,-1.947,-1.9221,-1.9319,-1.7618,-1.4286,-1.1432,-0.8075,-0.5601,-0.8006,-0.7634,-0.5367,-0.8014,-0.9668,-0.9925,-0.9793,-0.9753,-1.0168,-1.5075,-1.9605,-2.3162,-2.3315,-2.1931,-1.9135,-1.866,-1.8556,-1.8175,-1.8056,-1.8569,-1.8094,-1.8075,-1.8582,-1.886,-1.872,-1.8424,-1.8317,-1.8637,-1.8644,-1.8755,-1.8864,-1.8877,-1.8749,-1.8593,-1.8586,-1.8721,-1.8599,-1.8579,-1.8708,-1.8735,-1.8816,-1.8979,-1.9142,-1.9217,-1.9176,-1.9088,-1.9047,-1.9122,-1.9074,-1.9247,-1.9492,-1.914,-1.8686,-1.8946,-1.8695,-1.878,-1.8908,-1.9158,-1.9273,-1.9279,-1.6918,-1.4852,-1.4476,-1.2875,-1.1776,-1.0557,-0.9825,-1.056,-1.056,-1.0193,-1.0441,-1.0449,-0.7624,-0.6027,-0.5058,-0.2979,0.0,0.0,0.0,0.0,0.0,0.0,0.0,0.0,0.0,0.0,0.0,0.0,0.0,0.0,0.0,0.0,0.0,0.0,0.0,0.0,0.0,0.0,-2.2527,-2.2242,-2.1977,-2.1706,-2.1421,-2.1204,-2.1014,-2.0817,-2.0621,-2.0471,-2.0376,-2.0288,-1.9582,-1.8274,-1.7137,-1.3531,-0.871,-0.977,-0.971,-0.875,-0.9879,-1.0402,-1.044,-1.0398,-1.1561,-1.3663,-1.7623,-2.2278,-2.6504,-2.5023,-2.3331,-2.2103,-2.0081,-1.9156,-1.9196,-1.9203,-1.925,-1.9339,-1.9352,-1.9393,-1.9468,-1.9454,-1.9345,-1.9203,-1.9244,-1.9196,-1.9047,-1.9101,-1.9101,-1.9047,-1.8986,-1.8986,-1.9027,-1.8905,-1.8891,-1.902,-1.904,-1.9108,-1.9264,-1.9413,-1.9447,-1.9352,-1.9305,-1.9237,-1.9223,-1.9244,-2.0147,-2.1899,-2.2494,-2.3254,-2.4811,-2.392,-2.2764,-2.3005,-2.4554,-2.5506,-2.5617,-2.4623,-2.4007,-2.3526,-2.1232,-1.9193,-1.8345,-1.7399,-1.6205,-1.6083,-1.6088,-1.5999,-1.567,-1.3301,-1.0843,-1.044,-0.6877,-0.3143,0.0,0.0,0.0,0.0,0.0,0.0,0.0,0.0,0.0,0.0,0.0,0.0,0.0,0.0,0.0,0.0,0.0,0.0,0.0,0.0,0.0,-2.2595,-2.2391,-2.2194,-2.1937,-2.1652,-2.1502,-2.1353,-2.119,-2.0953,-2.0811,-2.0736,-2.0607,-2.0499,-2.0417,-2.0451,-1.8145,-1.366,-1.3488,-1.31,-1.2315,-1.331,-1.3843,-1.3889,-1.3838,-1.4846,-1.714,-2.0901,-2.5679,-2.9863,-2.8295,-2.6683,-2.5572,-2.2473,-2.0826,-2.0751,-1.9944,-1.9406,-1.9488,-1.9508,-1.9556,-1.9637,-1.9563,-1.9501,-1.9508,-1.9508,-1.9434,-1.9284,-1.9318,-1.9325,-1.9284,-1.9278,-1.9278,-1.9264,-1.9183,-1.9196,-1.9325,-1.9298,-1.9345,-1.9488,-1.9603,-1.9617,-1.9515,-1.9454,-1.9626,-2.0646,-2.0936,-2.252,-2.4955,-2.5877,-2.7044,-2.8345,-2.8107,-2.7044,-2.6446,-2.7879,-2.9178,-2.9178,-2.9059,-2.894,-2.8464,-2.6795,-2.5848,-2.5746,-2.4131,-2.2479,-2.1523,-2.1332,-2.1304,-1.9772,-1.7135,-1.4878,-1.4657,-1.0189,-0.734,-0.6242,-0.4353,-0.1282,0.0,0.0,0.0,0.0,0.0,0.0,0.0,0.0,0.0,0.0,0.0,0.0,0.0,0.0,0.0,0.0,0.0,0.0,-2.2561,-2.2506,-2.2235,-2.2093,-2.1984,-2.1638,-2.1536,-2.153,-2.119,-2.1062,-2.1075,-2.1014,-2.077,-2.06,-2.0634,-2.0319,-1.9607,-1.9286,-1.8085,-1.6089,-1.8625,-1.9979,-1.9857,-1.9715,-2.0171,-2.1124,-2.6444,-3.094,-3.4099,-3.3209,-3.154,-2.8968,-2.5514,-2.3626,-2.4168,-2.1163,-1.9637,-1.9644,-1.9637,-1.9651,-1.9664,-1.9651,-1.9644,-1.9651,-1.9644,-1.9576,-1.944,-1.9563,-1.9563,-1.9447,-1.9434,-1.9434,-1.9447,-1.9427,-1.9488,-1.959,-1.9515,-1.9515,-1.963,-1.9657,-1.9664,-1.9745,-1.9643,-2.1039,-2.3254,-2.4137,-2.5651,-2.8514,-2.9158,-2.9534,-3.0245,-3.2029,-3.2265,-2.99,-3.0008,-3.0374,-3.0008,-2.9534,-2.9425,-2.9911,-2.9554,-2.9307,-2.9238,-2.8493,-2.7259,-2.5277,-2.4806,-2.4327,-2.2047,-1.9045,-1.6189,-1.5363,-1.3051,-1.0599,-0.9124,-0.7496,-0.4265,0.0,0.0,0.0,0.0,0.0,0.0,0.0,0.0,0.0,0.0,0.0,0.0,0.0,0.0,0.0,0.0,0.0,0.0,-2.2649,-2.2534,-2.235,-2.214,-2.1957,-2.1801,-2.1672,-2.1509,-2.1346,-2.1218,-2.1082,-2.1021,-2.0831,-2.0607,-2.0594,-2.0566,-2.0485,-2.0405,-2.0002,-1.978,-2.0504,-2.0919,-2.0919,-2.0919,-2.3108,-2.7114,-3.0932,-3.4441,-3.6546,-3.5051,-3.3267,-3.1631,-2.7097,-2.4486,-2.4305,-2.1336,-1.9664,-1.9664,-1.9664,-1.9664,-1.9664,-1.9664,-1.9664,-1.9664,-1.9664,-1.9637,-1.9596,-1.9637,-1.9637,-1.959,-1.959,-1.963,-1.9698,-1.9644,-1.9664,-1.9773,-1.9671,-1.9603,-1.9651,-1.9786,-1.9908,-2.013,-2.1639,-2.3182,-2.4537,-2.6391,-2.886,-3.1782,-3.2501,-3.3101,-3.5365,-3.6442,-3.5599,-3.2854,-3.4416,-3.5378,-3.5156,-3.539,-3.5827,-3.5703,-3.3923,-3.2765,-3.2492,-3.157,-2.955,-2.8477,-2.8419,-2.7869,-2.6741,-2.3893,-2.2709,-2.2367,-1.8297,-1.4439,-1.3879,-1.2125,-0.8623,-0.5748,0.0,0.0,0.0,0.0,0.0,-0.3327,-0.5173,-0.5938,-0.6031,-0.5349,-0.4029,-0.2594,0.0,0.0,0.0,0.0,0.0,-2.2778,-2.2628,-2.2479,-2.2242,-2.1971,-2.1909,-2.1781,-2.1597,-2.1482,-2.1367,-2.1258,-2.119,-2.1001,-2.1013,-2.1967,-2.2397,-2.2554,-2.3542,-2.4325,-2.3932,-2.1681,-2.1042,-2.1157,-2.2247,-2.5981,-3.1275,-3.3737,-3.6153,-3.9057,-3.6995,-3.5716,-3.4768,-3.0482,-2.7402,-2.5976,-2.3118,-2.0972,-2.0022,-1.9664,-1.9664,-1.9664,-1.9664,-1.9664,-1.9664,-1.9664,-1.9664,-1.9664,-1.9664,-1.9664,-1.9664,-1.9664,-1.9732,-1.9841,-1.9739,-1.9698,-1.9752,-1.984,-2.0137,-2.1214,-2.157,-2.2206,-2.3432,-2.519,-2.6851,-2.7836,-2.9487,-3.0482,-3.3207,-3.2736,-3.3454,-3.6092,-3.6921,-3.6325,-3.5962,-3.7283,-3.8655,-3.8851,-3.8891,-3.8895,-3.8467,-3.7224,-3.6472,-3.5727,-3.5202,-3.2857,-3.2322,-3.2107,-3.1479,-3.0772,-2.8827,-2.821,-2.6959,-2.3424,-2.0777,-1.9649,-1.6842,-1.3209,-1.0432,0.0,0.0,0.0,0.0,-0.6123,-0.692,-0.8366,-0.8439,-0.8384,-0.795,-0.7009,-0.5444,-0.4396,0.0,0.0,0.0,0.0,-2.2907,-2.2757,-2.2595,-2.2606,-2.2604,-2.2458,-2.2908,-2.273,-2.2616,-2.281,-2.2742,-2.2988,-2.2384,-2.2543,-2.5094,-2.6066,-2.633,-2.828,-2.9519,-2.8299,-2.5066,-2.2416,-2.28,-2.5432,-2.9671,-3.4254,-3.5163,-3.6771,-3.9401,-3.8634,-3.8718,-3.7878,-3.4768,-3.2383,-2.9297,-2.6216,-2.3238,-2.0858,-2.0258,-2.0265,-1.9786,-1.9664,-1.9664,-1.9664,-1.9664,-1.9664,-1.9664,-1.9664,-1.9671,-1.9678,-1.9691,-1.9759,-1.9841,-1.9746,-1.9793,-2.03,-2.0036,-2.1933,-2.3832,-2.4666,-2.5817,-2.824,-2.9091,-3.0588,-3.2177,-3.0998,-3.088,-3.2748,-3.1085,-3.0601,-3.3089,-3.3688,-3.4885,-3.7645,-3.824,-3.8721,-3.9092,-3.9015,-3.9292,-3.9559,-3.964,-3.9561,-3.9309,-3.9424,-3.8184,-3.6748,-3.6174,-3.507,-3.3284,-3.2361,-3.1566,-2.9763,-2.7721,-2.5257,-2.3486,-2.1549,-1.8032,-1.5547,-1.3012,-1.1398,-0.9667,-0.9421,-0.9969,-1.0768,-1.1662,-1.1453,-1.139,-1.1323,-1.0873,-1.0052,-0.8377,-0.6332,-0.3878,-0.1807,0.0,-2.2757,-2.2588,-2.2337,-2.3594,-2.5527,-2.5629,-2.7137,-2.9335,-2.9096,-2.864,-2.9153,-2.9107,-2.8305,-2.8439,-2.9053,-2.9395,-2.9576,-3.0264,-3.0634,-3.0535,-2.9163,-2.8081,-2.8766,-3.1236,-3.3595,-3.5636,-3.7297,-3.8741,-3.9559,-3.8998,-3.8731,-3.8602,-3.5716,-3.3688,-3.2265,-2.9415,-2.6335,-2.36,-2.3118,-2.1812,-1.9901,-1.9664,-1.9664,-1.9664,-1.9664,-1.9664,-1.9664,-1.9664,-1.9719,-1.9807,-1.9813,-1.9888,-1.999,-1.9922,-2.0894,-2.2647,-2.3295,-2.4546,-2.7163,-2.7879,-2.8573,-2.9591,-3.1939,-3.2318,-3.094,-3.2329,-3.197,-3.1138,-2.9534,-2.9415,-3.0245,-3.0611,-3.204,-3.4768,-3.6868,-3.8425,-3.8988,-3.9172,-3.9412,-4.0067,-4.004,-4.0241,-4.0588,-4.052,-4.0249,-3.9577,-3.9328,-3.9396,-3.7255,-3.5977,-3.5265,-3.4359,-3.2407,-2.9348,-2.6931,-2.5248,-2.3039,-2.0567,-1.8274,-1.6218,-1.4193,-1.2719,-1.3528,-1.4594,-1.5937,-1.6219,-1.6301,-1.6361,-1.5495,-1.4131,-0.9769,-0.6446,-0.4513,0.0,0.0,-2.5207,-2.5106,-2.642,-2.8029,-2.9454,-2.9451,-3.0495,-3.2029,-3.2159,-3.2037,-3.1946,-3.1824,-3.1392,-3.1124,-3.2499,-3.2943,-3.2786,-3.4121,-3.4817,-3.4909,-3.4817,-3.3953,-3.3514,-3.4894,-3.6161,-3.7501,-3.8844,-3.9427,-3.9359,-3.8945,-3.8744,-3.8485,-3.6921,-3.5236,-3.3688,-3.2147,-2.8821,-2.5266,-2.4314,-2.2884,-2.0022,-1.9664,-1.9664,-1.9664,-1.9664,-1.9678,-1.9739,-1.9752,-1.982,-1.9908,-1.9868,-1.9881,-2.0175,-2.1146,-2.2577,-2.4578,-2.567,-2.7879,-3.0364,-3.1203,-3.2033,-3.3399,-3.5447,-3.5187,-3.4145,-3.4229,-3.2754,-2.9921,-2.8107,-2.7282,-2.7421,-2.8305,-3.0035,-3.1862,-3.3813,-3.6129,-3.8755,-3.9466,-3.9867,-4.0388,-4.0655,-4.0735,-4.131,-4.1122,-4.1149,-4.1159,-4.1176,-4.1136,-4.0671,-3.9718,-3.8776,-3.7672,-3.6326,-3.3476,-3.1268,-2.9572,-2.7897,-2.5452,-2.3075,-2.1053,-1.8558,-1.6519,-1.7022,-1.8178,-1.9896,-2.0593,-1.978,-1.9214,-1.8607,-1.5828,-1.0798,-0.771,-0.63,0.0,0.0,-2.9173,-2.9124,-3.2343,-3.3625,-3.3372,-3.3413,-3.3662,-3.3683,-3.3947,-3.371,-3.3593,-3.3162,-3.3669,-3.2479,-3.5954,-3.6584,-3.6341,-3.8463,-4.0104,-4.0373,-4.0333,-3.9374,-3.7188,-3.6528,-3.7623,-3.9241,-3.9574,-3.9426,-3.9172,-3.8878,-3.8731,-3.8602,-3.8485,-3.7154,-3.5365,-3.4404,-3.0966,-2.6326,-2.5497,-2.3359,-2.0501,-1.9664,-1.9664,-1.9664,-1.9664,-1.9712,-1.9786,-1.9834,-1.9895,-2.0064,-1.982,-2.0223,-2.076,-2.331,-2.5078,-2.6261,-2.8633,-3.1074,-3.3688,-3.4416,-3.5123,-3.7122,-3.7489,-3.8022,-3.6403,-3.4158,-3.187,-2.9425,-2.6584,-2.579,-2.5327,-2.7471,-2.8841,-2.9381,-2.9612,-3.2928,-3.6982,-3.9201,-3.985,-4.0514,-4.0722,-4.1363,-4.1497,-4.1644,-4.1817,-4.1684,-4.1897,-4.1844,-4.1764,-4.1209,-4.0704,-4.0648,-3.9123,-3.7536,-3.5707,-3.4024,-3.2205,-3.025,-2.7871,-2.5427,-2.2674,-2.1055,-2.0864,-2.1185,-2.0967,-2.0824,-2.0722,-2.0391,-2.0157,-1.8412,-1.3993,-1.1679,-0.9631,-0.5019,0.0,-3.2655,-3.2657,-3.2666,-3.4407,-3.6596,-3.6489,-3.7836,-4.0435,-4.0147,-3.9547,-4.016,-4.0185,-3.9729,-3.9251,-4.0019,-4.0557,-3.9836,-4.0746,-4.1885,-4.4131,-4.4379,-4.4051,-4.2248,-4.0147,-3.9228,-3.9693,-3.9399,-3.9225,-3.9078,-3.8865,-3.8718,-3.8718,-3.8602,-3.8369,-3.7632,-3.7037,-3.4534,-2.9297,-2.8117,-2.5026,-2.0858,-1.9786,-1.9786,-1.9914,-1.9908,-1.9921,-1.9813,-1.9705,-1.978,-1.9868,-2.0366,-2.1593,-2.3411,-2.4394,-2.7017,-3.0553,-3.2118,-3.417,-3.6688,-3.6946,-3.6789,-3.5317,-3.5435,-3.4252,-3.1777,-3.1733,-3.0532,-2.9269,-2.8732,-2.7471,-2.5683,-2.7516,-2.7693,-2.7009,-2.784,-2.9823,-3.228,-3.4906,-3.6653,-3.7812,-3.9827,-4.1652,-4.1713,-4.1487,-4.1719,-4.1998,-4.1998,-4.2012,-4.1872,-4.1746,-4.2004,-4.1844,-4.1196,-3.9487,-3.8187,-3.6884,-3.5847,-3.4602,-3.2582,-2.9418,-2.6562,-2.4412,-2.3773,-2.231,-2.075,-2.0763,-2.0804,-2.0736,-2.0359,-1.877,-1.7194,-1.4244,-1.0784,-0.6429,0.0,-3.6536,-3.6509,-3.7529,-3.9159,-4.0563,-4.0314,-4.1211,-4.2722,-4.2619,-4.2432,-4.2445,-4.2458,-4.2191,-4.1804,-4.1924,-4.175,-4.1721,-4.2718,-4.3907,-4.504,-4.5294,-4.513,-4.4166,-4.1653,-3.9733,-3.9573,-3.9452,-3.9252,-3.8985,-3.8825,-3.8718,-3.8718,-3.8718,-3.8602,-3.8718,-3.8718,-3.6092,-3.2029,-2.9771,-2.6685,-2.2643,-2.038,-2.0908,-2.1766,-2.2115,-2.2608,-2.4692,-2.4524,-2.4608,-2.4604,-2.4562,-2.4423,-2.5616,-2.7528,-3.0802,-3.3525,-3.4241,-3.4629,-3.6099,-3.5099,-3.3405,-3.2218,-3.3177,-3.3177,-3.2585,-3.2822,-3.2895,-3.1967,-3.1289,-3.0304,-2.7332,-2.6286,-2.6045,-2.5208,-2.5026,-2.5554,-2.652,-3.0294,-3.3645,-3.4757,-3.7239,-3.7751,-3.8267,-3.9298,-3.8431,-3.7349,-3.9183,-3.945,-4.0098,-4.0225,-4.1798,-4.2111,-4.2151,-4.1432,-4.0263,-3.9487,-3.922,-3.8284,-3.7336,-3.3567,-2.9839,-2.7823,-2.6173,-2.369,-2.0722,-2.0682,-2.0695,-2.0621,-2.0466,-1.9528,-1.7709,-1.5143,-1.2579,-0.9634,-0.7839,-4.037,-4.0266,-4.3037,-4.4115,-4.3888,-4.3317,-4.3011,-4.2993,-4.2712,-4.2418,-4.2285,-4.2258,-4.2205,-4.1937,-4.1964,-4.1737,-4.2312,-4.5059,-4.6763,-4.6622,-4.7488,-4.6759,-4.529,-4.2755,-4.0338,-3.9664,-3.9386,-3.9118,-3.8851,-3.8718,-3.8718,-3.8718,-3.8718,-3.8718,-3.8718,-3.8602,-3.6921,-3.3571,-3.1428,-2.8702,-2.5617,-2.3013,-2.344,-2.4983,-2.5423,-2.647,-2.8419,-2.8958,-2.9291,-3.0139,-3.0318,-2.8967,-2.8643,-3.0602,-3.4205,-3.4807,-3.4346,-3.3873,-3.3207,-3.1419,-2.9616,-2.8871,-3.1332,-3.2865,-3.3359,-3.4921,-3.5636,-3.539,-3.4452,-3.3405,-3.0308,-2.8822,-2.6545,-2.465,-2.2468,-2.1245,-2.1626,-2.6143,-2.8808,-3.1126,-3.4432,-3.6453,-3.5514,-3.5537,-3.3948,-3.3368,-3.545,-3.7129,-3.8023,-3.9462,-4.1279,-4.2218,-4.2218,-4.2218,-4.1178,-4.05,-4.0539,-4.0173,-3.9879,-3.6539,-3.2574,-3.0237,-2.764,-2.3093,-2.0729,-2.0803,-2.0641,-2.0634,-2.0345,-1.9917,-1.8867,-1.6811,-1.4887,-1.2962,-1.1424,-4.4082,-4.3951,-4.3479,-4.342,-4.3474,-4.2779,-4.2605,-4.2672,-4.2445,-4.2271,-4.2258,-4.2458,-4.2378,-4.2245,-4.2418,-4.2071,-4.293,-4.6617,-4.9402,-4.9702,-5.0852,-5.0976,-4.8173,-4.4631,-4.217,-3.9826,-3.9052,-3.8851,-3.8771,-3.8718,-3.8718,-3.8718,-3.8718,-3.8718,-3.8718,-3.8602,-3.7283,-3.4885,-3.3218,-3.1074,-2.8821,-2.7411,-2.7266,-2.864,-2.8721,-2.9421,-2.9854,-2.9954,-2.9672,-2.9964,-3.219,-3.3274,-3.3477,-3.4187,-3.4808,-3.5057,-3.4327,-3.3064,-3.1152,-2.9682,-2.7788,-2.6898,-2.8583,-3.0266,-3.1085,-3.323,-3.6,-3.74,-3.7296,-3.653,-3.3862,-3.2077,-2.9449,-2.6534,-2.4303,-2.3292,-2.191,-2.2497,-2.4894,-2.7466,-3.1749,-3.5278,-3.4034,-3.358,-3.3645,-3.3647,-3.5221,-3.6489,-3.723,-3.9337,-4.1732,-4.2165,-4.2218,-4.2218,-4.1965,-4.1401,-4.1078,-4.0661,-3.9879,-3.7922,-3.4525,-3.2026,-2.8778,-2.4951,-2.2051,-2.1117,-2.0983,-2.0748,-2.0453,-2.0125,-1.9363,-1.8606,-1.6916,-1.523,-1.3852,-4.4877,-4.477,-4.3754,-4.3487,-4.3581,-4.2833,-4.2619,-4.2793,-4.2432,-4.2218,-4.2258,-4.2365,-4.2365,-4.2285,-4.2338,-4.2813,-4.5046,-4.8325,-5.1173,-5.247,-5.3432,-5.349,-5.0915,-4.6762,-4.3675,-4.1411,-3.9897,-3.8834,-3.8718,-3.8718,-3.8718,-3.8718,-3.8718,-3.8718,-3.8718,-3.8602,-3.7878,-3.6196,-3.4756,-3.3336,-3.1557,-3.0364,-3.0133,-3.1603,-3.2298,-3.3116,-3.4819,-3.4962,-3.5165,-3.5622,-3.6643,-3.7417,-3.7638,-3.7601,-3.745,-3.711,-3.4438,-3.1663,-2.9197,-2.7222,-2.4185,-2.5044,-2.7525,-3.0123,-3.1989,-3.4747,-3.7036,-3.815,-3.8718,-3.8176,-3.6723,-3.5075,-3.245,-2.9848,-2.7062,-2.4682,-2.3182,-2.1832,-2.3394,-2.5888,-2.9995,-3.2696,-3.2331,-3.2405,-3.3404,-3.4266,-3.5041,-3.584,-3.6545,-3.9062,-4.1764,-4.1684,-4.163,-4.1497,-4.1537,-4.139,-4.1149,-4.0867,-4.0349,-3.8287,-3.6488,-3.4178,-3.1267,-2.7988,-2.5332,-2.2858,-2.1061,-2.0694,-2.0512,-2.0591,-2.0225,-1.9718,-1.8786,-1.7494,-1.6242,-4.4797,-4.4716,-4.3875,-4.3648,-4.3674,-4.3006,-4.2739,-4.2806,-4.2418,-4.2218,-4.2218,-4.2231,-4.2231,-4.2444,-4.3106,-4.4384,-4.675,-4.9734,-5.2785,-5.4106,-5.4936,-5.4684,-5.2271,-4.9072,-4.5513,-4.4338,-4.1445,-3.9284,-3.8718,-3.8718,-3.8718,-3.8718,-3.8718,-3.8718,-3.8718,-3.8718,-3.8718,-3.7878,-3.6442,-3.4885,-3.417,-3.2641,-3.227,-3.5022,-3.545,-3.679,-3.8685,-3.9055,-3.9306,-3.9398,-3.9773,-4.0027,-4.0361,-4.0241,-4.0241,-3.9461,-3.4288,-3.1163,-2.7849,-2.6138,-2.4532,-2.6,-2.8781,-3.1343,-3.3676,-3.6204,-3.8698,-3.8771,-3.8718,-3.8718,-3.8034,-3.6454,-3.4651,-3.2827,-2.9521,-2.6552,-2.5728,-2.518,-2.5665,-2.7804,-2.9766,-3.0791,-3.1288,-3.2393,-3.3605,-3.2997,-3.3771,-3.5657,-3.6594,-3.9183,-4.1136,-4.1002,-4.0869,-4.0642,-4.0655,-4.0815,-4.0708,-4.0693,-4.0444,-3.9518,-3.7961,-3.6359,-3.3539,-3.0803,-2.8036,-2.5494,-2.3144,-2.1372,-2.2057,-2.2279,-2.1701,-2.1315,-2.1237,-2.0223,-1.8736,-4.4489,-4.4436,-4.3926,-4.3407,-4.3309,-4.3062,-4.2639,-4.2352,-4.2271,-4.2218,-4.2218,-4.2218,-4.2218,-4.3007,-4.5102,-4.6029,-4.7963,-5.1459,-5.4302,-5.5283,-5.6684,-5.6327,-5.4349,-5.2824,-4.9509,-4.7608,-4.4262,-4.1202,-3.9834,-3.9284,-3.8718,-3.8718,-3.8718,-3.8718,-3.8718,-3.8718,-3.8718,-3.8602,-3.8253,-3.7891,-3.7762,-3.7167,-3.7555,-3.8022,-3.8506,-3.8782,-3.9561,-3.9853,-4.008,-4.0094,-4.008,-4.0187,-4.0401,-4.0468,-4.0428,-3.9379,-3.6444,-3.1878,-2.7906,-2.6922,-2.7585,-2.8931,-3.1516,-3.3158,-3.5063,-3.6843,-3.8798,-3.8744,-3.8718,-3.8718,-3.8718,-3.824,-3.6675,-3.4982,-3.2901,-3.0738,-2.945,-2.7388,-2.7972,-3.0088,-3.2243,-3.181,-3.1587,-3.2784,-3.378,-3.297,-3.2872,-3.4992,-3.6873,-3.9318,-4.0588,-4.0468,-4.0321,-4.0094,-3.9974,-4.0107,-4.0161,-4.0241,-4.024,-4.0172,-3.9023,-3.762,-3.6474,-3.376,-3.0715,-2.7566,-2.4665,-2.3614,-2.4183,-2.3442,-2.2102,-2.3082,-2.4533,-2.2918,-2.0407,-4.9804,-4.9744,-4.9207,-4.773,-4.5928,-4.5457,-4.4165,-4.2686,-4.2285,-4.2218,-4.2218,-4.2218,-4.2993,-4.5006,-4.7865,-4.9928,-5.1375,-5.3847,-5.5805,-5.6798,-5.7952,-5.7836,-5.6607,-5.4284,-5.1872,-5.0776,-4.7749,-4.5547,-4.3201,-4.0397,-3.8718,-3.8834,-3.8718,-3.8718,-3.8718,-3.8718,-3.8825,-3.8918,-3.8841,-3.8878,-3.8771,-3.8731,-3.8784,-3.8918,-3.9212,-3.9332,-3.9452,-3.98,-4.0014,-4.0067,-4.0161,-4.0334,-4.0441,-4.0333,-3.9795,-3.7476,-3.8006,-3.5452,-3.1585,-3.0473,-3.089,-3.1874,-3.3613,-3.5058,-3.6471,-3.7723,-3.8718,-3.8718,-3.8718,-3.8718,-3.8718,-3.8718,-3.7994,-3.6751,-3.535,-3.4038,-3.23,-3.0501,-2.9966,-3.2366,-3.4417,-3.3902,-3.3777,-3.5166,-3.6207,-3.5885,-3.5899,-3.7382,-3.8509,-3.9592,-4.0214,-3.9974,-3.9813,-3.9626,-3.9519,-3.9519,-3.9506,-3.9599,-3.9813,-3.9707,-3.9561,-3.8611,-3.6915,-3.482,-3.1475,-2.8444,-2.5734,-2.3933,-2.2964,-2.2543,-2.2241,-2.3052,-2.3733,-2.2164,-2.0017,-5.6491,-5.6228,-5.4046,-5.1661,-4.9292,-4.8693,-4.7187,-4.5217,-4.5018,-4.475,-4.4415,-4.469,-4.5728,-4.7833,-5.0681,-5.2842,-5.4641,-5.557,-5.7117,-5.843,-5.8828,-5.8619,-5.7682,-5.5429,-5.4191,-5.4266,-5.0505,-4.8678,-4.6974,-4.4193,-4.1188,-3.9964,-4.0296,-3.9502,-3.8834,-3.8731,-3.8811,-3.8945,-3.8985,-3.8891,-3.8758,-3.8718,-3.8718,-3.8825,-3.8985,-3.9041,-3.9239,-3.9613,-3.9893,-4.008,-4.0187,-4.0321,-4.0454,-4.0347,-3.9661,-3.8267,-3.8821,-3.8627,-3.5851,-3.4505,-3.3874,-3.4619,-3.5517,-3.6832,-3.8166,-3.8825,-3.8718,-3.8718,-3.8718,-3.8718,-3.8718,-3.8718,-3.8472,-3.7814,-3.6735,-3.5858,-3.5093,-3.3644,-3.3082,-3.4892,-3.6459,-3.6773,-3.7017,-3.8244,-3.8793,-3.8711,-3.9252,-3.9786,-4.0014,-4.012,-4.0027,-3.9813,-3.9666,-3.9439,-3.9159,-3.9065,-3.8985,-3.9025,-3.9252,-3.9306,-3.9225,-3.8022,-3.6186,-3.3805,-3.1222,-2.8387,-2.5161,-2.3161,-2.1614,-2.2593,-2.3207,-2.2257,-2.1812,-2.0503,-1.9071,-6.3437,-6.2465,-5.6205,-5.3339,-5.2653,-5.2292,-5.1686,-5.0495,-5.0904,-5.0435,-4.9645,-5.02,-5.0071,-5.144,-5.3708,-5.5522,-5.5473,-5.7759,-5.8975,-5.9266,-5.8789,-5.8652,-5.8028,-5.7285,-5.6468,-5.6104,-5.3328,-5.1908,-5.1216,-4.8977,-4.5644,-4.3315,-4.3087,-4.1188,-3.976,-3.9106,-3.8771,-3.8851,-3.8851,-3.8825,-3.8744,-3.8718,-3.8718,-3.8784,-3.8972,-3.9159,-3.9159,-3.9452,-3.9746,-3.9947,-4.0027,-4.0201,-4.0348,-4.0348,-3.965,-3.9611,-3.9598,-3.952,-3.8339,-3.813,-3.8637,-3.8597,-3.8374,-3.8074,-3.8788,-3.8798,-3.8731,-3.8744,-3.8758,-3.8718,-3.8718,-3.8718,-3.8718,-3.8383,-3.784,-3.762,-3.7295,-3.7399,-3.7074,-3.8073,-3.8293,-3.806,-3.806,-3.8841,-3.9012,-3.8825,-3.8838,-3.9346,-3.9786,-3.9947,-3.992,-3.98,-3.9666,-3.9372,-3.8878,-3.8784,-3.8825,-3.8838,-3.8958,-3.8945,-3.8851,-3.7229,-3.5271,-3.2529,-2.9805,-2.72,-2.4681,-2.2874,-2.2122,-2.3884,-2.4041,-2.2259,-2.0944,-1.9888,-1.7862,-6.3984,-6.3742,-6.0325,-5.7809,-5.5792,-5.5407,-5.3939,-5.209,-5.1754,-5.132,-5.1333,-5.2844,-5.4595,-5.6406,-5.9139,-6.1383,-6.233,-6.163,-6.1789,-6.1039,-6.0146,-5.8991,-5.8418,-5.791,-5.7372,-5.6932,-5.5447,-5.4895,-5.4571,-5.2999,-5.1435,-4.9215,-4.7102,-4.4193,-4.2219,-3.9972,-3.9084,-3.8798,-3.8865,-3.8918,-3.8731,-3.8718,-3.8718,-3.8744,-3.8784,-3.8891,-3.8918,-3.9172,-3.9466,-3.968,-3.976,-3.9947,-4.012,-4.0054,-4.0,-3.9987,-4.0,-3.992,-3.992,-3.9933,-3.9933,-3.9426,-3.8921,-3.8784,-3.8918,-3.8838,-3.8865,-3.8865,-3.8811,-3.8718,-3.8718,-3.8718,-3.8718,-3.8718,-3.8718,-3.8718,-3.8718,-3.8718,-3.8718,-3.8615,-3.8615,-3.8499,-3.8615,-3.8744,-3.8758,-3.8731,-3.8771,-3.8918,-3.9439,-3.9773,-3.9773,-3.976,-3.964,-3.9332,-3.8851,-3.8758,-3.8718,-3.8718,-3.8718,-3.8718,-3.8499,-3.6081,-3.3978,-3.1209,-2.8148,-2.5204,-2.3013,-2.2204,-2.2044,-2.252,-2.2229,-2.1189,-2.0119,-1.8927,-1.642,-6.4546,-6.527,-6.4351,-6.2106,-5.9275,-5.8536,-5.7018,-5.4933,-5.4587,-5.4657,-5.5052,-5.743,-5.9559,-6.2058,-6.4019,-6.5478,-6.5943,-6.5044,-6.3802,-6.2425,-6.0951,-5.9358,-5.8384,-5.7773,-5.7344,-5.7031,-5.6797,-5.6475,-5.6241,-5.6582,-5.5022,-5.2999,-5.1325,-4.855,-4.4578,-4.1805,-3.9822,-3.8941,-3.8865,-3.8958,-3.8731,-3.8718,-3.8718,-3.8718,-3.8744,-3.8744,-3.8784,-3.8958,-3.9159,-3.9359,-3.9493,-3.9626,-3.972,-3.9746,-3.9626,-3.9599,-3.9613,-3.968,-3.9813,-3.9974,-4.0014,-3.9559,-3.9159,-3.9038,-3.9038,-3.8972,-3.8998,-3.9065,-3.8891,-3.8718,-3.8718,-3.8718,-3.8718,-3.8718,-3.8718,-3.8718,-3.8718,-3.8718,-3.8718,-3.8602,-3.8718,-3.8718,-3.8718,-3.8718,-3.8718,-3.8718,-3.8744,-3.8958,-3.9439,-3.9666,-3.9653,-3.9653,-3.9613,-3.9239,-3.8851,-3.8771,-3.8718,-3.8718,-3.8718,-3.8718,-3.7957,-3.5281,-3.2753,-3.0294,-2.7007,-2.3335,-2.1595,-2.09,-2.051,-2.025,-2.0065,-1.9997,-1.7984,-1.6443,-1.3798,-6.615,-6.7882,-6.7476,-6.5542,-6.307,-6.2051,-6.1329,-6.0342,-6.0361,-6.1385,-6.2741,-6.3452,-6.5085,-6.7242,-6.79,-6.819,-6.796,-6.7133,-6.5575,-6.3652,-6.1994,-6.0015,-5.8415,-5.759,-5.7148,-5.6719,-5.6582,-5.6582,-5.6582,-5.6582,-5.6241,-5.6018,-5.4509,-5.2454,-4.7627,-4.4547,-4.1647,-3.9181,-3.9093,-3.8744,-3.8731,-3.8718,-3.8718,-3.8718,-3.8718,-3.8718,-3.8744,-3.8758,-3.8972,-3.9199,-3.9185,-3.9319,-3.9533,-3.9519,-3.9479,-3.9493,-3.9519,-3.9426,-3.9265,-3.9493,-3.9559,-3.9519,-3.9132,-3.8948,-3.9118,-3.9105,-3.9078,-3.8988,-3.8891,-3.8744,-3.8718,-3.8718,-3.8718,-3.8718,-3.8718,-3.8718,-3.8718,-3.8718,-3.8718,-3.8718,-3.8718,-3.8718,-3.8718,-3.8718,-3.8718,-3.8718,-3.8718,-3.8972,-3.9372,-3.9439,-3.9372,-3.9359,-3.9332,-3.9159,-3.8811,-3.8758,-3.8718,-3.8718,-3.8485,-3.8356,-3.653,-3.3471,-3.1158,-2.9031,-2.5563,-2.137,-2.0373,-1.9847,-1.9012,-1.8178,-1.8845,-1.8447,-1.6326,-1.371,-1.0837,-6.7922,-6.8589,-6.9658,-6.9233,-6.7894,-6.7273,-6.5756,-6.3701,-6.326,-6.3425,-6.4216,-6.5478,-6.7971,-6.9871,-7.0467,-7.0753,-7.1682,-6.9469,-6.7848,-6.7065,-6.3894,-6.1515,-5.9695,-5.795,-5.6973,-5.6699,-5.6582,-5.6582,-5.6582,-5.6543,-5.6348,-5.6211,-5.5765,-5.3867,-5.007,-4.6318,-4.2418,-4.1417,-4.0065,-3.8718,-3.8718,-3.8718,-3.8834,-3.895,-3.9052,-3.9168,-3.9052,-3.9052,-3.9084,-3.9052,-3.9012,-3.9038,-3.9212,-3.9199,-3.9052,-3.9038,-3.9038,-3.9092,-3.9105,-3.9279,-3.9306,-3.9212,-3.9105,-3.9012,-3.9105,-3.8945,-3.8985,-3.9038,-3.8878,-3.8758,-3.8718,-3.8718,-3.8718,-3.8718,-3.8718,-3.8718,-3.8718,-3.8718,-3.8718,-3.8718,-3.8718,-3.8718,-3.8718,-3.8718,-3.8718,-3.8718,-3.8718,-3.8718,-3.9012,-3.8998,-3.8945,-3.8945,-3.8931,-3.8878,-3.8668,-3.8137,-3.7878,-3.7878,-3.7762,-3.7516,-3.5123,-3.1505,-2.9101,-2.6805,-2.3238,-1.9766,-1.9428,-1.8721,-1.6904,-1.6244,-1.6081,-1.59,-1.4192,-1.084,-0.7268,-7.0165,-7.1401,-7.2614,-7.3042,-7.2512,-7.0642,-6.8152,-6.6145,-6.5541,-6.565,-6.6933,-6.8573,-7.0687,-7.2431,-7.2875,-7.2664,-7.4382,-7.2569,-6.9992,-6.9349,-6.5113,-6.2518,-6.0509,-5.8539,-5.7011,-5.6621,-5.6582,-5.6582,-5.6562,-5.6426,-5.6113,-5.5742,-5.5449,-5.4551,-5.1928,-4.8984,-4.5084,-4.358,-4.1303,-3.9848,-3.9617,-3.9617,-4.0397,-4.0857,-4.1188,-4.1632,-4.0627,-4.0093,-3.9815,-3.9344,-3.8878,-3.8811,-3.8891,-3.8851,-3.8718,-3.8718,-3.8744,-3.8838,-3.8945,-3.8985,-3.9012,-3.8998,-3.8891,-3.8972,-3.9105,-3.9025,-3.9038,-3.9025,-3.8865,-3.8771,-3.8718,-3.8718,-3.8718,-3.8718,-3.8718,-3.8718,-3.8718,-3.8718,-3.8718,-3.8718,-3.8718,-3.8718,-3.8718,-3.8718,-3.8718,-3.8718,-3.8718,-3.8718,-3.8704,-3.8718,-3.8718,-3.8731,-3.8744,-3.8744,-3.815,-3.705,-3.6921,-3.7037,-3.6183,-3.5212,-3.2714,-2.9079,-2.6786,-2.4589,-2.1805,-1.9474,-1.866,-1.748,-1.564,-1.3606,-1.209,-1.1774,-1.1447,-0.8496,-0.471,-7.2693,-7.6143,-7.6523,-7.6873,-7.6638,-7.2311,-6.955,-6.842,-6.7949,-6.9465,-7.2251,-7.1555,-7.3014,-7.5161,-7.5156,-7.4404,-7.3774,-7.3357,-7.1683,-6.8961,-6.586,-6.3499,-6.0844,-5.8284,-5.6942,-5.6621,-5.6562,-5.6523,-5.6504,-5.6557,-5.6161,-5.5462,-5.5479,-5.5058,-5.3729,-5.1886,-4.8502,-4.587,-4.3853,-4.2404,-4.1632,-4.2304,-4.3043,-4.3694,-4.4711,-4.426,-4.3369,-4.2389,-4.0972,-3.9876,-3.8731,-3.8731,-3.8731,-3.8718,-3.8718,-3.8718,-3.8718,-3.8744,-3.8771,-3.8784,-3.8784,-3.8838,-3.8958,-3.9078,-3.9078,-3.9012,-3.9012,-3.8972,-3.8851,-3.8771,-3.8718,-3.8718,-3.8718,-3.8718,-3.8718,-3.8718,-3.8718,-3.8718,-3.8718,-3.8718,-3.8718,-3.8718,-3.8718,-3.8718,-3.8718,-3.8718,-3.8704,-3.8638,-3.8651,-3.8718,-3.8718,-3.8718,-3.8718,-3.8704,-3.7839,-3.6457,-3.5488,-3.5452,-3.2528,-3.0977,-2.8603,-2.6912,-2.4989,-2.3013,-2.0952,-1.9434,-1.8648,-1.6728,-1.411,-1.198,-0.9351,-0.7955,-0.7618,-0.6171,-0.3254,-7.5217,-7.8069,-7.9243,-7.9192,-7.7934,-7.5367,-7.2953,-7.0977,-7.0607,-7.113,-7.1583,-7.3448,-7.4317,-7.4849,-7.4322,-7.3895,-7.3544,-7.3097,-7.2561,-7.0156,-6.6707,-6.4785,-6.206,-5.9026,-5.7309,-5.6582,-5.6543,-5.6387,-5.6426,-5.6545,-5.5925,-5.4766,-5.589,-5.5688,-5.4864,-5.3974,-5.1508,-4.9268,-4.7223,-4.5437,-4.4809,-4.5565,-4.603,-4.6586,-4.7367,-4.6444,-4.451,-4.3761,-4.2146,-3.9733,-3.8936,-3.8834,-3.8718,-3.8718,-3.8718,-3.8718,-3.8718,-3.8718,-3.8718,-3.8718,-3.8718,-3.8718,-3.8825,-3.8825,-3.8851,-3.8878,-3.8878,-3.8851,-3.8811,-3.8744,-3.8718,-3.8718,-3.8718,-3.8718,-3.8718,-3.8718,-3.8718,-3.8718,-3.8718,-3.8718,-3.8718,-3.8678,-3.8678,-3.8718,-3.8718,-3.8718,-3.8678,-3.8597,-3.8544,-3.8611,-3.8571,-3.8557,-3.8557,-3.8491,-3.7244,-3.587,-3.4699,-3.3409,-3.0004,-2.7212,-2.5823,-2.4367,-2.2997,-2.1547,-1.9949,-1.9228,-1.8891,-1.6291,-1.298,-0.935,-0.6641,-0.5136,-0.3723,-0.3004,-0.3119,-7.6524,-7.9262,-8.023,-7.962,-7.7837,-7.6582,-7.4888,-7.3343,-7.3094,-7.2899,-7.2783,-7.3944,-7.4397,-7.4071,-7.3569,-7.3242,-7.3192,-7.2941,-7.2551,-7.1238,-6.7301,-6.541,-6.2777,-5.9634,-5.7096,-5.6543,-5.6387,-5.6172,-5.6424,-5.725,-5.7159,-5.7238,-5.755,-5.6218,-5.5467,-5.4648,-5.3928,-5.2185,-5.0504,-4.873,-4.8154,-4.8451,-4.8619,-4.8694,-4.9412,-4.8341,-4.6264,-4.6061,-4.4716,-4.2602,-4.2304,-4.1518,-4.0742,-3.9617,-3.8718,-3.8718,-3.8718,-3.8718,-3.8718,-3.8718,-3.8718,-3.8718,-3.8834,-3.8731,-3.8744,-3.8758,-3.8758,-3.8744,-3.8731,-3.8718,-3.8718,-3.8718,-3.8718,-3.8718,-3.8718,-3.8718,-3.8718,-3.8718,-3.8718,-3.8718,-3.8691,-3.8624,-3.8638,-3.8678,-3.8664,-3.8584,-3.8557,-3.8557,-3.8464,-3.8424,-3.8317,-3.8223,-3.8237,-3.8109,-3.6742,-3.5033,-3.2805,-3.0346,-2.6142,-2.3842,-2.2751,-2.2076,-2.0975,-2.0128,-1.9166,-1.8843,-1.8782,-1.5017,-1.1618,-0.852,-0.6209,-0.4931,-0.3666,-0.2026,-0.2735,-7.673,-7.985,-7.9968,-7.8792,-7.6933,-7.623,-7.558,-7.5251,-7.4832,-7.4978,-7.4655,-7.395,-7.3669,-7.3468,-7.3067,-7.2866,-7.2866,-7.2765,-7.2646,-7.2431,-6.799,-6.5488,-6.3266,-5.9677,-5.7429,-5.6627,-5.6728,-5.719,-5.7304,-5.8415,-5.9913,-6.0752,-5.8589,-5.7136,-5.6164,-5.4702,-5.4008,-5.3862,-5.23,-5.0527,-4.9566,-4.9985,-5.0973,-5.1134,-5.2291,-5.2966,-5.1262,-5.0575,-5.0246,-4.8365,-4.6974,-4.5644,-4.2974,-4.0972,-3.9733,-3.8718,-3.8718,-3.8718,-3.9066,-3.9399,-3.9617,-3.9502,-3.927,-4.0397,-4.1073,-3.9284,-3.8834,-3.8718,-3.8718,-3.8718,-3.8718,-3.8718,-3.8718,-3.8718,-3.8718,-3.8718,-3.8718,-3.8704,-3.8664,-3.8638,-3.8544,-3.8477,-3.8303,-3.8317,-3.833,-3.8317,-3.8317,-3.8357,-3.8263,-3.8157,-3.809,-3.7929,-3.7983,-3.7755,-3.6674,-3.4521,-3.0803,-2.7319,-2.3834,-2.1338,-2.1071,-2.0096,-1.9069,-1.8884,-1.883,-1.8782,-1.8,-1.4737,-1.2369,-1.0537,-0.8233,-0.5888,-0.4181,-0.3401,-0.4822,-7.5352,-7.7956,-7.8188,-7.7712,-7.6783,-7.5829,-7.5377,-7.5151,-7.4322,-7.4021,-7.3946,-7.3694,-7.3343,-7.2966,-7.2841,-7.274,-7.274,-7.274,-7.274,-7.1811,-6.8895,-6.6386,-6.4494,-6.1247,-5.8493,-5.7161,-5.7486,-5.9064,-6.0251,-6.1154,-6.1294,-6.0593,-5.9284,-5.854,-5.6889,-5.5137,-5.454,-5.5317,-5.4556,-5.3977,-5.3823,-5.1874,-5.1495,-5.1547,-5.2222,-5.1256,-5.015,-5.0489,-4.9291,-4.7689,-4.7528,-4.5949,-4.3315,-4.2532,-4.0972,-3.9284,-3.9386,-3.9617,-4.0065,-4.1188,-4.1961,-4.286,-4.3641,-4.4855,-4.4306,-4.0843,-3.895,-3.895,-3.895,-3.895,-3.8718,-3.8718,-3.8718,-3.8718,-3.8718,-3.8718,-3.8718,-3.8664,-3.8611,-3.8504,-3.841,-3.8223,-3.8023,-3.7969,-3.7969,-3.7969,-3.7956,-3.7929,-3.7769,-3.7662,-3.7782,-3.7702,-3.7796,-3.7416,-3.6428,-3.4543,-3.1192,-2.8102,-2.5006,-2.2329,-1.9629,-1.9158,-1.8891,-1.8823,-1.8762,-1.8681,-1.7922,-1.567,-1.3423,-1.1878,-1.0673,-0.8568,-0.9124,-0.873,-1.0157,-7.4877,-7.6907,-7.7457,-7.7084,-7.6155,-7.5477,-7.4975,-7.4448,-7.3845,-7.3443,-7.3242,-7.3192,-7.3016,-7.274,-7.274,-7.274,-7.274,-7.274,-7.274,-7.1906,-7.03,-6.8187,-6.5583,-6.3165,-6.1662,-6.0102,-5.984,-6.1105,-6.3003,-6.3223,-6.2822,-6.2682,-6.1943,-6.027,-5.8572,-5.7262,-5.6283,-5.7468,-5.7028,-5.7188,-5.7362,-5.4646,-5.2672,-5.2417,-5.1856,-5.0854,-5.1463,-5.2125,-5.1722,-5.0454,-5.0018,-4.918,-4.7256,-4.5822,-4.4409,-4.3369,-4.3087,-4.2647,-4.3087,-4.3868,-4.5081,-4.5981,-4.6318,-4.6974,-4.675,-4.3754,-4.2418,-4.219,-4.1417,-4.1303,-3.9284,-3.8718,-3.8718,-3.8718,-3.8718,-3.8718,-3.8638,-3.8544,-3.8477,-3.837,-3.8197,-3.7929,-3.7796,-3.7836,-3.7809,-3.7702,-3.7676,-3.7622,-3.7435,-3.7088,-3.7235,-3.7328,-3.7328,-3.7382,-3.6788,-3.4694,-3.1994,-2.9059,-2.6263,-2.2645,-1.9708,-1.9248,-1.885,-1.8721,-1.8613,-1.8531,-1.7441,-1.6578,-1.4792,-1.3231,-1.2376,-1.142,-1.2644,-1.4401,-1.61,-7.4805,-7.6575,-7.7242,-7.6632,-7.5352,-7.5151,-7.4573,-7.372,-7.3494,-7.3192,-7.2816,-7.2765,-7.274,-7.274,-7.274,-7.274,-7.274,-7.274,-7.274,-7.2122,-7.0493,-6.897,-6.7418,-6.5545,-6.4027,-6.2936,-6.2352,-6.3267,-6.4641,-6.4632,-6.5031,-6.6129,-6.4949,-6.3045,-6.2324,-6.0868,-5.9312,-5.968,-5.9742,-5.9724,-5.8111,-5.5627,-5.3702,-5.3159,-5.3222,-5.3609,-5.3757,-5.4422,-5.4494,-5.41,-5.2481,-5.1459,-5.0232,-4.8485,-4.7441,-4.6412,-4.6062,-4.6222,-4.6957,-4.742,-4.7978,-4.8311,-4.8311,-4.8644,-4.8755,-4.8183,-4.6846,-4.5244,-4.447,-4.2389,-4.0383,-3.8691,-3.8691,-3.8691,-3.8691,-3.8651,-3.8531,-3.841,-3.8303,-3.8197,-3.7903,-3.7622,-3.7555,-3.7595,-3.7529,-3.7422,-3.7328,-3.7328,-3.7155,-3.666,-3.646,-3.654,-3.658,-3.6524,-3.6737,-3.5442,-3.3074,-3.0488,-2.7496,-2.3191,-1.99,-1.9101,-1.862,-1.8545,-1.8443,-1.873,-1.9192,-1.898,-1.6977,-1.5895,-1.689,-1.7572,-1.8424,-2.024,-2.2099,-7.4331,-7.7348,-7.6683,-7.5929,-7.5226,-7.4774,-7.4197,-7.3569,-7.3092,-7.2816,-7.2765,-7.274,-7.274,-7.274,-7.274,-7.274,-7.274,-7.274,-7.274,-7.2336,-7.1617,-7.008,-6.8589,-6.7247,-6.5848,-6.4883,-6.42,-6.4962,-6.5615,-6.5629,-6.6006,-6.6691,-6.4133,-6.2772,-6.2439,-6.1117,-6.0429,-6.1112,-6.1152,-6.0835,-5.9349,-5.6449,-5.2591,-5.1267,-5.0108,-5.0108,-5.0594,-5.2801,-5.3711,-5.4208,-5.4059,-5.2897,-5.1898,-5.0634,-4.9573,-4.882,-4.8485,-4.8544,-4.907,-5.0399,-5.0873,-5.1364,-5.191,-5.3631,-5.374,-5.3703,-5.182,-4.9152,-4.7313,-4.3829,-4.1503,-3.9277,-3.8611,-3.8611,-3.8611,-3.8464,-3.833,-3.8197,-3.8076,-3.7796,-3.7475,-3.7235,-3.7048,-3.7034,-3.6941,-3.678,-3.6513,-3.639,-3.5707,-3.5666,-3.543,-3.5402,-3.5387,-3.6353,-3.6644,-3.6444,-3.4533,-3.195,-2.8586,-2.3996,-2.0592,-1.8844,-1.8355,-1.9128,-1.9333,-1.9523,-2.0065,-2.1387,-2.2041,-2.1603,-2.3368,-2.4434,-2.4835,-2.5176,-2.6225]},{"header":{"parameterUnit":"m.s-1","parameterCategory":1,"la1":31.0,"la2":29.5877,"lo1":-88.7671,"lo2":-86.6584,"dy":0.0162,"dx":0.0185,"nx":115,"ny":88,"refTime":"2024-09-11T06:00:00:Z","depth":0,"parameterNumber":3,"parameterNumberName":"V-component_of_WINDS"},"data":[0.0,0.0,0.0,0.0,0.0,0.0,0.0,0.0,0.0,0.0,0.0,0.0,0.0,0.0,0.0,0.0,0.0,0.0,0.0,0.0,0.0,0.0,0.0,0.0,0.0,0.0,0.0,0.0,0.0,0.0,0.0,0.0,0.0,0.0,0.0,0.0,0.0,0.0,0.0,0.0,0.0,0.0,0.0,0.0,0.0,0.0,0.0,0.0,0.0,0.0,0.0,0.0,0.0,0.0,0.0,0.0,0.0,0.0,0.0,0.0,0.0,0.0,0.0,0.0,0.0,0.0,0.0,0.0,0.0,0.0,0.0,0.0,0.0,0.0,0.0,0.0,0.0,0.0,0.0,0.0,0.0,0.0,0.0,0.0,0.0,0.0,0.0,0.0,0.0,0.0,0.0,0.0,0.0,0.0,0.0,0.0,0.0,0.0,0.0,0.0,0.0,0.0,0.0,0.0,0.0,0.0,0.0,0.0,0.0,0.0,0.0,0.0,0.0,0.0,0.0,0.0,0.0,0.0,0.0,0.0,0.0,0.0,0.0,0.0,0.0,0.0,0.0,0.0,0.0,0.0,0.0,0.0,0.0,0.0,0.0,0.0,0.0,0.0,0.0,0.0,0.0,0.0,0.0,0.0,0.0,0.0,0.0,0.0,0.0,0.0,0.0,0.0,0.0,0.0,0.0,0.0,0.0,0.0,0.0,0.0,0.0,0.0,0.0,0.0,0.0,0.0,0.0,0.0,0.0,0.0,0.0,0.0,0.0,0.0,0.0,0.0,0.0,0.0,0.0,0.0,0.0,0.0,0.0,0.0,0.0,0.0,0.0,0.0,0.0,0.0,0.0,0.0,0.0,0.0,0.0,0.0,0.0,0.0,0.0,0.0,0.0,0.0,0.0,0.0,0.0,0.0,0.0,0.0,0.0,0.0,0.0,0.0,0.0,0.0,0.0,0.0,0.0,0.0,0.0,0.0,0.0,0.0,0.0,0.0,0.0,0.0,0.0,0.0,0.0,0.0,0.0,0.0,0.0,0.0,0.0,0.0,0.0,0.0,0.0,0.0,0.0,0.0,0.0,0.0,0.0,0.0,0.0,0.0,0.0,0.0,0.0,0.0,0.0,0.0,0.0,0.0,0.0,0.0,0.0,0.0,0.0,0.0,0.0,0.0,0.0,0.0,0.0,0.0,0.0,0.0,0.0,0.0,0.0,0.0,0.0,0.0,0.0,0.0,0.0,0.0,0.0,0.0,0.0,0.0,0.0,0.0,0.0,0.0,0.0,0.0,0.0,0.0,0.0,0.0,0.0,0.0,0.0,0.0,0.0,0.0,0.0,0.0,0.0,0.0,0.0,0.0,0.0,0.0,0.0,0.0,0.0,0.0,0.0,0.0,0.0,0.0,0.0,0.0,0.0,0.0,0.0,0.0,0.0,0.0,0.0,0.0,0.0,0.0,0.0,0.0,0.0,0.0,0.0,0.0,0.0,0.0,0.0,0.0,0.0,0.0,0.0,0.0,0.0,0.0,0.0,0.0,0.0,0.0,0.0,0.0,0.0,0.0,0.0,0.0,0.0,0.0,0.0,0.0,0.0,0.0,0.0,0.0,0.0,0.0,0.0,0.0,0.0,0.0,0.0,0.0,0.0,0.0,0.0,0.0,0.0,0.0,0.0,0.0,0.0,0.0,0.0,0.0,0.0,0.0,0.0,0.0,0.0,0.0,0.0,0.0,0.0,0.0,0.0,0.0,0.0,0.0,0.0,0.0,0.0,0.0,0.0,0.0,0.0,0.0,0.0,0.0,0.0,0.0,0.0,0.0,0.0,0.0,0.0,0.0,0.0,0.0,0.0,0.0,0.0,0.0,0.0,0.0,0.0,0.0,0.0,0.0,0.0,0.0,0.0,0.0,0.0,0.0,0.0,0.0,0.0,0.0,0.0,0.0,0.0,0.0,0.0,0.0,0.0,0.0,0.0,0.0,0.0,0.0,0.0,0.0,0.0,0.0,0.0,0.0,0.0,0.0,0.0,0.0,0.0,0.0,0.0,0.0,0.0,0.0,0.0,0.0,0.0,0.0,0.0,0.0,0.0,0.0,0.0,0.0,0.0,0.0,0.0,0.0,0.0,0.0,0.0,0.0,0.0,0.0,0.0,0.0,0.0,0.0,0.0,0.0,0.0,0.0,0.0,0.0,0.0,0.0,0.0,0.0,0.0,0.0,0.0,0.0,0.0,0.0,0.0,0.0,0.0,0.0,0.0,0.0,0.0,0.0,0.0,0.0,0.0,0.0,0.0,0.0,0.0,0.0,0.0,0.0,0.0,0.0,0.0,0.0,0.0,0.0,0.0,0.0,0.0,0.0,0.0,0.0,0.0,0.0,0.0,0.0,0.0,0.0,0.0,0.0,0.0,0.0,0.0,0.0,0.0,0.0,0.0,0.0,0.0,0.0,0.0,0.0,0.0,0.0,0.0,0.0,0.0,0.0,0.0,0.0,0.0,0.0,0.0,0.0,0.0,0.0,0.0,0.0,0.0,0.0,0.0,0.0,0.0,0.0,0.0,0.0,0.0,0.0,0.0,0.0,0.0,0.0,0.0,0.0,0.0,0.0,0.0,0.0,0.0,0.0,0.0,0.0,0.0,0.0,0.0,0.0,0.0,0.0,0.0,0.0,0.0,0.0,0.0,0.0,0.0,0.0,0.0,0.0,0.0,0.0,0.0,0.0,0.0,0.0,0.0,0.0,0.0,0.0,0.0,0.0,0.0,0.0,0.0,0.0,0.0,0.0,0.0,0.0,0.0,0.0,0.0,0.0,0.0,0.0,0.0,0.0,0.0,0.0,0.0,0.0,0.0,0.0,0.0,0.0,0.0,0.0,0.0,0.0,0.0,0.0,0.0,0.0,0.0,0.0,0.0,0.0,0.0,0.0,0.0,0.0,0.0,0.0,0.0,0.0,0.0,0.0,0.0,0.0,0.0,0.0,0.0,0.0,0.0,0.0,0.0,0.0,0.0,0.0,0.0,0.0,0.0,0.0,0.0,0.0,0.0,0.0,0.0,0.0,0.0,0.0,0.0,0.0,0.0,0.0,0.0,0.0,0.0,0.0,0.0,0.0,0.0,0.0,0.0,0.0,0.0,0.0,0.0,0.0,0.0,0.0,0.0,0.0,0.0,0.0,0.0,0.0,0.0,0.0,0.0,0.0,0.0,0.0,0.0,0.0,0.0,0.0,0.0,0.0,0.0,0.0,0.0,0.0,0.0,0.0,0.0,0.0,0.0,0.0,0.0,0.0,0.0,0.0,0.0,0.0,0.0,0.0,0.0,0.0,0.0,0.0,0.0,0.0,0.0,0.0,0.0,0.0,0.0,0.0,0.0,0.0,0.0,0.0,0.0,0.0,0.0,0.0,0.0,0.0,0.0,0.0,0.0,0.0,0.0,0.0,0.0,0.0,0.0,0.0,0.0,0.0,0.0,0.0,0.0,0.0,0.0,0.0,0.0,0.0,0.0,0.0,0.0,0.0,0.0,0.0,0.0,0.0,0.0,0.0,0.0,0.0,0.0,0.0,0.0,0.0,0.0,0.0,0.0,0.0,0.0,0.0,0.0,0.0,0.0,0.0,0.0,0.0,0.0,0.0,0.0,0.0,0.0,0.0,0.0,0.0,0.0,0.0,0.0,0.0,0.0,0.0,0.0,0.0,0.0,0.0,0.0,0.0,0.0,0.0,0.0,0.0,0.0,0.0,0.0,0.0,0.0,0.0,0.0,0.0,0.0,0.0,0.0,0.0,0.0,0.0,0.0,0.0,0.0,0.0,0.0,0.0,0.0,0.0,0.0,0.0,0.0,0.0,0.0,0.0,0.0,0.0,0.0,0.0,0.0,0.0,0.0,0.0,0.0,0.0,0.0,0.0,0.0,0.0,0.0,0.0,0.0,0.0,0.0,0.0,0.0,0.0,0.0,0.0,0.0,0.0,0.0,0.0,0.0,0.0,0.0,0.0,0.0,0.0,0.0,0.0,0.0,0.0,0.0,0.0,0.0,0.0,0.0,0.0,0.0,0.0,0.0,0.0,0.0,0.0,0.0,0.0,0.0,0.0,0.0,0.0,0.0,0.0,0.0,0.0,0.0,0.0,0.0,0.0,0.0,0.0,0.0,0.0,0.0,0.0,0.0,0.0,0.0,0.0,0.0,0.0,0.0,0.0,0.0,0.0,0.0,0.0,0.0,0.0,0.0,0.0,0.0,0.0,0.0,0.0,0.0,0.0,0.0,0.0,0.0,0.0,6.9744,0.0,0.0,0.0,0.0,0.0,0.0,0.0,0.0,0.0,0.0,0.0,0.0,0.0,0.0,0.0,0.0,0.0,0.0,0.0,0.0,0.0,0.0,0.0,0.0,0.0,0.0,0.0,0.0,0.0,0.0,0.0,0.0,0.0,0.0,0.0,0.0,0.0,0.0,0.0,0.0,0.0,0.0,0.0,0.0,0.0,0.0,0.0,0.0,0.0,0.0,0.0,0.0,0.0,0.0,0.0,0.0,0.0,0.0,0.0,0.0,0.0,0.0,0.0,0.0,0.0,0.0,0.0,0.0,0.0,0.0,0.0,0.0,0.0,0.0,0.0,0.0,0.0,0.0,0.0,0.0,0.0,0.0,0.0,0.0,0.0,0.0,0.0,0.0,0.0,0.0,0.0,0.0,0.0,0.0,0.0,0.0,0.0,0.0,0.0,0.0,0.0,0.0,0.0,0.0,0.0,0.0,0.0,0.0,0.0,0.0,7.136,7.0937,7.136,7.1206,7.0398,0.0,0.0,0.0,0.0,0.0,0.0,0.0,0.0,0.0,0.0,0.0,0.0,0.0,0.0,0.0,0.0,0.0,0.0,0.0,0.0,0.0,0.0,0.0,0.0,0.0,0.0,0.0,0.0,0.0,0.0,0.0,0.0,0.0,0.0,0.0,0.0,0.0,0.0,0.0,0.0,0.0,0.0,0.0,0.0,0.0,0.0,0.0,0.0,0.0,0.0,0.0,0.0,0.0,0.0,0.0,0.0,0.0,0.0,0.0,0.0,0.0,0.0,0.0,0.0,0.0,0.0,0.0,0.0,0.0,0.0,0.0,0.0,0.0,0.0,0.0,0.0,0.0,0.0,0.0,0.0,0.0,0.0,0.0,0.0,0.0,0.0,0.0,0.0,0.0,0.0,0.0,0.0,0.0,0.0,0.0,0.0,0.0,0.0,0.0,0.0,0.0,0.0,0.0,0.0,0.0,0.0,0.0,0.0,0.0,0.0,0.0,0.0,7.2706,7.2745,7.2091,0.0,0.0,0.0,0.0,0.0,0.0,0.0,0.0,0.0,0.0,0.0,0.0,0.0,0.0,0.0,0.0,0.0,0.0,0.0,0.0,0.0,0.0,0.0,0.0,0.0,0.0,0.0,0.0,0.0,0.0,0.0,0.0,0.0,0.0,0.0,0.0,0.0,0.0,0.0,0.0,0.0,0.0,0.0,0.0,0.0,0.0,0.0,0.0,0.0,0.0,0.0,0.0,0.0,0.0,0.0,0.0,0.0,0.0,0.0,0.0,0.0,0.0,0.0,0.0,0.0,0.0,0.0,0.0,0.0,0.0,0.0,0.0,0.0,0.0,0.0,0.0,0.0,0.0,0.0,0.0,0.0,0.0,0.0,0.0,0.0,0.0,0.0,0.0,0.0,0.0,0.0,0.0,0.0,0.0,0.0,0.0,0.0,0.0,0.0,0.0,0.0,0.0,0.0,0.0,0.0,0.0,0.0,0.0,0.0,0.0,7.2437,7.5438,7.5592,0.0,7.5553,0.0,0.0,0.0,0.0,0.0,0.0,0.0,0.0,0.0,0.0,0.0,0.0,0.0,0.0,0.0,0.0,0.0,0.0,0.0,0.0,0.0,0.0,0.0,0.0,0.0,0.0,0.0,0.0,0.0,0.0,0.0,0.0,0.0,0.0,0.0,0.0,0.0,0.0,0.0,0.0,0.0,0.0,0.0,0.0,0.0,0.0,0.0,0.0,0.0,0.0,0.0,0.0,0.0,0.0,0.0,0.0,0.0,0.0,0.0,0.0,0.0,0.0,0.0,0.0,0.0,0.0,0.0,0.0,0.0,0.0,0.0,0.0,0.0,0.0,0.0,0.0,0.0,0.0,0.0,0.0,0.0,0.0,0.0,0.0,0.0,0.0,0.0,0.0,0.0,0.0,0.0,0.0,0.0,0.0,0.0,0.0,0.0,0.0,0.0,0.0,0.0,0.0,0.0,0.0,0.0,0.0,0.0,0.0,0.0,0.0,0.0,7.5976,7.5976,7.5745,0.0,0.0,0.0,0.0,0.0,0.0,0.0,0.0,0.0,0.0,0.0,0.0,0.0,0.0,0.0,0.0,0.0,0.0,0.0,0.0,0.0,0.0,0.0,0.0,0.0,0.0,0.0,0.0,0.0,0.0,0.0,0.0,0.0,0.0,0.0,0.0,0.0,0.0,0.0,0.0,0.0,0.0,0.0,0.0,0.0,0.0,0.0,0.0,0.0,0.0,0.0,0.0,0.0,0.0,0.0,0.0,0.0,0.0,0.0,0.0,0.0,0.0,0.0,0.0,0.0,0.0,0.0,0.0,0.0,0.0,0.0,0.0,0.0,0.0,0.0,0.0,0.0,0.0,0.0,0.0,0.0,0.0,0.0,0.0,0.0,0.0,0.0,0.0,0.0,0.0,0.0,0.0,0.0,0.0,0.0,0.0,0.0,0.0,0.0,0.0,0.0,0.0,0.0,0.0,0.0,0.0,0.0,0.0,0.0,0.0,7.5822,0.0,7.7361,7.74,7.6553,7.4745,0.0,0.0,0.0,0.0,0.0,0.0,0.0,0.0,0.0,0.0,0.0,0.0,0.0,0.0,0.0,0.0,0.0,0.0,0.0,0.0,0.0,0.0,0.0,0.0,0.0,0.0,0.0,0.0,0.0,0.0,0.0,0.0,0.0,0.0,0.0,0.0,0.0,0.0,0.0,0.0,0.0,0.0,0.0,0.0,0.0,0.0,0.0,0.0,0.0,0.0,0.0,0.0,0.0,0.0,0.0,0.0,0.0,0.0,0.0,0.0,0.0,0.0,0.0,0.0,0.0,0.0,0.0,0.0,0.0,0.0,0.0,0.0,0.0,0.0,0.0,0.0,0.0,0.0,0.0,0.0,0.0,0.0,0.0,0.0,0.0,0.0,0.0,0.0,0.0,0.0,0.0,0.0,0.0,0.0,0.0,0.0,0.0,0.0,0.0,0.0,0.0,0.0,0.0,0.0,0.0,0.0,0.0,0.0,0.0,7.7592,7.7592,8.0746,8.0862,7.8938,0.0,0.0,0.0,0.0,0.0,0.0,0.0,0.0,0.0,0.0,0.0,0.0,0.0,0.0,0.0,0.0,0.0,0.0,0.0,0.0,0.0,0.0,0.0,0.0,0.0,0.0,0.0,0.0,0.0,0.0,0.0,0.0,0.0,0.0,0.0,0.0,0.0,0.0,0.0,0.0,0.0,0.0,0.0,0.0,0.0,0.0,0.0,0.0,0.0,0.0,0.0,0.0,0.0,0.0,0.0,0.0,0.0,0.0,0.0,0.0,0.0,0.0,0.0,0.0,0.0,0.0,0.0,0.0,0.0,0.0,0.0,0.0,0.0,0.0,0.0,0.0,0.0,0.0,0.0,0.0,0.0,0.0,0.0,0.0,0.0,0.0,0.0,0.0,0.0,0.0,0.0,0.0,0.0,0.0,0.0,0.0,0.0,0.0,0.0,0.0,0.0,0.0,0.0,0.0,0.0,0.0,0.0,0.0,0.0,7.4476,7.5476,7.8669,8.3862,8.0131,7.7592,0.0,0.0,0.0,0.0,0.0,0.0,0.0,0.0,0.0,0.0,0.0,0.0,0.0,0.0,0.0,0.0,0.0,0.0,0.0,0.0,0.0,0.0,0.0,0.0,0.0,0.0,0.0,0.0,0.0,0.0,0.0,0.0,0.0,0.0,0.0,0.0,0.0,0.0,0.0,0.0,0.0,0.0,0.0,0.0,0.0,0.0,0.0,0.0,0.0,0.0,0.0,0.0,0.0,0.0,0.0,0.0,0.0,0.0,0.0,0.0,0.0,0.0,0.0,0.0,0.0,0.0,0.0,0.0,0.0,0.0,0.0,0.0,0.0,0.0,0.0,0.0,0.0,0.0,0.0,0.0,0.0,0.0,0.0,0.0,0.0,0.0,0.0,0.0,0.0,0.0,0.0,0.0,0.0,0.0,0.0,0.0,0.0,0.0,0.0,0.0,0.0,0.0,0.0,0.0,0.0,0.0,0.0,0.0,0.0,7.4168,0.0,8.0708,0.0,7.9785,7.6592,0.0,0.0,0.0,0.0,0.0,0.0,0.0,0.0,0.0,0.0,0.0,0.0,0.0,0.0,0.0,0.0,0.0,0.0,0.0,0.0,0.0,0.0,0.0,0.0,0.0,0.0,0.0,0.0,0.0,0.0,0.0,0.0,0.0,0.0,0.0,0.0,0.0,0.0,0.0,0.0,0.0,0.0,0.0,0.0,0.0,0.0,0.0,0.0,0.0,0.0,0.0,0.0,0.0,0.0,0.0,0.0,0.0,0.0,0.0,0.0,0.0,0.0,0.0,0.0,0.0,0.0,0.0,0.0,0.0,0.0,0.0,0.0,0.0,0.0,0.0,0.0,0.0,0.0,0.0,0.0,0.0,0.0,0.0,0.0,0.0,0.0,0.0,0.0,0.0,0.0,0.0,0.0,0.0,0.0,0.0,0.0,0.0,0.0,0.0,0.0,0.0,0.0,0.0,0.0,0.0,0.0,0.0,0.0,7.4284,8.0631,8.3247,8.3439,8.1323,8.0169,7.6207,0.0,0.0,0.0,0.0,0.0,0.0,0.0,0.0,0.0,0.0,0.0,0.0,0.0,0.0,0.0,0.0,0.0,0.0,0.0,0.0,0.0,0.0,0.0,0.0,0.0,0.0,0.0,0.0,0.0,0.0,0.0,0.0,0.0,0.0,0.0,0.0,0.0,0.0,0.0,0.0,0.0,0.0,0.0,0.0,0.0,0.0,0.0,0.0,0.0,0.0,0.0,0.0,0.0,0.0,0.0,0.0,0.0,0.0,0.0,0.0,0.0,0.0,0.0,0.0,0.0,0.0,0.0,0.0,0.0,0.0,0.0,0.0,0.0,0.0,0.0,0.0,0.0,0.0,0.0,0.0,0.0,0.0,0.0,0.0,0.0,0.0,0.0,0.0,0.0,0.0,0.0,0.0,0.0,0.0,0.0,0.0,0.0,0.0,0.0,0.0,0.0,0.0,0.0,0.0,0.0,0.0,0.0,0.0,0.0,7.763,8.0092,8.2708,8.5093,7.9477,7.6592,0.0,0.0,0.0,0.0,0.0,0.0,0.0,0.0,0.0,0.0,0.0,0.0,0.0,0.0,0.0,0.0,0.0,0.0,0.0,0.0,0.0,0.0,0.0,0.0,0.0,0.0,0.0,0.0,0.0,0.0,0.0,0.0,0.0,0.0,0.0,0.0,0.0,0.0,0.0,0.0,0.0,0.0,0.0,0.0,0.0,0.0,0.0,0.0,0.0,0.0,0.0,0.0,0.0,0.0,0.0,0.0,0.0,0.0,0.0,0.0,0.0,0.0,0.0,0.0,0.0,0.0,0.0,0.0,0.0,0.0,0.0,0.0,0.0,0.0,0.0,0.0,0.0,0.0,0.0,0.0,0.0,0.0,0.0,0.0,0.0,0.0,0.0,0.0,0.0,0.0,0.0,0.0,0.0,0.0,0.0,0.0,0.0,0.0,0.0,0.0,0.0,0.0,0.0,0.0,0.0,0.0,0.0,0.0,0.0,7.9477,8.2093,8.4632,8.6863,8.0208,7.7092,7.8092,0.0,0.0,0.0,0.0,0.0,0.0,0.0,0.0,0.0,0.0,0.0,0.0,0.0,0.0,0.0,0.0,0.0,0.0,0.0,0.0,0.0,0.0,0.0,0.0,0.0,0.0,0.0,0.0,0.0,0.0,0.0,0.0,0.0,0.0,0.0,0.0,0.0,0.0,0.0,0.0,0.0,0.0,0.0,0.0,0.0,0.0,0.0,0.0,0.0,0.0,0.0,0.0,0.0,0.0,0.0,0.0,0.0,0.0,0.0,0.0,0.0,0.0,0.0,0.0,0.0,0.0,0.0,0.0,0.0,0.0,0.0,0.0,0.0,0.0,0.0,0.0,0.0,0.0,0.0,0.0,0.0,0.0,0.0,0.0,0.0,0.0,0.0,0.0,0.0,0.0,0.0,0.0,0.0,0.0,0.0,0.0,0.0,0.0,0.0,0.0,0.0,0.0,0.0,0.0,0.0,0.0,0.0,0.0,8.4863,8.8325,8.894,8.6632,8.2208,7.8015,0.0,0.0,0.0,0.0,0.0,0.0,0.0,0.0,0.0,0.0,0.0,0.0,0.0,0.0,0.0,0.0,0.0,0.0,0.0,0.0,0.0,0.0,0.0,0.0,0.0,0.0,0.0,0.0,0.0,0.0,0.0,0.0,0.0,0.0,0.0,0.0,0.0,0.0,0.0,0.0,0.0,0.0,0.0,0.0,0.0,0.0,0.0,0.0,0.0,0.0,0.0,0.0,0.0,0.0,0.0,0.0,0.0,0.0,0.0,0.0,0.0,0.0,0.0,0.0,0.0,0.0,0.0,0.0,0.0,0.0,0.0,0.0,0.0,0.0,0.0,0.0,0.0,0.0,0.0,0.0,0.0,0.0,0.0,0.0,0.0,0.0,0.0,0.0,0.0,0.0,0.0,0.0,0.0,0.0,0.0,0.0,0.0,0.0,0.0,0.0,0.0,0.0,0.0,0.0,0.0,0.0,0.0,0.0,0.0,8.5016,9.0017,9.2402,9.1556,8.4593,8.0554,0.0,0.0,0.0,0.0,0.0,0.0,0.0,0.0,0.0,0.0,0.0,0.0,0.0,0.0,0.0,0.0,0.0,0.0,0.0,0.0,0.0,0.0,0.0,0.0,0.0,0.0,0.0,0.0,0.0,0.0,0.0,0.0,0.0,0.0,0.0,0.0,0.0,0.0,0.0,0.0,0.0,0.0,0.0,0.0,0.0,0.0,0.0,0.0,0.0,0.0,0.0,0.0,0.0,0.0,0.0,0.0,0.0,0.0,0.0,0.0,0.0,0.0,0.0,0.0,0.0,0.0,0.0,0.0,0.0,0.0,0.0,0.0,0.0,0.0,0.0,0.0,0.0,0.0,0.0,0.0,0.0,0.0,0.0,0.0,0.0,0.0,0.0,0.0,0.0,0.0,0.0,0.0,0.0,0.0,0.0,0.0,0.0,0.0,0.0,0.0,0.0,0.0,0.0,0.0,0.0,0.0,0.0,0.0,8.6132,8.8094,9.3172,9.5518,9.4826,8.7979,8.3478,0.0,0.0,0.0,0.0,0.0,0.0,0.0,0.0,0.0,0.0,0.0,0.0,0.0,0.0,0.0,0.0,0.0,0.0,0.0,0.0,0.0,0.0,0.0,0.0,0.0,0.0,0.0,0.0,0.0,0.0,0.0,0.0,0.0,0.0,0.0,0.0,0.0,0.0,0.0,0.0,0.0,0.0,0.0,0.0,0.0,0.0,0.0,0.0,0.0,0.0,0.0,0.0,0.0,0.0,0.0,0.0,0.0,0.0,0.0,0.0,0.0,0.0,0.0,0.0,0.0,0.0,0.0,0.0,0.0,0.0,0.0,0.0,0.0,0.0,0.0,0.0,0.0,0.0,0.0,0.0,0.0,0.0,0.0,0.0,0.0,0.0,0.0,0.0,0.0,0.0,0.0,0.0,0.0,0.0,0.0,0.0,0.0,0.0,0.0,0.0,0.0,0.0,0.0,0.0,0.0,0.0,0.0,0.0,8.9286,9.2479,9.6634,9.8096,9.6519,9.1441,8.6363,0.0,0.0,0.0,0.0,0.0,0.0,0.0,0.0,0.0,0.0,0.0,0.0,0.0,0.0,0.0,0.0,0.0,0.0,0.0,0.0,0.0,0.0,0.0,0.0,0.0,0.0,0.0,0.0,0.0,0.0,0.0,0.0,0.0,0.0,0.0,0.0,0.0,0.0,0.0,0.0,0.0,0.0,0.0,0.0,0.0,0.0,0.0,0.0,0.0,0.0,0.0,0.0,0.0,0.0,0.0,0.0,0.0,0.0,0.0,0.0,0.0,0.0,0.0,0.0,0.0,0.0,0.0,0.0,0.0,0.0,0.0,0.0,0.0,0.0,0.0,0.0,0.0,0.0,0.0,0.0,0.0,0.0,0.0,0.0,0.0,0.0,0.0,0.0,0.0,0.0,0.0,0.0,0.0,0.0,0.0,0.0,0.0,0.0,0.0,0.0,0.0,0.0,0.0,0.0,0.0,0.0,0.0,0.0,9.1095,9.2518,9.6634,9.8634,9.825,9.2056,8.6594,0.0,0.0,0.0,0.0,0.0,0.0,0.0,0.0,0.0,0.0,0.0,0.0,0.0,0.0,0.0,0.0,0.0,0.0,0.0,0.0,0.0,0.0,0.0,0.0,0.0,0.0,0.0,0.0,0.0,0.0,0.0,0.0,0.0,0.0,0.0,0.0,0.0,0.0,0.0,0.0,0.0,0.0,0.0,0.0,0.0,0.0,0.0,0.0,7.8165,0.0,0.0,0.0,0.0,0.0,0.0,0.0,0.0,0.0,0.0,0.0,0.0,0.0,0.0,0.0,0.0,0.0,0.0,0.0,0.0,0.0,0.0,0.0,0.0,0.0,0.0,0.0,0.0,0.0,0.0,0.0,0.0,0.0,0.0,0.0,0.0,0.0,0.0,0.0,0.0,0.0,0.0,0.0,0.0,0.0,0.0,0.0,0.0,0.0,0.0,0.0,0.0,0.0,0.0,0.0,0.0,0.0,0.0,0.0,9.421,9.548,9.8827,9.9827,9.8134,9.3941,8.9094,0.0,0.0,0.0,0.0,0.0,0.0,0.0,0.0,0.0,0.0,0.0,0.0,0.0,0.0,0.0,0.0,0.0,0.0,0.0,0.0,0.0,0.0,0.0,0.0,0.0,0.0,0.0,0.0,0.0,0.0,0.0,0.0,0.0,0.0,0.0,0.0,0.0,0.0,0.0,0.0,0.0,0.0,0.0,0.0,0.0,0.0,0.0,0.0,0.0,0.0,0.0,0.0,0.0,0.0,0.0,0.0,0.0,0.0,0.0,0.0,0.0,0.0,0.0,0.0,0.0,0.0,0.0,0.0,0.0,0.0,0.0,0.0,0.0,0.0,0.0,0.0,0.0,0.0,0.0,0.0,0.0,0.0,0.0,0.0,0.0,0.0,0.0,0.0,0.0,0.0,0.0,0.0,0.0,0.0,0.0,0.0,0.0,0.0,0.0,0.0,0.0,0.0,0.0,0.0,0.0,0.0,0.0,9.2864,9.6865,9.9135,10.1173,10.0827,9.798,9.6019,9.1825,8.5209,0.0,0.0,0.0,0.0,0.0,0.0,0.0,0.0,0.0,0.0,0.0,0.0,0.0,0.0,0.0,0.0,0.0,0.0,0.0,0.0,0.0,0.0,0.0,0.0,0.0,0.0,0.0,0.0,0.0,0.0,0.0,0.0,0.0,0.0,0.0,0.0,0.0,0.0,7.3037,7.7331,0.0,0.0,0.0,0.0,0.0,0.0,0.0,0.0,8.0253,0.0,0.0,0.0,0.0,0.0,0.0,0.0,0.0,0.0,0.0,0.0,0.0,0.0,0.0,0.0,0.0,0.0,0.0,0.0,0.0,0.0,0.0,0.0,0.0,0.0,0.0,0.0,0.0,0.0,0.0,0.0,0.0,0.0,0.0,0.0,0.0,0.0,0.0,0.0,0.0,0.0,0.0,0.0,0.0,0.0,0.0,0.0,0.0,0.0,0.0,0.0,0.0,0.0,0.0,0.0,0.0,9.2287,9.2903,9.5634,10.0712,10.0635,10.025,9.9596,9.6634,9.1825,8.5247,0.0,0.0,0.0,0.0,0.0,0.0,0.0,0.0,0.0,0.0,0.0,0.0,0.0,0.0,0.0,0.0,0.0,0.0,0.0,0.0,0.0,0.0,0.0,0.0,0.0,0.0,0.0,0.0,0.0,0.0,0.0,0.0,0.0,0.0,0.0,0.0,0.0,0.0,0.0,8.2964,8.5057,0.0,0.0,0.0,0.0,0.0,0.0,0.0,0.0,8.0942,0.0,0.0,0.0,0.0,0.0,0.0,0.0,0.0,0.0,0.0,0.0,0.0,0.0,0.0,0.0,0.0,0.0,0.0,0.0,0.0,0.0,0.0,0.0,0.0,0.0,0.0,0.0,0.0,0.0,0.0,0.0,0.0,0.0,0.0,0.0,0.0,0.0,0.0,0.0,0.0,0.0,0.0,0.0,0.0,0.0,0.0,0.0,0.0,0.0,0.0,0.0,0.0,0.0,0.0,0.0,9.2133,9.5441,9.8442,10.1173,10.0904,9.9904,9.8134,9.4403,8.9787,0.0,0.0,0.0,0.0,0.0,0.0,0.0,0.0,0.0,0.0,0.0,0.0,0.0,0.0,0.0,0.0,0.0,0.0,0.0,0.0,0.0,0.0,0.0,0.0,0.0,0.0,0.0,0.0,0.0,0.0,0.0,0.0,0.0,0.0,0.0,0.0,0.0,0.0,0.0,0.0,8.4181,8.5939,8.7888,0.0,0.0,0.0,0.0,0.0,0.0,8.2638,8.1551,0.0,0.0,0.0,0.0,0.0,0.0,0.0,0.0,0.0,0.0,0.0,0.0,0.0,0.0,0.0,0.0,0.0,0.0,0.0,0.0,0.0,0.0,0.0,0.0,0.0,0.0,0.0,0.0,0.0,0.0,0.0,0.0,0.0,0.0,0.0,0.0,0.0,0.0,0.0,0.0,0.0,0.0,0.0,0.0,0.0,0.0,0.0,0.0,0.0,0.0,0.0,0.0,0.0,0.0,0.0,9.0554,9.6663,10.0283,10.1143,10.1045,9.9488,9.6394,9.2541,8.8232,0.0,0.0,0.0,0.0,0.0,0.0,0.0,0.0,0.0,0.0,0.0,0.0,0.0,0.0,0.0,0.0,0.0,0.0,0.0,0.0,0.0,0.0,0.0,0.0,0.0,0.0,0.0,0.0,0.0,0.0,0.0,0.0,0.0,0.0,0.0,0.0,0.0,0.0,0.0,0.0,0.0,8.6954,8.914,8.8047,0.0,0.0,0.0,0.0,8.5078,8.4258,0.0,0.0,0.0,0.0,0.0,0.0,0.0,0.0,0.0,0.0,0.0,0.0,0.0,0.0,0.0,0.0,0.0,0.0,0.0,0.0,0.0,0.0,0.0,0.0,0.0,0.0,0.0,0.0,0.0,0.0,0.0,0.0,0.0,0.0,0.0,0.0,0.0,0.0,0.0,0.0,0.0,0.0,0.0,0.0,0.0,0.0,0.0,0.0,0.0,0.0,0.0,0.0,0.0,0.0,0.0,0.0,8.8107,9.2625,9.6851,10.0596,10.014,9.8745,9.6609,9.39,8.9311,0.0,0.0,0.0,0.0,0.0,0.0,0.0,0.0,0.0,0.0,0.0,0.0,0.0,0.0,0.0,0.0,0.0,0.0,0.0,0.0,0.0,0.0,0.0,0.0,0.0,0.0,0.0,0.0,0.0,0.0,0.0,0.0,0.0,0.0,0.0,0.0,0.0,0.0,0.0,0.0,0.0,9.0459,8.8124,8.8828,8.9531,0.0,0.0,8.7851,9.0078,8.9023,0.0,0.0,0.0,0.0,0.0,0.0,0.0,0.0,0.0,0.0,0.0,0.0,0.0,0.0,0.0,0.0,0.0,0.0,0.0,0.0,0.0,0.0,0.0,0.0,0.0,0.0,0.0,0.0,0.0,0.0,0.0,0.0,0.0,0.0,0.0,0.0,0.0,0.0,0.0,0.0,0.0,0.0,0.0,0.0,0.0,0.0,0.0,0.0,0.0,0.0,0.0,0.0,0.0,0.0,0.0,8.4856,8.8568,9.52,9.9352,10.0699,10.0008,9.8408,9.5982,9.2044,8.7318,0.0,0.0,0.0,0.0,0.0,0.0,0.0,0.0,0.0,0.0,0.0,0.0,0.0,0.0,0.0,0.0,0.0,0.0,0.0,0.0,0.0,0.0,0.0,0.0,0.0,0.0,0.0,0.0,0.0,0.0,0.0,0.0,0.0,0.0,0.0,0.0,0.0,0.0,0.0,0.0,0.0,0.0,9.1015,9.1758,0.0,0.0,0.0,9.0586,9.1211,0.0,0.0,0.0,0.0,0.0,0.0,0.0,0.0,0.0,0.0,0.0,0.0,0.0,0.0,0.0,0.0,0.0,0.0,0.0,0.0,0.0,0.0,0.0,0.0,0.0,0.0,0.0,0.0,0.0,0.0,0.0,0.0,0.0,0.0,0.0,0.0,0.0,0.0,0.0,0.0,0.0,0.0,0.0,0.0,0.0,0.0,0.0,0.0,0.0,0.0,0.0,0.0,0.0,0.0,0.0,0.0,0.0,8.8928,9.7207,10.1252,10.0675,10.0044,9.8238,9.5233,9.0778,0.0,0.0,0.0,0.0,0.0,0.0,0.0,0.0,0.0,0.0,0.0,0.0,0.0,0.0,0.0,0.0,0.0,0.0,0.0,0.0,0.0,0.0,0.0,0.0,0.0,0.0,0.0,6.2089,0.0,0.0,0.0,0.0,0.0,0.0,0.0,0.0,0.0,0.0,0.0,0.0,0.0,0.0,8.9954,9.2767,9.3656,9.4278,0.0,0.0,9.3004,9.2656,9.1328,8.8867,0.0,0.0,0.0,0.0,0.0,0.0,0.0,0.0,0.0,0.0,0.0,0.0,0.0,0.0,0.0,0.0,0.0,0.0,0.0,0.0,0.0,0.0,0.0,0.0,0.0,0.0,0.0,0.0,0.0,0.0,0.0,0.0,0.0,0.0,0.0,0.0,0.0,0.0,0.0,0.0,0.0,0.0,0.0,0.0,0.0,0.0,0.0,0.0,0.0,0.0,0.0,0.0,0.0,0.0,0.0,8.8406,9.6023,10.018,10.0308,10.0028,9.8195,9.4638,9.1711,8.7279,0.0,0.0,0.0,0.0,0.0,0.0,0.0,0.0,0.0,0.0,0.0,0.0,0.0,0.0,0.0,0.0,0.0,0.0,0.0,0.0,0.0,0.0,0.0,0.0,0.0,0.0,0.0,0.0,0.0,0.0,0.0,0.0,0.0,0.0,0.0,0.0,0.0,0.0,0.0,0.0,0.0,8.9988,9.0959,9.299,9.5292,0.0,0.0,9.4991,9.5975,9.5351,9.25,8.5898,0.0,0.0,0.0,0.0,0.0,0.0,0.0,0.0,0.0,0.0,0.0,0.0,0.0,0.0,0.0,0.0,0.0,0.0,0.0,0.0,0.0,0.0,0.0,0.0,0.0,0.0,0.0,0.0,0.0,0.0,0.0,0.0,0.0,0.0,0.0,0.0,0.0,0.0,0.0,0.0,0.0,0.0,0.0,0.0,0.0,0.0,0.0,0.0,0.0,0.0,0.0,0.0,0.0,8.5379,8.8272,9.6474,10.0311,9.9531,9.9299,9.7433,9.377,9.149,8.7124,0.0,0.0,0.0,0.0,0.0,0.0,0.0,0.0,0.0,0.0,0.0,0.0,0.0,0.0,0.0,0.0,0.0,0.0,0.0,0.0,0.0,0.0,0.0,0.0,0.0,0.0,0.0,0.0,7.0514,7.1091,7.1206,0.0,0.0,0.0,0.0,0.0,0.0,0.0,0.0,0.0,0.0,9.2549,9.3915,9.565,0.0,0.0,9.7051,9.6429,9.6483,9.4414,9.1719,8.8554,8.6094,0.0,0.0,0.0,0.0,0.0,0.0,0.0,0.0,0.0,0.0,0.0,0.0,0.0,0.0,0.0,0.0,0.0,0.0,0.0,0.0,0.0,0.0,0.0,0.0,0.0,0.0,0.0,0.0,0.0,0.0,0.0,0.0,0.0,0.0,0.0,0.0,0.0,0.0,0.0,0.0,0.0,0.0,0.0,0.0,0.0,0.0,0.0,0.0,0.0,0.0,0.0,0.0,8.5095,8.8092,9.5978,9.9673,9.8896,9.8505,9.6653,9.3294,9.1323,8.7472,0.0,0.0,0.0,0.0,0.0,0.0,0.0,0.0,0.0,0.0,0.0,0.0,0.0,0.0,0.0,0.0,0.0,0.0,0.0,0.0,0.0,0.0,0.0,0.0,0.0,0.0,0.0,0.0,7.2976,7.3283,7.2668,0.0,0.0,0.0,0.0,0.0,0.0,0.0,0.0,0.0,0.0,9.4622,9.6573,9.7691,9.835,9.841,9.7577,9.6695,9.6079,9.3937,9.1714,8.9883,0.0,0.0,0.0,0.0,0.0,0.0,0.0,0.0,0.0,0.0,0.0,0.0,0.0,0.0,0.0,0.0,0.0,0.0,0.0,0.0,0.0,0.0,0.0,0.0,0.0,0.0,0.0,0.0,0.0,0.0,7.207,0.0,0.0,0.0,0.0,0.0,0.0,0.0,0.0,0.0,0.0,0.0,0.0,0.0,0.0,0.0,0.0,0.0,0.0,0.0,0.0,0.0,0.0,8.4394,8.779,9.4237,9.7841,9.85,9.7836,9.6056,9.3255,9.1312,8.8527,8.4763,0.0,0.0,0.0,0.0,0.0,0.0,0.0,0.0,0.0,0.0,0.0,0.0,0.0,0.0,0.0,0.0,0.0,0.0,0.0,0.0,0.0,0.0,0.0,0.0,0.0,0.0,7.2437,7.3014,7.3591,0.0,0.0,0.0,0.0,0.0,0.0,0.0,0.0,0.0,0.0,9.2103,9.5685,9.8139,9.84,9.8899,10.0387,9.7896,9.5588,9.5017,9.4766,9.3348,0.0,0.0,0.0,0.0,0.0,0.0,0.0,0.0,0.0,0.0,0.0,0.0,0.0,0.0,0.0,0.0,0.0,0.0,0.0,0.0,0.0,0.0,0.0,0.0,0.0,0.0,0.0,7.9481,7.7302,0.0,0.0,0.0,0.0,0.0,0.0,0.0,0.0,0.0,0.0,0.0,8.3341,8.5113,0.0,0.0,0.0,0.0,0.0,0.0,0.0,0.0,0.0,0.0,0.0,0.0,8.3089,8.6227,9.3354,9.6766,9.6119,9.6358,9.5204,9.2438,9.1001,8.8077,8.3301,0.0,0.0,0.0,0.0,0.0,0.0,0.0,0.0,0.0,0.0,0.0,0.0,0.0,0.0,0.0,0.0,0.0,0.0,0.0,0.0,0.0,0.0,0.0,0.0,0.0,7.613,0.0,0.0,0.0,0.0,0.0,0.0,0.0,0.0,0.0,0.0,0.0,8.8501,9.0711,9.5149,9.83,9.8568,9.9374,9.9839,0.0,0.0,0.0,0.0,0.0,0.0,0.0,0.0,0.0,0.0,0.0,0.0,0.0,0.0,9.5781,8.8437,8.5898,8.5078,8.5664,0.0,0.0,0.0,0.0,0.0,0.0,0.0,0.0,0.0,0.0,0.0,0.0,0.0,0.0,8.3146,0.0,8.0682,0.0,0.0,0.0,0.0,0.0,0.0,0.0,0.0,8.695,8.8668,8.8338,9.0115,9.0078,0.0,8.7449,8.4137,0.0,0.0,0.0,0.0,0.0,0.0,0.0,0.0,8.3417,8.6558,9.3091,9.6234,9.5615,9.5711,9.4723,9.2501,9.1112,8.8193,8.3567,7.9944,7.6632,0.0,0.0,0.0,0.0,0.0,0.0,0.0,0.0,0.0,0.0,0.0,0.0,0.0,0.0,0.0,0.0,0.0,0.0,0.0,0.0,0.0,0.0,0.0,7.763,0.0,0.0,0.0,0.0,0.0,0.0,0.0,0.0,0.0,8.6747,8.966,9.244,9.4381,9.7731,9.9917,9.9683,0.0,0.0,0.0,0.0,0.0,0.0,0.0,9.5736,9.6015,9.6094,9.6289,9.6836,10.0469,10.2773,10.1015,0.0,0.0,9.375,9.1211,9.0469,9.1328,9.2148,9.2344,9.125,9.2148,9.2656,0.0,0.0,0.0,0.0,0.0,0.0,0.0,0.0,8.7033,8.6713,0.0,8.5051,0.0,0.0,0.0,0.0,0.0,0.0,0.0,0.0,9.2226,9.4375,9.5117,9.5156,9.4375,9.2812,9.3437,9.1601,8.7422,8.2396,0.0,0.0,0.0,0.0,0.0,0.0,8.5357,8.8639,9.3314,9.6087,9.6797,9.5775,9.4639,9.3431,9.1644,8.9082,8.5829,8.4856,8.1725,7.5989,7.4035,0.0,0.0,0.0,0.0,0.0,0.0,0.0,0.0,0.0,0.0,0.0,0.0,0.0,0.0,0.0,0.0,0.0,0.0,0.0,0.0,7.5938,0.0,0.0,0.0,0.0,0.0,0.0,0.0,0.0,0.0,0.0,9.1979,9.4457,9.6872,9.871,0.0,0.0,0.0,0.0,10.0932,10.2316,10.1172,10.0122,10.0001,10.0669,10.0428,9.8163,0.0,0.0,9.832,10.1523,10.3281,9.9922,10.2109,10.3711,10.1875,9.9219,9.789,9.8711,9.8242,9.7851,9.7773,9.7969,9.8242,9.2908,0.0,0.0,0.0,0.0,9.0352,9.1576,9.3056,9.288,9.1314,8.8782,8.7923,0.0,0.0,0.0,0.0,0.0,0.0,8.9844,9.1562,9.3789,9.5273,9.6133,9.6719,9.6445,9.539,9.5,9.3554,9.1133,8.8982,8.4564,7.8214,0.0,0.0,0.0,0.0,8.7074,8.8313,9.328,9.5795,9.5438,9.5255,9.4367,9.2611,9.1917,9.0764,8.9168,8.8367,8.6091,8.2143,7.9691,0.0,0.0,0.0,0.0,0.0,0.0,0.0,0.0,0.0,0.0,0.0,0.0,0.0,0.0,0.0,0.0,0.0,0.0,0.0,7.7707,7.9708,8.1499,0.0,0.0,0.0,0.0,0.0,0.0,0.0,0.0,0.0,9.8341,9.8222,9.843,0.0,0.0,10.1992,10.164,10.2461,10.3241,10.3667,0.0,0.0,0.0,10.175,10.109,9.9765,10.1015,10.2578,10.3906,10.5664,10.6211,10.3984,10.4453,10.4961,10.4375,10.2265,10.0937,10.1523,10.1562,10.0976,9.9922,10.0234,10.0351,9.9126,9.4764,9.3231,9.358,9.5061,9.4462,9.5206,9.6855,9.6073,9.4531,9.2539,9.164,8.9726,8.7148,8.6797,0.0,0.0,0.0,9.25,9.4179,9.5234,9.6172,9.6992,9.7812,9.7617,9.6484,9.5976,9.4844,9.3086,9.2226,8.8811,8.3042,0.0,0.0,8.1267,8.6273,8.926,9.0097,9.4335,9.6202,9.5343,9.4911,9.4293,9.3408,9.2611,9.2066,9.191,9.0784,8.9099,8.6803,8.3955,8.0377,0.0,0.0,0.0,0.0,0.0,0.0,0.0,0.0,0.0,0.0,0.0,7.5893,7.3495,0.0,0.0,0.0,7.6746,7.9126,8.2339,8.4429,0.0,0.0,0.0,0.0,0.0,0.0,0.0,9.7114,9.9094,10.0642,10.1765,10.1025,10.0727,10.1719,10.2461,10.2812,10.2656,0.0,10.4414,10.5078,10.5195,10.5117,10.4922,10.4492,10.375,10.2539,10.2617,10.3476,10.5312,10.6445,10.6484,10.5429,10.5508,10.5742,10.5117,10.4179,10.375,10.4297,10.4414,10.3945,10.2617,10.2773,10.2734,10.4272,10.3462,9.9386,9.8414,9.9341,9.7935,9.7861,9.8669,9.7218,9.6562,9.6445,9.5664,9.4375,9.2773,9.1953,0.0,9.2929,9.375,9.5039,9.6679,9.664,9.7031,9.7812,9.8672,9.8281,9.6719,9.6719,9.5859,9.4219,9.3281,9.1479,8.8972,8.811,8.7463,8.7106,8.9629,9.177,9.3203,9.5995,9.6956,9.6015,9.4639,9.4258,9.4922,9.3437,9.2929,9.3594,9.2148,9.0898,8.9961,8.6875,8.3515,8.0078,0.0,0.0,0.0,0.0,0.0,0.0,0.0,0.0,0.0,0.0,0.0,0.0,0.0,0.0,0.0,8.2837,0.0,8.7043,8.9418,0.0,0.0,0.0,9.2799,9.3843,9.6008,9.8212,10.0196,0.0,0.0,10.3164,0.0,10.3398,10.4101,10.3515,10.332,10.4179,10.4375,10.5,10.664,10.6836,10.7109,10.7656,10.7461,10.664,10.5351,10.4062,10.3281,10.414,10.5117,10.5234,10.4414,10.5547,10.6211,10.4609,10.5547,10.6719,10.6679,10.6719,10.6484,10.5586,10.5429,10.5117,10.779,10.7101,10.4756,10.3154,10.199,10.0752,9.9985,9.948,9.8077,9.707,9.6484,9.6289,9.5586,9.457,9.4375,9.4726,9.5586,9.5781,9.6797,9.832,9.7734,9.7851,9.8711,9.957,9.9453,9.8437,9.8398,9.7851,9.6758,9.5312,9.4257,9.3552,9.2731,9.0811,8.8071,9.2444,9.4323,9.3421,9.6183,9.6909,9.5463,9.4413,9.3672,9.3242,9.2812,9.2383,9.1953,9.1523,9.0898,9.0,8.8008,8.5312,8.1836,7.8437,0.0,0.0,0.0,0.0,0.0,0.0,0.0,0.0,0.0,8.2226,7.7223,0.0,8.4778,0.0,8.7273,8.9341,8.9769,9.1475,0.0,0.0,9.6154,9.711,10.0247,10.095,10.1957,10.3977,10.5074,10.5739,10.5781,10.5234,10.4726,10.4297,10.4023,10.4179,10.5039,10.5742,10.6719,10.8164,10.8086,10.8008,10.8633,10.6758,10.5273,10.5469,10.4062,10.3203,10.4062,10.5429,10.5937,10.4648,10.5586,10.6172,10.5351,10.6054,10.6875,10.75,10.7695,10.7422,10.6601,10.6406,10.5976,11.0196,10.9678,10.7963,10.6369,10.4881,10.2577,10.1239,10.0557,9.9372,9.8398,9.7578,9.7187,9.6992,9.6875,9.6875,9.7148,9.7617,9.8008,9.8476,9.8945,9.8515,9.832,9.8476,9.9687,9.9844,9.9023,9.8984,9.875,9.8203,9.6601,9.5976,9.6289,9.5469,9.3975,9.2026,9.4018,9.4819,9.4272,9.5388,9.5742,9.5195,9.3984,9.3086,9.2617,9.2226,9.1601,9.0742,9.0742,9.0312,8.9453,8.8203,8.6445,8.414,8.1523,7.9258,0.0,0.0,0.0,0.0,0.0,0.0,0.0,0.0,0.0,0.0,0.0,8.9397,9.0527,9.2567,9.4454,9.6011,9.6948,9.8647,10.1421,10.0841,10.1277,10.3788,10.425,10.4948,10.6445,10.7344,10.7695,10.7304,10.6562,10.5859,10.539,10.5312,10.5351,10.5586,10.6484,10.7656,10.8515,10.8633,10.8711,10.9258,10.707,10.5469,10.582,10.4922,10.4219,10.4726,10.582,10.6289,10.5156,10.582,10.6445,10.5703,10.6133,10.6875,10.7304,10.7734,10.7773,10.7383,10.7304,10.6875,11.2094,11.1544,11.0017,10.8763,10.7504,10.4182,10.2437,10.1719,10.0976,10.0156,9.9258,9.8554,9.8515,9.8984,9.914,9.9101,9.9062,9.9922,9.9961,9.9336,9.9101,9.8711,9.8281,9.9765,10.0117,9.9531,9.9609,9.9609,9.9453,9.7929,9.7461,9.7969,9.7226,9.6836,9.6758,9.5195,9.4726,9.5351,9.4414,9.4258,9.5,9.3437,9.2539,9.2422,9.1601,9.0742,8.9883,8.9804,8.953,8.8866,8.8125,8.7337,8.6439,8.4798,8.3472,0.0,8.1756,0.0,0.0,0.0,0.0,0.0,0.0,0.0,0.0,9.207,9.4804,9.6953,9.8086,9.9883,10.2773,10.3164,10.3906,10.5429,10.5078,10.5039,10.5898,10.6719,10.7539,10.8398,10.9062,10.914,10.8437,10.75,10.6875,10.6601,10.6562,10.6328,10.5937,10.6992,10.8008,10.8125,10.8789,10.9179,10.8945,10.7734,10.6601,10.6562,10.5937,10.5508,10.5429,10.6133,10.6484,10.5898,10.6328,10.664,10.5937,10.6523,10.6992,10.7031,10.789,10.8515,10.8047,10.7929,10.7695,11.4047,11.2559,11.2208,11.072,10.8529,10.7136,10.5061,10.2656,10.2461,10.1914,10.1133,10.0937,10.0156,9.9101,9.9726,9.9687,9.9062,9.9922,10.0586,10.1054,9.9648,9.9687,10.0859,10.1211,10.164,10.2187,10.289,10.2851,10.2148,10.1133,10.0351,9.9804,9.8945,9.8515,9.8476,0.0,0.0,0.0,9.4687,9.3984,9.4101,9.3125,9.2265,9.1562,9.0703,0.0,8.8984,8.8802,8.8966,8.9469,8.9136,0.0,0.0,0.0,0.0,0.0,0.0,0.0,0.0,0.0,0.0,0.0,9.3203,9.2695,9.2109,9.7422,10.0859,10.0703,10.2695,10.3984,10.3945,10.4609,10.539,10.6367,10.6953,10.7617,10.8476,10.9336,11.0195,11.1054,11.0664,11.0312,11.0039,10.875,10.7539,10.6953,10.6719,10.664,10.6562,10.7422,10.8242,10.8906,10.9179,10.9023,10.8359,10.7461,10.6875,10.6601,10.6015,10.5586,10.5664,10.6211,10.6719,10.6484,10.7148,10.7695,10.7539,10.8203,10.8515,10.789,10.9531,11.0508,10.8476,10.8008,10.7654,11.6403,0.0,11.3686,11.2202,0.0,10.9622,10.7919,10.5976,10.4726,10.3945,10.3437,10.2187,10.1367,10.0898,10.0937,10.0703,10.0351,10.164,10.2226,10.2226,10.1797,10.1797,10.2265,10.2695,10.3125,10.3515,10.3554,10.3554,10.3476,10.2226,10.1562,10.1562,10.0273,9.9844,10.0234,9.9414,9.8164,9.6523,9.5195,9.4531,9.4531,9.3711,9.2617,9.1367,0.0,0.0,0.0,0.0,0.0,0.0,0.0,0.0,0.0,0.0,0.0,8.993,8.9625,9.0008,9.1452,9.3192,9.5011,9.6732,9.806,9.8112,9.6523,10.0429,10.3242,10.4062,10.4609,10.5547,10.7187,10.6992,10.7422,10.9023,10.8906,10.914,11.0312,11.0586,11.0937,11.1679,11.1523,11.125,11.1211,11.0117,10.9179,10.8711,10.8633,10.8554,10.8554,10.8242,10.832,10.914,10.9297,10.9297,10.9258,10.8554,10.8164,10.8398,10.7929,10.7265,10.6797,10.707,10.7226,10.6875,10.7422,10.8008,10.8047,10.8711,10.9179,10.8906,11.0039,11.0859,10.9492,10.9297,10.8945,11.8466,11.7965,11.5191,11.3787,11.332,11.1718,11.0468,10.9375,0.0,0.0,0.0,10.3672,10.289,10.3086,10.2539,10.2187,10.2187,10.3867,10.4258,10.3594,10.414,10.4101,10.3633,10.414,10.4492,10.4609,10.4062,10.4023,10.4375,10.2969,10.2461,10.2734,10.1484,10.1133,10.1719,10.0781,9.9336,9.7461,9.6406,9.5703,9.5429,9.4726,9.3515,9.1797,9.1561,9.0295,8.7881,8.9081,8.9221,8.7973,8.8468,8.9564,9.1234,9.1389,9.2692,9.5592,9.5981,9.6468,9.7402,9.907,9.9824,9.9233,10.1462,10.2382,10.1206,10.2614,10.4451,10.6758,10.5664,10.6406,10.9961,10.9101,10.914,11.1406,11.0508,11.0351,11.164,11.1445,11.1406,11.1992,11.2148,11.2109,11.2109,11.1367,11.082,11.0781,11.0508,11.0586,11.0429,10.9375,10.8867,10.9453,10.9648,10.9804,11.0234,10.9961,10.9883,11.0234,10.9726,10.9062,10.8437,10.8125,10.7773,10.7422,10.7695,10.8008,10.8242,10.8828,10.9258,10.9297,11.0,11.0664,11.0781,11.0547,11.0,11.9066,11.7917,11.7448,11.6096,11.4218,11.3242,11.1914,11.0351,10.9218,10.8359,10.7617,10.7265,10.5937,10.4062,10.4687,10.4531,10.3945,10.5586,10.6289,0.0,10.5586,10.5625,10.6133,10.5586,10.5703,10.6367,10.6953,10.6601,10.539,10.5039,10.4297,10.3047,10.2656,10.2578,10.2578,10.1094,10.0508,10.082,9.9258,9.7773,9.6367,9.6211,9.5312,9.3594,9.259,9.157,9.0447,9.0304,9.0751,9.189,9.1917,9.2652,9.4249,9.4381,9.5014,9.637,9.7185,9.8039,9.9054,10.0096,10.095,10.1651,10.3325,10.4401,10.4485,10.5357,10.6448,10.7656,10.7461,10.7969,10.9297,10.9297,10.9648,11.0703,11.125,11.164,11.1953,11.2383,11.2734,11.2929,11.3008,11.2968,11.2851,11.2226,11.1718,11.1601,11.125,11.0703,11.0742,11.0429,11.0273,11.039,11.039,11.0468,11.0625,11.0547,11.0547,11.0586,11.0,10.9453,10.9297,10.8672,10.8398,10.8789,10.8437,10.8359,10.8906,10.9179,10.9414,10.9492,11.0234,11.0937,11.1562,11.0742,10.9707,12.0271,11.9513,11.8188,11.7144,11.6216,11.4606,11.3476,11.2656,11.1797,11.0664,10.9414,10.8906,10.8047,10.6992,10.6875,10.664,10.6328,10.7539,10.8086,10.8125,10.8203,10.8476,10.875,10.8437,10.8476,10.8789,10.8203,10.7536,10.6612,10.5282,10.4088,10.3212,10.3307,10.3464,10.3554,10.2812,10.2617,10.2929,10.082,9.9336,9.8594,9.8125,9.7184,9.5834,9.4817,9.3971,9.3308,9.27,9.307,9.4657,9.3701,9.4326,9.6826,9.6211,9.6533,9.8344,9.888,9.9487,10.0434,10.1827,10.3031,10.3885,10.4234,10.4684,10.5259,10.5935,10.6567,10.7117,10.7612,10.875,11.0468,11.0703,11.1054,11.1914,11.1992,11.2109,11.2461,11.2461,11.2656,11.3086,11.3203,11.3203,11.3203,11.2851,11.2617,11.2578,11.2187,11.1992,11.1992,11.1953,11.164,11.0859,11.0976,11.1289,11.1289,11.1328,11.1484,11.1914,11.1289,11.0781,11.0664,10.9961,10.9453,10.9297,10.8945,10.8906,10.9297,10.9726,11.0117,11.0742,11.1406,11.2148,11.2383,11.1789,11.0774,12.1648,12.1171,11.9254,11.8186,11.7566,11.5297,11.4275,11.4196,11.3359,11.2244,11.0996,11.0193,10.9804,10.9531,10.8906,10.8593,10.8711,10.9492,10.9883,10.9961,11.0586,11.0898,11.0859,11.0703,11.0586,11.039,10.8943,10.7982,10.7363,10.5336,10.4073,10.3734,10.3878,10.4085,10.4274,10.4313,10.4274,10.4157,10.2282,10.1195,10.1087,10.0228,9.9268,9.8185,9.7435,9.6788,9.6176,9.5328,9.5554,9.694,9.548,9.6019,9.9019,9.798,9.8211,10.0327,10.0481,10.075,10.1616,10.3336,10.4619,10.51,10.4697,10.4619,10.5109,10.5938,10.6449,10.6656,10.7555,10.9023,11.0859,11.1523,11.2031,11.2812,11.24,11.2265,11.2812,11.2449,11.2299,11.2963,11.3163,11.3203,11.3203,11.3203,11.3164,11.3125,11.3203,11.3203,11.3203,11.3203,11.2578,11.1797,11.1797,11.2148,11.2187,11.2187,11.2461,11.3125,11.2422,11.1875,11.164,11.1133,11.0468,10.9804,10.9648,10.9765,10.9883,11.0195,11.0976,11.1797,11.2187,11.2383,11.2343,11.2617,11.2135,12.3064,12.1994,12.1564,11.9942,11.7297,11.482,11.3789,11.3672,11.2776,11.2309,11.2091,11.1803,11.1172,11.0547,11.039,11.0351,11.0429,11.125,11.164,11.164,11.1758,11.1758,11.1758,11.1015,11.0625,11.0507,10.9454,10.8505,10.7677,10.6269,10.5262,10.458,10.4532,10.4552,10.4619,10.4589,10.458,10.458,10.4337,10.3973,10.3461,10.2646,10.1639,10.0524,10.0197,9.9613,9.8762,9.771,9.7998,9.9461,9.8096,9.8365,10.0635,10.0212,10.0519,10.2135,10.1635,10.1558,10.2481,10.406,10.485,10.4176,10.4773,10.4812,10.433,10.578,10.6874,10.7215,10.7958,10.8987,10.9894,11.0731,11.1576,11.2334,11.2355,11.2299,11.2394,11.2521,11.2647,11.2725,11.2983,11.3203,11.3125,11.3125,11.3164,11.3125,11.3086,11.3086,11.3086,11.3125,11.3125,11.289,11.3047,11.3086,11.3086,11.3086,11.3203,11.3203,11.2578,11.2304,11.2187,11.1601,11.0586,11.0898,11.0703,11.0976,11.1172,11.125,11.1289,11.25,11.2265,11.1133,11.1093,11.2265,11.2773,12.3779,12.3169,12.2188,12.0283,11.7816,11.6414,11.5563,11.4979,11.3656,11.3083,11.2988,11.2399,11.2008,11.1836,11.1836,11.1938,11.2148,11.2539,11.2968,11.3359,11.2929,11.2929,11.332,11.2539,11.2066,11.1761,11.0895,10.9834,10.8455,10.6515,10.5302,10.5152,10.514,10.5461,10.602,10.5641,10.5835,10.6847,10.5864,10.5871,10.6733,10.5398,10.3715,10.2358,10.2494,10.2221,10.1199,10.0268,10.0558,10.2058,10.0673,10.0904,10.3405,10.2289,10.1904,10.2558,10.2789,10.3443,10.4751,10.6405,10.7021,10.6213,10.6444,10.629,10.552,10.6565,10.7386,10.7592,10.8582,10.962,11.0427,11.1254,11.1916,11.2227,11.2305,11.2305,11.2316,11.2396,11.2468,11.2468,11.2578,11.267,11.2664,11.2664,11.2664,11.2664,11.2664,11.2721,11.2709,11.2774,11.2891,11.2978,11.3468,11.3945,11.3945,11.3945,11.414,11.4453,11.4414,11.414,11.4023,11.3945,11.3398,11.2343,11.25,11.2617,11.2578,11.2539,11.2539,11.3437,11.3789,11.3008,11.3554,11.4179,11.4531,12.487,12.4216,12.2408,12.0654,11.9027,11.7671,11.6798,11.6021,11.443,11.3731,11.3615,11.3033,11.281,11.2849,11.2882,11.3111,11.3424,11.3569,11.3884,11.4324,11.3842,11.4023,11.4495,11.3987,11.3407,11.2833,11.1723,11.042,10.8815,10.6674,10.5773,10.6315,10.6211,10.6603,10.7494,10.7016,10.7327,10.8375,10.7313,10.7522,10.8752,10.7794,10.6064,10.4216,10.4764,10.4725,10.3694,10.3251,10.352,10.4482,10.3135,10.3289,10.5213,10.4059,10.3366,10.3674,10.4212,10.5213,10.6674,10.8098,10.8636,10.8098,10.7867,10.7559,10.7251,10.7482,10.7905,10.8488,10.9305,11.0147,11.0717,11.1571,11.2037,11.2076,11.2076,11.2076,11.2062,11.2142,11.2179,11.2179,11.2294,11.2305,11.2316,11.2337,11.2347,11.2347,11.2326,11.2305,11.2347,11.2524,11.271,11.2749,11.3691,11.4414,11.4531,11.4726,11.5117,11.5429,11.5508,11.5547,11.5898,11.5898,11.5859,11.4414,11.4726,11.4804,11.4609,11.4375,11.3984,11.457,11.4804,11.4922,11.5195,11.5664,11.5664,12.6832,12.5063,12.2678,12.1585,12.1208,11.8058,11.6594,11.6526,11.4806,11.4053,11.4095,11.392,11.3642,11.3282,11.3527,11.3698,11.4003,11.4486,11.455,11.4327,11.4603,11.4828,11.4884,11.4817,11.435,11.3373,11.1682,10.9786,10.7813,10.6821,10.7193,10.8521,10.789,10.7987,10.8607,10.8627,10.8778,10.8858,10.8742,10.8855,10.9045,10.9663,10.8644,10.6602,10.7062,10.71,10.6367,10.6982,10.7059,10.6328,10.5443,10.5405,10.6174,10.5482,10.5366,10.6097,10.6251,10.6713,10.7636,10.8559,10.8983,10.8752,10.8252,10.8021,10.8444,10.8175,10.8462,10.9846,10.9948,11.0184,11.0259,11.0975,11.1476,11.1494,11.1491,11.1431,11.147,11.1536,11.187,11.184,11.1918,11.2039,11.22,11.2305,11.2238,11.2238,11.2272,11.2289,11.2367,11.2554,11.2651,11.3012,11.375,11.4531,11.4609,11.5234,11.5664,11.6133,11.6445,11.6211,11.6289,11.6406,11.6484,11.6406,11.6289,11.6289,11.6523,11.6328,11.5781,11.5781,11.5703,11.5859,11.6328,11.5937,11.6015,12.7755,12.614,12.4639,12.3101,12.1485,12.0254,11.9177,11.8061,11.6946,11.6099,11.5561,11.5061,11.4708,11.4567,11.4664,11.4319,11.3847,11.4545,11.5334,11.6037,11.5829,11.598,11.6407,11.5941,11.481,11.332,11.206,11.0113,10.7805,10.7316,10.7457,10.8035,10.835,10.8636,10.8867,10.8906,10.9175,10.9675,10.9752,10.9983,11.0406,11.0329,10.9713,10.8906,10.9136,10.8867,10.8021,10.8329,10.8329,10.8021,10.7675,10.7675,10.7905,10.7213,10.7136,10.7867,10.7982,10.8367,10.9252,11.0098,11.0291,10.9752,10.9483,10.9098,10.9021,10.9136,10.937,10.9471,10.9949,10.999,10.965,11.0167,11.0651,11.0601,11.0188,10.9931,10.9865,10.9932,10.9988,11.0092,11.0518,11.0969,11.1113,11.1423,11.1761,11.1778,11.1817,11.2067,11.2389,11.2379,11.2604,11.3623,11.4481,11.523,11.582,11.6211,11.6718,11.7383,11.7812,11.8203,11.8398,11.8711,11.8867,11.8476,11.8125,11.7929,11.8164,11.7734,11.7265,11.707,11.6953,11.6953,11.7304,11.6992,11.7109,12.814,12.6986,12.587,12.4409,12.2793,12.1947,12.11,12.0177,11.8831,11.8023,11.76,11.6869,11.6253,11.5792,11.5984,11.5379,11.4343,11.5032,11.6099,11.7167,11.6822,11.6957,11.7345,11.6918,11.5692,11.3834,11.2091,11.0132,10.814,10.747,10.752,10.807,10.8637,10.9044,10.9297,10.9606,11.006,11.0521,11.0637,11.0906,11.1368,11.0944,11.0598,11.0637,11.0637,11.0214,10.9367,10.956,10.9598,10.9367,10.9329,10.9329,10.9252,10.879,10.8867,10.9598,10.9444,10.9713,11.0521,11.1175,11.1252,11.0675,11.0329,10.9902,10.9397,10.962,10.9465,10.9176,10.9363,10.9483,10.9112,10.9174,10.9483,10.9628,10.9273,10.8893,10.8893,10.8925,10.8956,10.9081,10.9503,10.9771,10.9875,11.0561,11.1108,11.1377,11.1692,11.2214,11.2851,11.2965,11.3009,11.4219,11.5018,11.5861,11.6669,11.7302,11.7532,11.8125,11.8867,11.9531,12.0,12.0468,12.0742,12.0429,12.0156,11.9922,11.9531,11.9062,11.8711,11.8398,11.8281,11.8164,11.8242,11.8164,11.8008,12.7948,12.764,12.6101,12.5293,12.4678,12.2716,12.2139,12.21,12.0177,11.9446,11.9523,11.9177,11.7792,11.683,11.7023,11.6721,11.5615,11.6025,11.6653,11.7261,11.7596,11.781,11.787,11.7815,11.6628,11.4672,11.1757,10.9705,10.856,10.7364,10.7337,10.8585,10.8886,10.9391,11.0153,11.0809,11.1368,11.1406,11.1368,11.1445,11.1522,11.1445,11.1406,11.1445,11.1406,11.1021,11.0252,11.0944,11.0944,11.0291,11.0214,11.0214,11.0291,11.0175,11.0521,11.1098,11.0675,11.0675,11.1329,11.1483,11.1522,11.1269,11.0692,11.0157,10.999,10.944,10.8935,10.8786,10.8817,10.8797,10.8601,10.8129,10.8059,10.8737,10.8667,10.8606,10.8667,10.8797,10.8867,10.8775,10.8872,10.8899,10.9119,10.968,11.0355,11.1146,11.1892,11.2637,11.3424,11.3808,11.4288,11.4757,11.5672,11.6746,11.7576,11.8317,11.8439,11.8711,11.9492,12.0195,12.0508,12.0937,12.1484,12.1367,12.0859,12.0586,11.9765,11.9336,11.8984,11.8789,11.8945,11.8867,11.8554,11.8281,11.8281,12.8448,12.7794,12.6755,12.5563,12.4524,12.3639,12.2908,12.1985,12.1062,12.0331,11.9562,11.9215,11.8138,11.6869,11.6792,11.6638,11.6176,11.6468,11.7172,11.82,11.8552,11.8638,11.8638,11.8638,11.6838,11.3485,11.0599,10.882,10.8049,10.7476,10.755,10.8083,10.9188,10.9883,11.0203,11.1055,11.1522,11.1522,11.1522,11.1522,11.1522,11.1522,11.1522,11.1522,11.1522,11.1368,11.1137,11.1368,11.1368,11.1098,11.1098,11.1329,11.1714,11.1406,11.1522,11.2137,11.156,11.1175,11.1445,11.15,11.1478,11.1319,11.0678,11.0245,11.0111,10.9401,10.8654,10.8161,10.7988,10.7847,10.7249,10.6971,10.7172,10.7881,10.7516,10.7286,10.74,10.7323,10.7466,10.7878,10.8001,10.8439,10.9255,10.9647,10.9804,11.0611,11.1393,11.2296,11.3012,11.4247,11.5483,11.6425,11.7174,11.7593,11.8369,11.9111,11.9572,11.9666,12.0195,12.0547,12.0898,12.125,12.1875,12.1986,12.153,12.087,12.0083,11.9529,11.9111,11.8878,11.8789,11.8593,11.8359,11.8281,11.8281,12.9179,12.8332,12.7486,12.614,12.4601,12.4255,12.3524,12.2485,12.1831,12.1177,12.0562,12.0177,11.91,11.7669,11.7098,11.6579,11.6031,11.5715,11.6311,11.7629,11.8422,11.8577,11.8477,11.788,11.5993,11.2775,11.0348,10.884,10.804,10.7442,10.7133,10.7403,10.8535,10.9394,10.9781,11.0538,11.1124,11.1418,11.1522,11.1522,11.1522,11.1522,11.1522,11.1522,11.1522,11.1522,11.1522,11.1522,11.1522,11.1522,11.1522,11.1906,11.2522,11.1945,11.1714,11.2022,11.1808,11.1358,11.1078,11.097,11.1004,11.0831,11.0204,10.9731,10.9606,10.9093,10.8535,10.7773,10.7917,10.7738,10.7089,10.6847,10.701,10.7092,10.6763,10.6565,10.6743,10.6853,10.7226,10.7878,10.8107,10.861,10.9145,10.9972,11.0043,11.0893,11.1972,11.2556,11.3358,11.4553,11.5833,11.6772,11.7094,11.783,11.9014,11.9838,12.0607,12.0761,12.0898,12.0976,12.1133,12.1445,12.1916,12.1874,12.1548,12.0682,11.9902,11.9305,11.8856,11.8742,11.8473,11.8554,11.8437,11.832,11.8281,12.991,12.9063,12.814,12.6591,12.5004,12.4196,12.3598,12.3392,12.2023,12.159,12.196,12.1079,12.004,11.8738,11.7427,11.6374,11.5193,11.4488,11.4659,11.565,11.6673,11.737,11.7297,11.5914,11.4216,11.2478,11.0681,10.9498,10.8621,10.7237,10.6376,10.6595,10.7403,10.8024,10.8861,10.9724,11.0513,11.1185,11.1336,11.1374,11.15,11.1522,11.1522,11.1522,11.1522,11.1522,11.1522,11.1522,11.156,11.1598,11.1675,11.206,11.2522,11.1983,11.1538,11.1566,11.1495,11.0898,11.0346,11.0123,11.018,11.0188,10.9522,10.8911,10.9063,10.8998,10.8585,10.7955,10.8405,10.8502,10.7809,10.7665,10.7365,10.6677,10.6507,10.6749,10.7404,10.7556,10.7954,10.8688,10.8909,10.9062,10.9485,11.0564,11.1288,11.2263,11.3434,11.3821,11.4193,11.4742,11.5288,11.6129,11.7155,11.8191,11.9431,11.9915,12.0652,12.1155,12.1257,12.1144,12.1138,12.1393,12.1584,12.1555,12.1119,12.0315,11.9654,11.8954,11.8329,11.7853,11.7945,11.8346,11.8452,11.8306,11.8281,12.9063,12.8102,12.6678,12.5019,12.3403,12.2544,12.1778,12.1026,12.0039,11.9868,11.9704,11.8951,11.79,11.6219,11.5987,11.5215,11.4362,11.394,11.4326,11.4959,11.4831,11.5301,11.5374,11.4082,11.2962,11.217,11.0269,10.9024,10.8688,10.7147,10.6413,10.6418,10.7133,10.7665,10.8059,10.8829,10.9695,11.0436,11.0538,11.0922,11.144,11.1522,11.1522,11.1522,11.1522,11.1522,11.1522,11.1522,11.1829,11.2329,11.2368,11.2791,11.3368,11.2269,11.1377,11.1313,11.078,11.015,10.9453,10.9273,10.9497,10.9955,10.9133,10.9103,10.9705,10.914,10.8798,10.8592,10.8797,10.8829,10.8601,10.8539,10.8167,10.7403,10.7072,10.7022,10.7483,10.7624,10.8285,11.0083,11.001,11.056,11.1515,11.1706,11.1721,11.2541,11.3413,11.401,11.4235,11.5421,11.6253,11.6931,11.7852,11.8812,11.9623,12.0069,12.0632,12.1276,12.1366,12.1146,12.1045,12.1013,12.1082,12.1037,12.004,11.9175,11.8809,11.8288,11.7695,11.7198,11.7563,11.8066,11.8156,11.8125,11.8242,12.8926,12.7672,12.6329,12.4501,12.2685,12.2084,12.1183,12.0059,11.9498,11.9045,11.8706,11.8253,11.7156,11.5651,11.5231,11.4414,11.3402,11.2926,11.3,11.3298,11.3,11.3262,11.3597,11.2812,11.2125,11.1272,10.9692,10.8695,10.8138,10.7,10.6449,10.646,10.6847,10.725,10.7665,10.8094,10.8988,10.9987,11.0241,11.0626,11.1418,11.1522,11.1522,11.1522,11.1522,11.1598,11.1945,11.2022,11.2406,11.2906,11.2676,11.2753,11.3692,11.2045,11.0969,11.0863,11.0093,10.9273,10.8568,10.8371,10.8576,10.8818,10.8291,10.8294,10.8709,10.856,10.8402,10.8812,10.9174,10.9423,10.9469,10.9446,10.9227,10.8871,10.8894,10.8766,10.8314,10.8431,10.9533,11.0964,11.1698,11.1919,11.3497,11.2983,11.3057,11.3469,11.4293,11.4183,11.4059,11.5758,11.6736,11.681,11.744,11.8202,11.8765,11.9159,11.9642,12.0386,12.0108,12.0162,12.0572,12.0395,12.0167,11.984,11.8893,11.8299,11.82,11.7977,11.7481,11.7257,11.7512,11.7638,11.7761,11.8047,11.8203,12.8928,12.7417,12.6194,12.4403,12.2407,12.2032,12.0869,11.993,11.9368,11.9029,11.8616,11.8575,11.7416,11.6129,11.5346,11.4287,11.2683,11.21,11.1316,11.1302,11.1192,11.1576,11.1954,11.2006,11.1231,11.0049,10.9099,10.8321,10.7624,10.6816,10.6413,10.6418,10.646,10.6767,10.7249,10.7479,10.8438,10.9657,10.9893,11.0487,11.1291,11.1522,11.1522,11.1522,11.1522,11.1791,11.2214,11.2483,11.2829,11.3791,11.2406,11.2533,11.3388,11.1456,11.027,10.9914,10.9239,10.8367,10.7665,10.7516,10.7698,10.7811,10.7353,10.7,10.8015,10.8336,10.8461,10.8867,10.9675,11.0065,11.0253,11.0181,11.0033,11.0132,11.1486,11.1163,11.0128,10.9938,11.0992,11.2456,11.3419,11.3644,11.4011,11.4415,11.4892,11.4525,11.5112,11.4965,11.4745,11.5568,11.5747,11.5186,11.6084,11.7263,11.7711,11.8168,11.8636,11.9109,11.8364,11.8354,11.9429,11.9408,11.9084,11.8631,11.8154,11.81,11.8276,11.7898,11.7304,11.7076,11.7136,11.7271,11.7457,11.7901,11.8164,12.684,12.6275,12.3527,12.1998,12.1115,11.9351,11.8644,11.8692,11.7428,11.7343,11.7465,11.7539,11.6621,11.5216,11.5406,11.4928,11.3278,11.233,11.1285,10.9572,11.0188,11.0066,11.006,11.0304,11.0012,10.9055,10.8248,10.7771,10.7367,10.678,10.6376,10.6376,10.6418,10.6502,10.664,10.6807,10.7479,10.8861,10.9212,11.0041,11.1185,11.15,11.15,11.1517,11.1478,11.1555,11.1654,11.1752,11.2175,11.2676,11.2626,11.2397,11.2552,11.1183,10.9891,10.9245,10.8429,10.7554,10.6928,10.6921,10.7223,10.8293,10.8254,10.8634,10.9465,10.9315,10.917,10.9232,10.9617,11.0181,11.0692,10.9848,11.0045,11.0899,11.166,11.2278,11.2572,11.285,11.3649,11.4668,11.4853,11.4827,11.5387,11.5551,11.58,11.5782,11.5782,11.5819,11.5828,11.5873,11.5406,11.4965,11.5531,11.6745,11.7094,11.7429,11.7709,11.7756,11.6993,11.6902,11.7984,11.8009,11.7502,11.751,11.7677,11.7753,11.7984,11.76,11.6952,11.6861,11.6788,11.7066,11.7357,11.7754,11.8008,12.5859,12.5256,12.275,12.1419,12.0793,11.9187,11.8425,11.8179,11.7094,11.658,11.6617,11.6654,11.592,11.4855,11.5185,11.4708,11.3471,11.2013,11.0755,10.975,10.9688,10.8953,10.8293,10.8866,10.9166,10.8725,10.8395,10.7844,10.711,10.667,10.6376,10.6376,10.6376,10.6418,10.6376,10.6376,10.7089,10.8129,10.8732,10.9571,11.0676,11.1314,11.1454,11.1329,11.1181,11.1122,11.1958,11.1195,11.1576,11.2137,11.1946,11.1897,11.207,11.0409,10.9216,10.9229,10.8187,10.7776,10.7499,10.7624,10.7998,10.8766,10.8518,10.8518,10.8697,10.8626,10.8441,10.8351,10.8671,10.9274,11.0135,11.055,11.0608,11.1402,11.2884,11.4087,11.4869,11.5063,11.5431,11.6406,11.6333,11.662,11.6904,11.6603,11.6973,11.7118,11.6682,11.6634,11.6454,11.641,11.602,11.5699,11.581,11.6193,11.6521,11.6745,11.6793,11.6528,11.5769,11.6104,11.6956,11.6449,11.5669,11.6442,11.7523,11.7292,11.7369,11.6946,11.6814,11.6697,11.675,11.6993,11.7217,11.7496,11.7629,12.5174,12.4387,12.238,12.1205,12.0581,11.9417,11.8573,11.8122,11.7351,11.6544,11.6177,11.6103,11.5956,11.5222,11.5296,11.4672,11.3169,11.1176,10.9834,10.9172,10.8244,10.7539,10.7022,10.785,10.861,10.8609,10.8211,10.7477,10.6743,10.6376,10.6376,10.6376,10.6376,10.6376,10.6376,10.6418,10.6847,10.7701,10.8265,10.9019,10.9865,11.064,11.0869,11.0972,11.0672,11.0788,11.1393,11.0971,11.0763,11.1992,11.0729,11.1009,11.1255,10.9881,10.8485,10.9975,10.8932,10.8671,10.904,10.9121,10.9098,10.9177,10.8374,10.7919,10.7849,10.7477,10.7283,10.7323,10.7628,10.7998,10.8827,10.9472,11.0569,11.1767,11.4257,11.604,11.6684,11.6717,11.7174,11.7186,11.6706,11.65,11.7075,11.715,11.7905,11.8314,11.7788,11.7311,11.7024,11.6671,11.6165,11.5993,11.5993,11.5993,11.6283,11.557,11.568,11.5849,11.5,11.5449,11.5981,11.5361,11.5127,11.6761,11.7561,11.7231,11.7061,11.7023,11.6875,11.6671,11.6648,11.6843,11.7025,11.7176,11.7296,12.3626,12.3258,12.0273,11.9297,11.9443,11.7535,11.7058,11.7241,11.6617,11.614,11.6103,11.6654,11.6434,11.6066,11.6544,11.5589,11.3312,11.0829,10.8716,10.7504,10.6315,10.5389,10.6013,10.7087,10.7744,10.7592,10.7294,10.6743,10.6523,10.6376,10.6376,10.6376,10.6376,10.6376,10.6376,10.6418,10.6763,10.7365,10.7811,10.8367,10.8988,10.9431,10.987,11.0247,11.0064,11.0283,11.045,11.0342,11.0257,11.038,10.9548,11.0122,11.0795,10.9678,10.9564,11.0346,11.0125,10.9859,11.0457,11.0294,11.0424,11.0443,10.9535,10.8676,10.8405,10.7848,10.7203,10.6722,10.68,10.7229,10.8634,10.8726,10.9427,11.1054,11.3122,11.5128,11.6791,11.7793,11.7749,11.7215,11.6453,11.5841,11.6294,11.6629,11.6854,11.7341,11.749,11.7062,11.6746,11.6301,11.5837,11.5846,11.5993,11.5993,11.6085,11.4918,11.4411,11.5223,11.5,11.5002,11.517,11.4512,11.4888,11.6139,11.6843,11.6778,11.6762,11.6923,11.6737,11.6358,11.6487,11.665,11.667,11.6666,11.7034,12.3298,12.3004,12.0214,11.948,11.9737,11.7682,11.7094,11.7571,11.658,11.5993,11.6103,11.6397,11.6397,11.6177,11.6323,11.5275,11.2908,11.0479,10.8196,10.6398,10.4867,10.4136,10.4681,10.596,10.6425,10.6489,10.6356,10.6334,10.6376,10.6376,10.6376,10.6376,10.6376,10.6376,10.6376,10.6418,10.6595,10.7013,10.7366,10.7774,10.8268,10.8568,10.9119,10.9312,10.9475,10.9598,11.0012,11.0048,11.0271,11.0452,10.9912,11.0228,11.0483,11.0372,10.9929,11.0909,11.0909,11.088,11.1393,11.1249,11.1389,11.0678,10.9886,10.9081,10.8426,10.7738,10.718,10.6622,10.6376,10.6696,10.7411,10.755,10.8248,10.948,11.165,11.3679,11.523,11.7083,11.6941,11.6174,11.5464,11.4972,11.5116,11.5379,11.5541,11.6144,11.6892,11.6772,11.6348,11.5487,11.4745,11.4525,11.4378,11.4011,11.4121,11.3717,11.3057,11.3823,11.4339,11.4428,11.399,11.3113,11.3709,11.4922,11.5457,11.5574,11.647,11.6615,11.633,11.6038,11.6182,11.6269,11.6147,11.619,11.649,12.3077,12.2857,12.0545,11.9921,11.9994,11.8159,11.7425,11.7608,11.6544,11.5993,11.5993,11.603,11.603,11.5827,11.5291,11.4134,11.2171,10.9766,10.7332,10.5619,10.3866,10.3116,10.3704,10.4047,10.4674,10.5092,10.5553,10.6127,10.6376,10.6376,10.6376,10.6376,10.6376,10.6376,10.6376,10.6376,10.6376,10.6595,10.6971,10.7365,10.7554,10.8028,10.8506,10.8593,10.8701,10.9162,10.9624,10.9907,11.0233,11.049,11.0398,11.0347,11.0891,11.056,11.056,11.1049,11.1282,11.1427,11.1697,11.1549,11.1233,11.0417,10.9806,10.8859,10.8037,10.7422,10.7048,10.6523,10.6376,10.6376,10.6664,10.7008,10.7441,10.8216,11.0176,11.2214,11.3127,11.417,11.4583,11.4163,11.4071,11.392,11.3784,11.3434,11.3448,11.4602,11.5394,11.5725,11.5186,11.3794,11.302,11.2653,11.2286,11.1662,11.1698,11.2139,11.1845,11.2183,11.2647,11.2768,11.223,11.1486,11.2326,11.2985,11.3502,11.382,11.5039,11.6016,11.549,11.5289,11.5677,11.5709,11.5287,11.5429,11.5838,12.2233,12.2086,12.0277,11.926,11.8589,11.7514,11.6754,11.636,11.614,11.5993,11.5993,11.5993,11.5993,11.5411,11.3769,11.2511,11.0637,10.819,10.6002,10.4522,10.2789,10.2406,10.3028,10.2018,10.293,10.3566,10.4276,10.5271,10.5838,10.6127,10.6376,10.6376,10.6376,10.6376,10.6376,10.6376,10.6376,10.6418,10.6544,10.6632,10.6636,10.6804,10.7165,10.7745,10.8362,10.8761,10.9062,10.9496,11.012,11.0157,11.012,11.0414,11.1001,11.1184,11.1074,11.1202,11.1335,11.1631,11.1925,11.1603,11.0636,10.9888,10.9012,10.8034,10.7513,10.6998,10.6596,10.6449,10.6376,10.6376,10.6376,10.6507,10.6891,10.7662,10.8888,11.037,11.1367,11.2455,11.2713,11.1803,11.1526,11.1854,11.1998,11.1572,11.1356,11.2657,11.3703,11.4008,11.3907,11.259,11.1515,11.1184,11.0781,11.0157,10.9826,11.0193,11.034,11.056,11.0935,11.1126,11.0582,11.0036,10.9804,11.0423,11.1227,11.2653,11.4202,11.4783,11.4385,11.4579,11.5044,11.4732,11.4191,11.4566,11.5,11.8769,11.8625,11.6986,11.6668,11.697,11.577,11.5809,11.6487,11.6177,11.5993,11.5993,11.5993,11.5374,11.3891,11.2082,11.0193,10.8317,10.654,10.4953,10.3529,10.2169,10.1966,10.2385,10.1824,10.1804,10.2399,10.2984,10.3209,10.4297,10.5582,10.6376,10.6334,10.6376,10.6376,10.6376,10.6376,10.667,10.6926,10.7079,10.6816,10.6523,10.6413,10.6559,10.6926,10.7734,10.8064,10.8395,10.9349,10.9936,11.0083,11.034,11.0817,11.1111,11.1192,11.122,11.1198,11.077,11.0753,11.1065,11.1294,11.0449,10.9355,10.867,10.8705,10.7827,10.6898,10.6376,10.6376,10.6376,10.6376,10.6376,10.6376,10.6553,10.7113,10.7994,10.8783,10.9923,11.0922,11.135,11.0148,10.9156,10.9603,11.005,10.986,10.9398,10.9628,11.0896,11.1724,11.1837,11.1417,11.0487,10.9826,10.9386,10.8872,10.8578,10.8578,10.8542,10.8799,10.9386,10.9466,10.9062,10.8656,10.8749,10.9601,11.1137,11.2515,11.3726,11.4438,11.4796,11.464,11.4421,11.3941,11.3482,11.3361,11.3522,11.4868,11.4649,11.427,11.4682,11.5423,11.4022,11.4273,11.5529,11.5019,11.4704,11.4583,11.4183,11.3181,11.1671,10.9935,10.8043,10.6091,10.5343,10.4111,10.2751,10.1893,10.1788,10.1694,10.1295,10.0855,10.1524,10.1574,10.177,10.2481,10.3796,10.5234,10.5831,10.5663,10.6004,10.6334,10.6413,10.6633,10.7,10.711,10.6853,10.6486,10.6376,10.6376,10.667,10.711,10.763,10.7807,10.8835,10.9606,11.012,11.0414,11.0781,11.1148,11.1229,11.1226,11.1135,11.0777,11.0224,11.0337,11.0274,10.9939,10.8969,10.8104,10.8117,10.7405,10.667,10.6376,10.6376,10.6376,10.6376,10.6376,10.6376,10.6423,10.6783,10.7448,10.795,10.8407,10.9192,10.9486,10.8594,10.779,10.7559,10.7888,10.7998,10.7678,10.7085,10.7844,10.9312,10.9936,11.023,10.9973,10.9386,10.8982,10.8358,10.7587,10.733,10.711,10.722,10.7844,10.7991,10.7771,10.8119,10.8541,10.9715,11.1167,11.2287,11.3494,11.4477,11.5216,11.4232,11.3431,11.3184,11.2872,11.2681,11.2457,11.1273,11.0971,11.3659,11.4386,11.3886,11.3106,11.2439,11.2422,11.2023,11.1636,11.1177,11.0155,10.987,10.8761,10.7135,10.5809,10.5438,10.3667,10.2665,10.2136,10.1825,10.1589,10.1272,10.0482,9.9553,9.9669,10.0032,10.0248,10.0516,10.1539,10.3123,10.425,10.4344,10.5234,10.5991,10.6359,10.6523,10.6743,10.6743,10.667,10.6449,10.6376,10.6376,10.6559,10.7073,10.7587,10.7587,10.8395,10.9202,10.9753,10.9973,11.045,11.0854,11.0854,11.0815,11.0705,11.0668,11.0073,10.9787,10.957,10.873,10.7873,10.7247,10.7147,10.6932,10.6596,10.6413,10.6449,10.6486,10.6376,10.6376,10.6376,10.6376,10.6539,10.6857,10.6976,10.7172,10.7095,10.7291,10.6774,10.6654,10.6737,10.6737,10.7079,10.7183,10.667,10.6706,10.8101,10.9312,10.9753,10.9679,10.9349,10.8982,10.8175,10.6816,10.6559,10.667,10.6706,10.7037,10.7,10.6743,10.7361,10.8554,10.9815,11.1232,11.2219,11.308,11.3698,11.3807,11.2971,11.2499,11.2546,11.2322,11.2077,11.1983,11.0824,11.0963,11.0816,11.1049,11.1596,11.0827,11.0898,11.1391,11.0987,11.037,10.9459,10.8347,10.6861,10.5252,10.3471,10.1655,10.0479,10.0818,10.0584,10.1086,10.1348,10.1663,10.1183,10.0303,9.9622,9.9108,9.9008,9.8779,9.8958,9.9676,10.0404,10.1467,10.2466,10.3796,10.4825,10.6203,10.6658,10.6596,10.678,10.6926,10.6413,10.6376,10.6376,10.6449,10.6559,10.6853,10.6926,10.7624,10.8431,10.9019,10.9239,10.9753,11.023,11.0047,10.99,10.9863,10.99,10.9679,10.9679,10.9716,10.9716,10.8321,10.7299,10.6559,10.6926,10.6706,10.678,10.678,10.6633,10.6376,10.6376,10.6376,10.6376,10.6376,10.6376,10.6376,10.6376,10.6376,10.6376,10.6455,10.6455,10.6497,10.6455,10.6449,10.6486,10.6413,10.6523,10.6926,10.8358,10.9276,10.9276,10.9239,10.8909,10.8064,10.6743,10.6486,10.6376,10.6376,10.6376,10.6376,10.6497,10.7835,10.9007,11.0197,11.1341,11.2524,11.3112,11.2915,11.2748,11.2574,11.2393,11.2276,11.1956,11.1609,11.1532,11.0679,10.9981,10.8164,10.8389,10.9741,10.8941,10.895,10.958,10.9185,10.8144,10.689,10.5498,10.3681,10.1518,10.0247,9.8692,9.7534,9.7807,9.8482,9.9177,9.9952,10.077,10.0616,10.0066,9.9322,9.8781,9.8375,9.8064,9.8153,9.8003,9.8753,9.9676,10.0461,10.1787,10.3759,10.5453,10.651,10.6627,10.678,10.7037,10.6413,10.6376,10.6376,10.6376,10.6449,10.6449,10.6559,10.7037,10.7587,10.8138,10.8505,10.8872,10.9129,10.9202,10.8872,10.8799,10.8835,10.9019,10.9386,10.9826,10.9936,10.8688,10.7587,10.7257,10.7257,10.7073,10.7147,10.733,10.6853,10.6376,10.6376,10.6376,10.6376,10.6376,10.6376,10.6376,10.6376,10.6376,10.6376,10.6418,10.6376,10.6376,10.6376,10.6376,10.6376,10.6376,10.6449,10.7037,10.8358,10.8982,10.8945,10.8945,10.8835,10.7807,10.6743,10.6523,10.6376,10.6376,10.6376,10.6376,10.6816,10.8181,10.9259,11.0168,11.1422,11.2807,11.3073,11.2767,11.2719,11.2687,11.2363,11.1978,11.1963,11.1687,11.1375,11.0365,10.7327,10.6428,10.7218,10.8419,10.7475,10.6493,10.6113,10.5877,10.4472,10.2383,10.1299,9.9745,9.8067,9.7422,9.6264,9.5277,9.5432,9.6084,9.6855,9.8017,9.8418,9.8922,9.8999,9.8984,9.824,9.8003,9.8003,9.8003,9.8003,9.8153,9.8011,9.8591,9.9699,10.2136,10.3687,10.5054,10.6206,10.6322,10.6449,10.6413,10.6376,10.6376,10.6376,10.6376,10.6376,10.6449,10.6486,10.7073,10.7697,10.7661,10.8028,10.8615,10.8578,10.8468,10.8505,10.8578,10.8321,10.7881,10.8505,10.8688,10.8578,10.7514,10.7373,10.7477,10.744,10.7367,10.7483,10.6853,10.6449,10.6376,10.6376,10.6376,10.6376,10.6376,10.6376,10.6376,10.6376,10.6376,10.6376,10.6376,10.6376,10.6376,10.6376,10.6376,10.6376,10.6376,10.7073,10.8175,10.8358,10.8175,10.8138,10.8064,10.7587,10.6633,10.6486,10.6376,10.6376,10.646,10.6465,10.7229,10.8632,10.9562,11.0266,11.1281,11.2559,11.2665,11.256,11.211,11.1615,11.1861,11.1729,11.1743,11.1661,11.127,10.8962,10.7664,10.4497,10.3371,10.3556,10.2608,10.2475,10.2939,10.2476,10.1501,10.0075,9.8692,9.6848,9.5293,9.4366,9.3467,9.2163,9.2819,9.3384,9.3804,9.5851,9.7025,9.7652,9.838,9.8679,9.8206,9.8003,9.8003,9.8003,9.7935,9.7597,9.736,9.7076,9.8186,10.07,10.2822,10.466,10.5144,10.575,10.6376,10.6376,10.6376,10.6334,10.6291,10.6212,10.6169,10.6212,10.6212,10.6658,10.7294,10.7183,10.7257,10.7734,10.7697,10.7294,10.7257,10.7257,10.7404,10.744,10.7918,10.7991,10.7734,10.744,10.7183,10.744,10.7,10.711,10.7257,10.6816,10.6486,10.6376,10.6376,10.6376,10.6376,10.6376,10.6376,10.6376,10.6376,10.6376,10.6376,10.6376,10.6376,10.6376,10.6376,10.6376,10.6376,10.6376,10.6376,10.7183,10.7147,10.7,10.7,10.6963,10.6816,10.6602,10.6585,10.6595,10.6595,10.6636,10.6681,10.7698,10.8974,10.956,11.0064,11.1111,11.2099,11.1603,11.1129,11.063,11.0334,11.091,11.137,11.1562,11.1309,11.0895,10.7531,10.5113,10.2273,9.9846,9.8442,9.9265,10.0095,10.0171,9.9493,9.8718,9.7616,9.6135,9.4446,9.2916,9.1822,9.0741,8.9236,8.9815,9.0804,9.1198,9.4079,9.5356,9.6367,9.7667,9.8251,9.807,9.8003,9.8003,9.7969,9.7732,9.7191,9.6548,9.6041,9.6912,9.8961,10.0711,10.3071,10.3927,10.5189,10.5874,10.5961,10.5961,10.5582,10.5405,10.5234,10.5017,10.5494,10.5823,10.6137,10.6646,10.6816,10.6633,10.6853,10.6743,10.6376,10.6376,10.6449,10.6706,10.7,10.711,10.7183,10.7147,10.6853,10.7073,10.744,10.722,10.7257,10.722,10.678,10.6523,10.6376,10.6376,10.6376,10.6376,10.6376,10.6376,10.6376,10.6376,10.6376,10.6376,10.6376,10.6376,10.6376,10.6376,10.6376,10.6376,10.6376,10.6376,10.6339,10.6376,10.6376,10.6413,10.6449,10.6449,10.6622,10.6844,10.6847,10.6807,10.6976,10.7176,10.7842,10.9,10.9465,10.978,11.0247,11.0444,11.003,10.9591,10.9553,10.9824,11.0394,11.0861,11.1248,11.1042,11.0642,10.6265,10.036,9.9727,9.7077,9.4009,9.7278,9.8411,9.7487,9.6816,9.583,9.4585,9.3887,9.241,9.0773,8.9965,8.9065,8.8116,8.8006,8.8522,8.9872,9.212,9.348,9.5276,9.7,9.7885,9.807,9.7969,9.7901,9.7867,9.6254,9.5581,9.5582,9.4894,9.5364,9.6433,9.81,10.0554,10.2424,10.394,10.4624,10.5017,10.4706,10.4236,10.388,10.3446,10.364,10.4058,10.4588,10.536,10.5947,10.6413,10.6413,10.6413,10.6376,10.6376,10.6376,10.6376,10.6449,10.6523,10.6559,10.6559,10.6706,10.7037,10.7367,10.7367,10.7183,10.7183,10.7073,10.6743,10.6523,10.6376,10.6376,10.6376,10.6376,10.6376,10.6376,10.6376,10.6376,10.6376,10.6376,10.6376,10.6376,10.6376,10.6376,10.6376,10.6376,10.6339,10.6156,10.6192,10.6376,10.6376,10.6376,10.6376,10.6339,10.6484,10.6635,10.6838,10.6727,10.7654,10.8029,10.8641,10.8952,10.9329,10.9442,10.906,10.8825,10.8526,10.8681,10.9012,10.9385,10.9641,11.0299,11.0675,11.0805,11.046,10.5694,10.1741,9.8734,9.5854,9.3497,9.3279,9.3797,9.4618,9.4554,9.3965,9.3079,9.1514,9.0355,8.9202,8.8574,8.8065,8.7646,8.7307,8.7245,8.8594,9.0977,9.2308,9.4208,9.6321,9.7534,9.8003,9.7935,9.7664,9.6512,9.4809,9.3769,9.3908,9.2788,9.2909,9.4077,9.5399,9.7902,10.0181,10.185,10.2959,10.3361,10.2945,10.2481,10.1929,10.187,10.2208,10.298,10.3724,10.4644,10.5918,10.6254,10.6334,10.6376,10.6376,10.6376,10.6376,10.6376,10.6376,10.6376,10.6376,10.6376,10.6376,10.667,10.667,10.6743,10.6816,10.6816,10.6743,10.6633,10.6449,10.6376,10.6376,10.6376,10.6376,10.6376,10.6376,10.6376,10.6376,10.6376,10.6376,10.6376,10.6266,10.6266,10.6376,10.6376,10.6376,10.6266,10.6046,10.5899,10.6082,10.5972,10.5935,10.5935,10.5752,10.5907,10.6051,10.6399,10.677,10.7736,10.8636,10.9135,10.9349,10.9366,10.8944,10.8295,10.7671,10.7136,10.7404,10.7658,10.8229,10.8586,10.9411,11.0054,11.0115,10.9956,10.4365,9.9869,9.7327,9.4888,9.2763,9.1267,9.1251,9.1999,9.2097,9.1852,9.1296,8.9701,8.8663,8.8274,8.7676,8.7287,8.7227,8.6928,8.6847,8.7776,9.0538,9.1914,9.3732,9.59,9.7659,9.7935,9.7664,9.7292,9.5789,9.3424,9.1919,9.0717,8.9686,9.0848,9.2085,9.3706,9.556,9.7631,9.9388,10.0747,10.1241,10.1012,10.0237,10.0114,10.0197,10.0502,10.1517,10.2252,10.3146,10.4459,10.4706,10.5063,10.5449,10.5961,10.6376,10.6376,10.6376,10.6376,10.6376,10.6376,10.6376,10.6376,10.6334,10.6413,10.6449,10.6486,10.6486,10.6449,10.6413,10.6376,10.6376,10.6376,10.6376,10.6376,10.6376,10.6376,10.6376,10.6376,10.6376,10.6376,10.6302,10.6119,10.6156,10.6266,10.6229,10.6009,10.5935,10.5935,10.5678,10.5568,10.5275,10.5018,10.5054,10.5059,10.5214,10.5466,10.6058,10.6706,10.7853,10.8665,10.9377,10.9117,10.8539,10.7944,10.7325,10.6867,10.6521,10.6012,10.6084,10.677,10.7281,10.7543,10.8375,10.9239,10.8989,10.2754,9.6222,9.5513,9.39,9.1686,9.0848,9.0272,8.9681,8.9777,8.9553,8.9365,8.8325,8.7796,8.7556,8.7077,8.6838,8.6838,8.6718,8.6768,8.6896,9.0022,9.181,9.3355,9.5735,9.701,9.7344,9.6788,9.5652,9.49,9.1914,8.8408,8.7167,8.8308,8.9255,9.01,9.2405,9.4256,9.5687,9.7082,9.8368,9.9685,9.9169,9.7917,9.7966,9.7574,9.7299,9.8736,9.9528,9.9957,10.14,10.2481,10.3123,10.4391,10.536,10.5918,10.6376,10.6376,10.6376,10.6249,10.6084,10.5961,10.6004,10.609,10.5582,10.5279,10.6127,10.6334,10.6376,10.6376,10.6376,10.6376,10.6376,10.6376,10.6376,10.6376,10.6376,10.6376,10.6339,10.6229,10.6156,10.5899,10.5715,10.5238,10.5275,10.5311,10.5275,10.5275,10.5385,10.5128,10.4834,10.4651,10.421,10.4357,10.444,10.4286,10.4689,10.568,10.6594,10.7507,10.8508,10.9037,10.8427,10.7462,10.7098,10.679,10.6521,10.6141,10.5696,10.5488,10.5804,10.6087,10.5734,10.6402,10.7485,10.7743,10.3238,9.9108,9.5061,9.2613,9.1506,9.0369,8.983,8.9561,8.8574,8.8215,8.8125,8.7826,8.7407,8.6958,8.6808,8.6689,8.6689,8.6689,8.6689,8.7308,8.9381,9.1163,9.2321,9.4087,9.5686,9.6079,9.5201,9.2936,9.0815,8.7744,8.5733,8.6135,8.6663,8.679,8.8021,9.064,9.2591,9.3675,9.4256,9.5891,9.7854,9.8857,9.8658,9.8234,9.77,9.7681,9.8692,9.9089,9.9952,10.1115,10.1924,10.2902,10.425,10.4614,10.536,10.6127,10.6047,10.5961,10.575,10.5234,10.4844,10.4438,10.4072,10.3469,10.3748,10.5369,10.6291,10.6291,10.6291,10.6291,10.6376,10.6376,10.6376,10.6376,10.6376,10.6376,10.6376,10.6229,10.6082,10.5789,10.5532,10.5018,10.4467,10.432,10.432,10.432,10.4284,10.421,10.377,10.3476,10.3806,10.3586,10.3843,10.3856,10.3586,10.3612,10.4466,10.5339,10.6197,10.7351,10.8552,10.7962,10.7136,10.6751,10.6405,10.5944,10.5678,10.5641,10.5517,10.5269,10.4849,10.4493,10.4289,10.5067,10.5488,10.3534,9.9776,9.4802,9.1865,9.0758,8.995,8.9352,8.8723,8.8005,8.7526,8.7287,8.7227,8.7018,8.6689,8.6689,8.6689,8.6689,8.6689,8.6689,8.723,8.8379,8.9873,9.131,9.2337,9.316,9.3664,9.1926,8.9534,8.6716,8.5052,8.3938,8.375,8.3521,8.4496,8.5824,8.7965,9.0072,9.1081,9.1264,9.2866,9.523,9.6096,9.6258,9.6041,9.6256,9.6657,9.7042,9.7264,9.7789,9.8756,9.9503,10.0833,10.1921,10.2617,10.3364,10.4058,10.4344,10.4567,10.4344,10.3976,10.3371,10.2973,10.2822,10.2481,10.2584,10.4024,10.466,10.4752,10.5144,10.5189,10.6127,10.6376,10.6376,10.6376,10.6376,10.6376,10.6156,10.5899,10.5715,10.5422,10.4944,10.421,10.3843,10.3953,10.388,10.3586,10.3513,10.3366,10.2852,10.1898,10.2301,10.2558,10.2558,10.2705,10.2463,10.2572,10.3037,10.3903,10.4847,10.5967,10.6989,10.7112,10.6905,10.6174,10.5559,10.5097,10.4927,10.4672,10.4426,10.4005,10.3599,10.3237,10.2976,10.2469,10.2374,10.296,9.8453,9.412,9.1327,8.9801,8.9561,8.8873,8.7856,8.7586,8.7227,8.6778,8.6718,8.6689,8.6689,8.6689,8.6689,8.6689,8.6689,8.6689,8.7103,8.8226,8.9076,8.967,9.0422,9.0596,8.9883,8.8431,8.6088,8.3486,8.2354,8.139,8.0399,8.1106,8.2348,8.2895,8.4356,8.6501,8.7858,8.8571,8.9383,9.0996,9.2809,9.3486,9.3481,9.3355,9.4034,9.4534,9.4739,9.5103,9.5866,9.7162,9.8589,9.9658,10.0519,10.1447,10.2137,10.2552,10.2609,10.2446,10.2276,10.2015,10.1858,10.1858,10.1699,10.1646,10.1875,10.2497,10.3129,10.3507,10.4588,10.5546,10.6302,10.6302,10.6302,10.6302,10.6192,10.5862,10.5532,10.5238,10.4944,10.4137,10.3366,10.3182,10.3293,10.3109,10.2815,10.2558,10.2558,10.2081,10.0723,10.0172,10.0393,10.0503,10.069,10.1277,10.1489,10.1793,10.2515,10.352,10.4608,10.5443,10.563,10.5597,10.5174,10.4597,10.4229,10.3549,10.3032,10.2826,10.2525,10.1613,10.0943,10.0632,10.0043,9.9169,9.9768,9.3831,9.1793,9.0489,8.9651,8.9112,8.8424,8.7676,8.7107,8.6778,8.6718,8.6689,8.6689,8.6689,8.6689,8.6689,8.6689,8.6689,8.6689,8.6975,8.7265,8.7906,8.8185,8.8035,8.7185,8.6103,8.5003,8.3335,8.1572,8.0505,7.9893,7.9832,8.0807,8.1622,8.1926,8.3353,8.4719,8.5479,8.593,8.668,8.7988,9.0337,9.3668,9.4176,9.4489,9.4489,9.4407,9.4042,9.3976,9.4366,9.5306,9.6669,9.7607,9.8313,9.9158,10.0096,10.0519,10.0924,10.0887,10.0535,10.0384,10.0265,9.9984,9.9293,9.9234,9.9166,9.981,10.0499,10.1464,10.3568,10.469,10.5754,10.6082,10.6082,10.6082,10.5678,10.5311,10.4944,10.4614,10.3843,10.2962,10.2301,10.1788,10.1751,10.1494,10.1053,10.0319,10.0322,10.0485,9.9338,9.8343,9.8603,9.8899,9.9879,10.102,10.0469,10.0647,10.1332,10.221,10.3424,10.4116,10.4208,10.4097,10.3839,10.3681,10.3447,10.2627,10.1162,10.0982,10.0557,9.9239,9.8458,9.8237,9.7788,9.7026]}]]